[[{"header":{"parameterUnit":"m.s-1","parameterCategory":1,"la1":30.6,"la2":29.2853,"lo1":-89.7004,"lo2":-87.6739,"dy":0.0162,"dx":0.0183,"nx":112,"ny":82,"refTime":"2024-06-01T06:00:00:Z","depth":0,"parameterNumber":2,"parameterNumberName":"U-component_of_WINDS"},"data":[0.0,0.0,0.0,0.0,0.0,0.0,0.0,0.0,0.0,0.0,0.0,0.0,0.0,0.0,0.0,0.0,0.0,0.0,0.0,0.0,0.0,0.0,0.0,0.0,0.0,0.0,0.0,0.0,0.0,0.0,0.0,0.0,0.0,0.0,0.0,0.0,0.0,0.0,0.0,0.0,0.0,0.0,0.0,0.0,0.0,0.0,0.0,0.0,0.0,0.0,0.0,0.0,0.0,0.0,0.0,0.0,0.0,0.0,0.0,0.0,0.0,0.0,0.0,0.0,0.0,0.0,0.0,0.0,0.0,0.0,0.0,0.0,0.0,0.0,0.0,0.0,0.0,0.0,0.0,0.0,0.0,0.0,0.0,0.0,0.0,0.0,0.0,0.0,0.0,0.0,-1.1885,-1.4631,-1.7858,-1.9557,-1.9,-1.9061,-1.8287,-1.6282,0.0,0.0,0.0,0.0,0.0,0.0,0.0,0.0,0.0,0.0,0.0,0.0,0.0,0.0,0.0,0.0,0.0,0.0,0.0,0.0,0.0,0.0,0.0,0.0,0.0,0.0,0.0,0.0,0.0,0.0,0.0,0.0,0.0,0.0,0.0,0.0,0.0,0.0,0.0,0.0,0.0,0.0,0.0,0.0,0.0,0.0,0.0,0.0,0.0,0.0,0.0,0.0,0.0,0.0,0.0,0.0,0.0,0.0,0.0,0.0,0.0,0.0,0.0,0.0,0.0,0.0,0.0,0.0,0.0,0.0,0.0,0.0,0.0,0.0,0.0,0.0,0.0,0.0,0.0,0.0,0.0,0.0,0.0,0.0,0.0,0.0,0.0,0.0,0.0,0.0,0.0,0.0,0.0,0.0,0.0,0.0,0.0,0.0,0.0,0.0,0.0,0.0,0.0,0.0,-1.372,-1.857,-1.9762,-2.0181,-2.0073,-1.8761,-1.7502,-1.6495,0.0,0.0,0.0,0.0,0.0,0.0,0.0,0.0,0.0,0.0,0.0,0.0,0.0,0.0,0.0,0.0,0.0,0.0,0.0,0.0,0.0,0.0,0.0,0.0,0.0,0.0,0.0,0.0,0.0,0.0,0.0,0.0,0.0,0.0,0.0,0.0,0.0,0.0,0.0,0.0,0.0,0.0,0.0,0.0,0.0,0.0,0.0,0.0,0.0,0.0,0.0,0.0,0.0,0.0,0.0,0.0,0.0,0.0,0.0,0.0,0.0,0.0,0.0,0.0,0.0,0.0,0.0,0.0,0.0,0.0,0.0,0.0,0.0,0.0,0.0,0.0,0.0,0.0,0.0,0.0,0.0,0.0,0.0,0.0,0.0,0.0,0.0,0.0,0.0,0.0,0.0,0.0,0.0,0.0,0.0,0.0,0.0,0.0,0.0,0.0,0.0,0.0,0.0,-1.3013,-1.5667,-1.9569,-2.0416,-2.0583,-2.0314,-1.8944,-1.7667,-1.6722,-1.4727,0.0,0.0,0.0,0.0,0.0,0.0,0.0,0.0,0.0,0.0,0.0,0.0,0.0,0.0,0.0,0.0,0.0,0.0,0.0,0.0,0.0,0.0,0.0,0.0,0.0,0.0,0.0,0.0,0.0,0.0,0.0,0.0,0.0,0.0,0.0,0.0,0.0,0.0,0.0,0.0,0.0,0.0,0.0,0.0,0.0,0.0,0.0,0.0,0.0,0.0,0.0,0.0,0.0,0.0,0.0,0.0,0.0,0.0,0.0,0.0,0.0,0.0,0.0,0.0,0.0,0.0,0.0,0.0,0.0,0.0,0.0,0.0,0.0,0.0,0.0,0.0,0.0,0.0,0.0,0.0,0.0,0.0,0.0,0.0,0.0,0.0,0.0,0.0,0.0,0.0,0.0,0.0,0.0,0.0,0.0,0.0,0.0,0.0,0.0,0.0,0.0,0.0,-1.5649,-1.7616,-2.0254,-2.0812,-2.0862,-2.0483,-1.9014,-1.7715,-1.6783,-1.4297,0.0,0.0,0.0,0.0,0.0,0.0,0.0,0.0,0.0,0.0,0.0,0.0,0.0,0.0,0.0,0.0,0.0,0.0,0.0,0.0,0.0,0.0,0.0,0.0,0.0,0.0,0.0,0.0,0.0,0.0,0.0,0.0,0.0,0.0,0.0,0.0,0.0,0.0,0.0,0.0,0.0,0.0,0.0,0.0,0.0,0.0,0.0,0.0,0.0,0.0,0.0,0.0,0.0,0.0,0.0,0.0,0.0,0.0,0.0,0.0,0.0,0.0,0.0,0.0,0.0,0.0,0.0,0.0,0.0,0.0,0.0,0.0,0.0,0.0,0.0,0.0,0.0,0.0,0.0,0.0,0.0,0.0,0.0,0.0,0.0,0.0,0.0,0.0,0.0,0.0,0.0,0.0,0.0,0.0,0.0,0.0,0.0,0.0,0.0,0.0,0.0,0.0,-1.7081,-1.9589,-2.1883,-2.146,-2.1007,-2.0959,-1.8655,-1.7001,-1.6538,-1.3954,0.0,0.0,0.0,0.0,0.0,0.0,0.0,0.0,0.0,0.0,0.0,0.0,0.0,0.0,0.0,0.0,0.0,0.0,0.0,0.0,0.0,0.0,0.0,0.0,0.0,0.0,0.0,0.0,0.0,0.0,0.0,0.0,0.0,0.0,0.0,0.0,0.0,0.0,0.0,0.0,0.0,0.0,0.0,0.0,0.0,0.0,0.0,0.0,0.0,0.0,0.0,0.0,0.0,0.0,0.0,0.0,0.0,0.0,0.0,0.0,0.0,0.0,0.0,0.0,0.0,0.0,0.0,0.0,0.0,0.0,0.0,0.0,0.0,0.0,0.0,0.0,0.0,0.0,0.0,0.0,0.0,0.0,0.0,0.0,0.0,0.0,0.0,0.0,0.0,0.0,0.0,0.0,0.0,0.0,0.0,0.0,0.0,0.0,0.0,0.0,0.0,0.0,-1.7272,-1.9823,-2.2062,-2.2181,-2.1886,-2.143,-1.9673,-1.8173,-1.7191,0.0,0.0,0.0,0.0,0.0,0.0,0.0,0.0,0.0,0.0,0.0,0.0,0.0,0.0,0.0,0.0,0.0,0.0,0.0,0.0,0.0,0.0,0.0,0.0,0.0,0.0,0.0,0.0,0.0,0.0,0.0,0.0,0.0,0.0,0.0,0.0,0.0,0.0,0.0,0.0,0.0,0.0,0.0,0.0,0.0,0.0,0.0,0.0,0.0,0.0,0.0,0.0,0.0,0.0,0.0,0.0,0.0,0.0,0.0,0.0,0.0,0.0,0.0,0.0,0.0,0.0,0.0,0.0,0.0,0.0,0.0,0.0,0.0,0.0,0.0,0.0,0.0,0.0,0.0,0.0,0.0,0.0,0.0,0.0,0.0,0.0,0.0,0.0,0.0,0.0,0.0,0.0,0.0,0.0,0.0,0.0,0.0,0.0,0.0,0.0,0.0,0.0,-1.4984,-1.778,-2.0223,-2.2204,-2.2385,-2.2186,-2.1786,-2.0147,-1.8533,-1.715,0.0,0.0,0.0,0.0,0.0,0.0,0.0,0.0,0.0,0.0,0.0,0.0,0.0,0.0,0.0,0.0,0.0,0.0,0.0,0.0,0.0,0.0,0.0,0.0,0.0,0.0,0.0,0.0,0.0,0.0,0.0,0.0,0.0,0.0,0.0,0.0,0.0,0.0,0.0,0.0,0.0,0.0,0.0,0.0,0.0,0.0,0.0,0.0,0.0,0.0,0.0,0.0,0.0,0.0,0.0,0.0,0.0,0.0,0.0,0.0,0.0,0.0,0.0,0.0,0.0,0.0,0.0,0.0,0.0,0.0,0.0,0.0,0.0,0.0,0.0,0.0,0.0,0.0,0.0,0.0,0.0,0.0,0.0,0.0,0.0,0.0,0.0,0.0,0.0,0.0,0.0,0.0,0.0,0.0,0.0,0.0,0.0,0.0,0.0,0.0,0.0,0.0,-1.6209,-1.8825,-2.1001,-2.2539,-2.2046,-2.1744,-2.2068,-1.9774,-1.7699,0.0,0.0,0.0,0.0,0.0,0.0,0.0,0.0,0.0,0.0,0.0,0.0,0.0,0.0,0.0,0.0,0.0,0.0,0.0,0.0,0.0,0.0,0.0,0.0,0.0,0.0,0.0,0.0,0.0,0.0,0.0,0.0,0.0,0.0,0.0,0.0,0.0,0.0,0.0,0.0,0.0,0.0,0.0,0.0,0.0,0.0,0.0,0.0,0.0,0.0,0.0,0.0,0.0,0.0,0.0,0.0,0.0,0.0,0.0,0.0,0.0,0.0,0.0,0.0,0.0,0.0,0.0,0.0,0.0,0.0,0.0,0.0,0.0,0.0,0.0,0.0,0.0,0.0,0.0,0.0,0.0,0.0,0.0,0.0,0.0,0.0,0.0,0.0,0.0,0.0,0.0,0.0,0.0,0.0,0.0,0.0,0.0,0.0,0.0,0.0,0.0,0.0,0.0,-1.626,-1.9015,-2.1173,-2.231,-2.2385,-2.2341,-2.2243,-2.0565,-1.8932,-1.7584,0.0,0.0,0.0,0.0,0.0,0.0,0.0,0.0,0.0,0.0,0.0,0.0,0.0,0.0,0.0,0.0,0.0,0.0,0.0,0.0,0.0,0.0,0.0,0.0,0.0,0.0,0.0,0.0,0.0,0.0,0.0,0.0,0.0,0.0,0.0,0.0,0.0,0.0,0.0,0.0,0.0,0.0,0.0,0.0,0.0,0.0,0.0,0.0,0.0,0.0,0.0,0.0,0.0,0.0,0.0,0.0,0.0,0.0,0.0,0.0,0.0,0.0,0.0,0.0,0.0,0.0,0.0,0.0,0.0,0.0,0.0,0.0,0.0,0.0,0.0,0.0,0.0,0.0,0.0,0.0,0.0,0.0,0.0,0.0,0.0,0.0,0.0,0.0,0.0,0.0,0.0,0.0,0.0,0.0,0.0,0.0,0.0,0.0,0.0,0.0,0.0,0.0,-1.6442,-1.9073,-2.115,-2.2319,-2.25,-2.2527,-2.2463,-2.0951,-1.9321,-1.7776,0.0,0.0,0.0,0.0,0.0,0.0,0.0,0.0,0.0,0.0,0.0,0.0,0.0,0.0,0.0,0.0,0.0,0.0,0.0,0.0,0.0,0.0,0.0,0.0,0.0,0.0,0.0,0.0,0.0,0.0,0.0,0.0,0.0,0.0,0.0,0.0,0.0,0.0,0.0,0.0,0.0,0.0,0.0,0.0,0.0,0.0,0.0,0.0,0.0,0.0,0.0,0.0,0.0,0.0,0.0,0.0,0.0,0.0,0.0,0.0,0.0,0.0,0.0,0.0,0.0,0.0,0.0,0.0,0.0,0.0,0.0,0.0,0.0,0.0,0.0,0.0,0.0,0.0,0.0,0.0,0.0,0.0,0.0,0.0,0.0,0.0,0.0,0.0,0.0,0.0,0.0,0.0,0.0,0.0,0.0,0.0,0.0,0.0,0.0,0.0,0.0,0.0,-1.6694,-1.9056,-2.1046,-2.2505,-2.2453,-2.2415,-2.2634,-2.1037,-1.9209,-1.7331,0.0,0.0,0.0,0.0,0.0,0.0,0.0,0.0,0.0,0.0,0.0,0.0,0.0,0.0,0.0,0.0,0.0,0.0,0.0,0.0,0.0,0.0,0.0,0.0,0.0,0.0,0.0,0.0,0.0,0.0,0.0,0.0,0.0,0.0,0.0,0.0,0.0,0.0,0.0,0.0,0.0,0.0,0.0,0.0,0.0,0.0,0.0,0.0,0.0,0.0,0.0,0.0,0.0,0.0,0.0,0.0,0.0,0.0,0.0,0.0,-0.726,-0.8193,0.0,0.0,0.0,0.0,0.0,0.0,0.0,0.0,0.0,0.0,0.0,0.0,0.0,0.0,0.0,0.0,0.0,0.0,0.0,0.0,0.0,0.0,0.0,0.0,0.0,0.0,0.0,0.0,0.0,0.0,0.0,0.0,0.0,0.0,0.0,0.0,0.0,0.0,0.0,0.0,-1.68,-1.9512,-2.155,-2.2313,-2.2321,-2.2321,-2.2388,-2.0916,-1.9627,-1.8788,-1.6291,0.0,0.0,0.0,0.0,0.0,0.0,0.0,0.0,0.0,0.0,0.0,0.0,0.0,0.0,0.0,0.0,0.0,0.0,0.0,0.0,0.0,0.0,0.0,0.0,0.0,0.0,0.0,0.0,0.0,0.0,0.0,0.0,0.0,0.0,0.0,0.0,0.0,0.0,0.0,0.0,0.0,0.0,0.0,0.0,0.0,0.0,0.0,0.0,0.0,0.0,0.0,0.0,0.0,0.0,0.0,0.0,0.0,0.0,0.0,-0.6996,-0.8107,0.0,0.0,0.0,0.0,0.0,0.0,0.0,0.0,0.0,0.0,0.0,0.0,0.0,0.0,0.0,0.0,0.0,0.0,0.0,0.0,0.0,0.0,0.0,0.0,0.0,0.0,0.0,0.0,0.0,0.0,0.0,0.0,0.0,0.0,0.0,0.0,0.0,0.0,0.0,0.0,-1.7237,-1.9747,-2.1521,-2.1919,-2.218,-2.231,-2.231,-2.1245,-2.0178,-1.9269,-1.7287,0.0,0.0,0.0,0.0,0.0,0.0,0.0,0.0,0.0,0.0,0.0,0.0,0.0,0.0,0.0,0.0,0.0,0.0,0.0,0.0,0.0,0.0,0.0,0.0,0.0,0.0,0.0,0.0,0.0,0.0,0.0,0.0,0.0,0.0,0.0,0.0,0.0,0.0,0.0,0.0,0.0,0.0,0.0,0.0,0.0,0.0,0.0,0.0,0.0,0.0,0.0,0.0,0.0,-0.7043,-0.6969,-0.6614,-0.6253,-0.6349,-0.6855,-0.707,-0.8218,-0.9933,-1.0097,0.0,0.0,0.0,0.0,0.0,0.0,0.0,0.0,0.0,0.0,0.0,0.0,0.0,0.0,0.0,0.0,0.0,0.0,0.0,0.0,0.0,0.0,-1.3467,-1.5139,-1.7281,-1.8365,-1.6205,0.0,0.0,0.0,0.0,0.0,0.0,0.0,0.0,0.0,0.0,0.0,-1.7716,-1.9876,-2.139,-2.1698,-2.2077,-2.231,-2.231,-2.1654,-2.0747,-1.9493,-1.8286,-1.6639,0.0,0.0,0.0,0.0,0.0,0.0,0.0,0.0,0.0,0.0,0.0,0.0,0.0,0.0,0.0,0.0,0.0,0.0,0.0,0.0,0.0,0.0,0.0,0.0,0.0,0.0,0.0,0.0,0.0,0.0,0.0,0.0,-0.9857,-0.976,0.0,0.0,0.0,0.0,0.0,0.0,0.0,0.0,0.0,0.0,0.0,0.0,0.0,-0.6658,-0.6839,-0.692,-0.7356,-0.8077,-0.7884,-0.7994,-0.8361,-0.7827,-0.7669,-0.7749,-0.7745,0.0,-0.9286,-1.0161,0.0,0.0,0.0,0.0,0.0,0.0,0.0,0.0,0.0,0.0,0.0,0.0,0.0,0.0,0.0,0.0,0.0,0.0,0.0,0.0,0.0,0.0,-1.6471,-1.8144,-1.9673,-2.0894,-2.1322,-1.9484,-1.7406,-1.6243,-1.5551,-1.4612,0.0,0.0,0.0,0.0,0.0,0.0,-1.7791,-2.0066,-2.1724,-2.2163,-2.2254,-2.231,-2.231,-2.1841,-2.1174,-2.0304,-1.9312,-1.7997,-1.6238,-1.4733,0.0,0.0,0.0,0.0,0.0,0.0,0.0,0.0,0.0,0.0,0.0,0.0,0.0,0.0,0.0,0.0,0.0,0.0,0.0,0.0,0.0,0.0,0.0,0.0,0.0,0.0,0.0,0.0,0.0,-0.9015,-1.0108,-0.8629,-1.0026,-1.0681,0.0,0.0,0.0,0.0,0.0,0.0,0.0,0.0,0.0,-0.821,-0.7684,-0.7342,-0.7286,-0.7632,-0.799,-0.8357,-0.8383,-0.8518,-0.8762,-0.8518,-0.8424,-0.8424,-0.8424,-0.8616,-0.8982,-0.9829,-1.0996,-1.2216,0.0,0.0,0.0,0.0,0.2113,0.4895,0.8473,0.8954,0.7704,0.6,0.0,0.0,0.0,0.0,0.0,0.0,0.0,-0.9885,-1.1636,-1.4875,-1.8245,-2.0291,-2.1855,-2.3026,-2.3511,-2.2446,-2.0803,-1.8753,-1.825,-1.7279,-1.4486,-1.4319,0.0,0.0,0.0,-1.7832,-1.8924,-2.0538,-2.1688,-2.1882,-2.2135,-2.231,-2.231,-2.2245,-2.1881,-2.1112,-2.0578,-1.9525,-1.7806,-1.6447,-1.4908,0.0,0.0,0.0,0.0,0.0,0.0,0.0,0.0,0.0,0.0,0.0,0.0,0.0,0.0,0.0,0.0,0.0,0.0,0.0,0.0,0.0,0.0,0.0,0.0,0.0,0.0,0.0,0.0,-0.9364,-1.0241,-0.8267,-1.0565,-1.1613,0.0,0.0,0.0,0.0,0.0,0.0,-1.0937,-0.9606,-0.8836,-0.8876,-0.8429,-0.8059,-0.7856,-0.8257,-0.8484,-0.8484,-0.8704,-0.8804,-0.8804,-0.8804,-0.8804,-0.8811,-0.8884,-0.8918,-0.8944,-0.9579,-1.0693,-1.1948,-1.1607,-1.1443,-1.0314,-0.157,0.3454,0.6446,1.0354,1.0484,0.867,0.7182,0.416,0.0798,-0.0694,0.0,0.0,0.0,0.0,-1.1049,-1.3418,-1.643,-1.9486,-2.1856,-2.3446,-2.4447,-2.4493,-2.4247,-2.3287,-2.0858,-2.0486,-1.9553,-1.6393,-1.6218,0.0,-1.5964,-1.7265,-1.8686,-1.9779,-2.0823,-2.1521,-2.1764,-2.2106,-2.2321,-2.2415,-2.2652,-2.2541,-2.1861,-2.1759,-2.095,-1.9237,-1.8066,-1.6573,-1.4691,0.0,0.0,0.0,0.0,0.0,0.0,0.0,0.0,0.0,0.0,0.0,0.0,0.0,0.0,0.0,0.0,0.0,0.0,0.0,0.0,0.0,0.0,0.0,0.0,0.0,0.0,0.0,0.0,0.0,-0.9828,-1.193,0.0,0.0,0.0,0.0,-1.1655,-1.1347,-1.1375,-1.1899,-1.0118,-0.9399,-1.0105,-0.8982,-0.8508,-0.8738,-0.8771,-0.8784,-0.8784,-0.8798,-0.8804,-0.8804,-0.8804,-0.8804,-0.8824,-0.9044,-0.9163,-0.922,-0.97,-1.0181,-1.0565,-1.0445,-0.8643,-0.5606,-0.1021,0.437,0.9426,0.9802,0.9372,0.8711,0.8684,0.3838,-0.227,-0.3816,-0.4939,0.0,0.0,-0.9189,-1.2037,-1.5374,-1.7934,-2.0258,-2.2678,-2.4025,-2.4712,-2.4545,-2.4247,-2.3596,-2.2246,-2.1448,-2.0485,-1.897,0.0,-1.674,-1.7475,-1.7265,-1.7715,-1.9733,-2.059,-2.1354,-2.218,-2.2282,-2.2398,-2.266,-2.2972,-2.2962,-2.2491,-2.2736,-2.2154,-2.0486,-1.9494,-1.8276,-1.6771,-1.4997,0.0,0.0,0.0,0.0,0.0,0.0,0.0,0.0,0.0,0.0,0.0,0.0,0.0,0.0,0.0,0.0,0.0,0.0,0.0,0.0,0.0,0.0,0.0,0.0,0.0,0.0,0.0,0.0,-1.0771,-1.3694,0.0,-1.3089,-1.3714,-1.3781,-1.2667,-1.2545,-1.2516,-1.2637,-1.1245,-1.0684,-1.1198,-1.0382,-0.9902,-0.9767,-1.0287,-1.0394,-1.0181,-1.0181,-1.0401,-1.0888,-1.0394,-1.0449,-1.095,-1.102,-1.1067,-1.1051,-1.0678,-1.0601,-1.0562,-1.0113,-0.9052,-0.7311,-0.2839,0.1825,0.5996,0.6717,0.6798,0.6163,0.3582,-0.0,-0.3818,-0.634,-0.7327,-0.7769,-0.869,-1.1195,-1.4291,-1.7253,-2.0249,-2.306,-2.5116,-2.6289,-2.6852,-2.6611,-2.5988,-2.5186,-2.423,-2.2554,-2.0874,-1.9466,-1.8567,-1.799,-1.7865,-1.8043,-1.8655,-1.9949,-2.0639,-2.1323,-2.2209,-2.2436,-2.2599,-2.2695,-2.3212,-2.344,-2.3274,-2.261,-2.2002,-2.1488,-2.0021,-1.8745,-1.7693,-1.6663,-1.4993,0.0,0.0,0.0,0.0,0.0,0.0,0.0,0.0,0.0,0.0,0.0,0.0,0.0,0.0,0.0,0.0,0.0,0.0,0.0,0.0,0.0,0.0,0.0,0.0,0.0,-1.2546,-1.4542,-1.238,-1.527,-1.6619,-1.4572,-1.5319,-1.5375,-1.4041,-1.3806,-1.3565,-1.3307,-1.2091,-1.1504,-1.1805,-1.1285,-1.091,-1.0732,-1.1382,-1.1562,-1.1302,-1.1302,-1.1584,-1.2095,-1.1527,-1.1584,-1.2103,-1.2228,-1.2279,-1.223,-1.1773,-1.153,-1.134,-1.0161,-0.9538,-0.8869,-0.4766,-0.1408,0.1245,0.2169,0.2395,0.1753,-0.1232,-0.421,-0.6988,-0.9005,-0.9525,-0.9606,-1.0639,-1.3037,-1.6001,-1.9091,-2.1981,-2.4613,-2.6685,-2.7661,-2.804,-2.7769,-2.6954,-2.602,-2.5088,-2.3163,-2.1358,-2.0215,-1.9409,-1.8749,-1.8294,-1.8619,-1.9222,-2.0104,-2.0684,-2.1368,-2.2326,-2.2599,-2.2797,-2.3021,-2.3508,-2.3844,-2.3963,-2.2975,-2.2287,-2.2114,-2.0626,-1.9427,-1.8619,-1.7564,-1.5999,-1.3908,0.0,0.0,0.0,0.0,0.0,0.0,0.0,0.0,0.0,0.0,0.0,0.0,0.0,0.0,0.0,0.0,0.0,0.0,0.0,0.0,0.0,0.0,0.0,-1.1636,-1.334,-1.4659,-1.4805,-1.6576,-1.7359,-1.6293,-1.676,-1.6713,-1.5711,-1.5072,-1.4479,-1.3836,-1.257,-1.1891,-1.185,-1.1662,-1.1595,-1.1559,-1.1982,-1.2175,-1.2184,-1.2184,-1.2184,-1.2184,-1.2184,-1.2184,-1.2201,-1.2571,-1.2672,-1.2697,-1.292,-1.307,-1.2813,-1.063,-0.989,-0.9636,-0.6613,-0.4976,-0.4216,-0.3671,-0.3773,-0.4365,-0.5277,-0.8435,-1.1784,-1.1849,-1.1494,-1.1392,-1.2842,-1.4687,-1.7058,-2.0865,-2.3017,-2.4817,-2.7211,-2.7981,-2.811,-2.7845,-2.7044,-2.6019,-2.4822,-2.3274,-2.1961,-2.1404,-1.9953,-1.8921,-1.8921,-1.8855,0.0,-2.0035,-2.0635,-2.1411,-2.2548,-2.2695,-2.2996,-2.3631,-2.3888,-2.4137,-2.4478,-2.3832,-2.3121,-2.2362,-2.134,-2.0439,-1.9652,-1.7715,-1.6397,-1.5729,0.0,0.0,0.0,0.0,0.0,0.0,0.0,0.0,0.0,0.0,0.0,0.0,0.0,0.0,0.0,0.0,0.0,0.0,0.0,0.0,0.0,-1.3139,-1.4362,-1.375,-1.5818,-1.7469,-1.759,-1.8773,-1.9224,-1.8238,-1.7969,-1.7357,-1.6237,-1.5668,-1.5017,-1.4289,-1.3908,-1.361,-1.3489,-1.3402,-1.3276,-1.3014,-1.3691,-1.3893,-1.3597,-1.3597,-1.3947,-1.4477,-1.3889,-1.3947,-1.4477,-1.4589,-1.4646,-1.4597,-1.41,-1.3846,-1.3768,-1.2546,-1.1389,-1.0232,-0.9463,-0.8968,-0.8816,-0.9432,-0.9236,-0.881,-0.9672,-1.0746,-1.1858,-1.2506,-1.2541,-1.278,-1.4297,-1.6448,-1.9046,-2.2331,-2.5032,-2.7382,-2.9162,-2.9784,-2.9961,-2.9881,-2.8916,-2.7708,-2.6616,-2.4893,-2.3174,-2.1843,-2.0186,-1.9039,-1.9039,-1.8302,-1.8104,-1.9075,-1.9897,-2.0895,-2.2135,-2.2737,-2.3253,-2.3671,-2.3979,-2.4191,-2.4266,-2.3009,-2.2479,-2.2924,-2.143,-2.0551,-2.0476,-1.8462,-1.7122,0.0,0.0,0.0,0.0,0.0,0.0,0.0,0.0,0.0,0.0,0.0,0.0,0.0,0.0,0.0,0.0,0.0,0.0,0.0,0.0,0.0,0.0,-1.5537,-1.7249,-1.709,-1.8234,-1.9185,-1.9354,-1.9916,-2.0039,-1.9317,-1.8984,-1.8479,-1.7545,-1.6986,-1.6395,-1.5657,-1.5395,-1.5174,-1.505,-1.5248,-1.5242,-1.5049,-1.5325,-1.5375,-1.5148,-1.4855,-1.4932,-1.5352,-1.4932,-1.5086,-1.5684,-1.5684,-1.5791,-1.5906,-1.5472,-1.528,-1.512,0.0,0.0,0.0,0.0,-1.1553,-1.1714,-1.2989,-1.3011,-1.2663,-1.3815,-1.4168,-1.4245,-1.4779,-1.4915,-1.5206,-1.6388,-1.8154,-2.0408,-2.3387,-2.5925,-2.8147,-2.988,-3.0547,-3.076,-3.0687,-2.9767,-2.8596,-2.7296,-2.5656,0.0,-2.197,-2.0599,-1.9544,-1.8808,-1.8301,-1.8153,-1.8745,-1.9637,-2.0751,-2.2139,-2.282,-2.3392,-2.3876,-2.4172,0.0,0.0,0.0,-2.2566,-2.2696,-2.1692,0.0,0.0,0.0,0.0,0.0,-1.7533,0.0,0.0,-1.6515,-1.664,0.0,0.0,0.0,0.0,0.0,0.0,0.0,0.0,0.0,0.0,0.0,0.0,0.0,0.0,0.0,0.0,-1.7951,-2.01,-2.0688,-2.0482,-2.0303,-2.0438,-2.0416,-2.0258,-1.9908,-1.9888,-1.9686,-1.9142,-1.8697,-1.8197,-1.763,-1.7018,0.0,0.0,0.0,-1.7047,-1.7047,-1.6774,-1.6595,-1.6492,-1.5914,-1.5537,-1.5488,-1.5537,-1.5712,-1.6001,-1.6001,-1.6234,-1.6529,-1.6529,-1.6602,-1.6461,-1.4197,-1.3222,-1.3197,-1.33,-1.3222,-1.3424,-1.5039,0.0,0.0,-1.7322,-1.7801,-1.7801,-1.7801,-1.7756,-1.7877,-1.8583,-1.971,-2.1305,-2.4031,-2.6016,-2.7806,-2.9759,-3.0535,-3.0795,-3.0643,-2.9892,-2.8736,-2.711,-2.5464,-2.3697,-2.1489,-2.0765,-1.9948,-1.8416,-1.8422,-1.8604,-1.8697,-1.9525,-2.0719,-2.2357,-2.2944,0.0,-2.4151,-2.4357,-2.4461,-2.4461,-2.3914,-2.3146,-2.2145,-2.215,-2.1948,-2.1453,-2.1377,-2.1144,-2.0741,-2.057,-2.0498,-2.0446,-1.8149,-1.8146,0.0,0.0,0.0,0.0,0.0,0.0,0.0,0.0,0.0,0.0,0.0,0.0,0.0,0.0,0.0,-1.7584,-1.958,-2.1157,-2.1888,-2.1888,-2.172,-2.1383,-2.1039,-2.0919,-2.0983,-2.0315,-2.0088,-2.0468,-2.0032,-1.9607,-1.9347,-1.8742,-1.8323,-1.8194,-1.7733,-1.7487,-1.7487,-1.7423,-1.709,-1.6492,-1.6763,0.0,-1.5947,-1.6309,-1.6065,-1.5469,-1.5469,-1.5515,-1.5588,-1.5588,-1.5991,-1.6583,-1.5487,-1.4845,-1.4542,-1.4917,-1.4836,-1.4789,-1.6779,-1.7459,-1.7641,-1.8655,-1.896,-1.896,-1.896,-1.8678,0.0,-1.9203,-2.031,-2.171,-2.3786,-2.5914,-2.7915,-2.9436,-3.0128,-3.0467,-3.0648,-2.9371,-2.7661,-2.5826,-2.3491,-2.1043,-1.863,-1.8784,-1.8958,-1.8019,-1.7277,-1.709,-1.7893,-1.8917,-2.0184,-2.1866,-2.2743,-2.3459,-2.4151,-2.4247,-2.4266,-2.4266,-2.4137,-2.3694,-2.2849,-2.3157,-2.3017,-2.2283,-2.1781,-2.1185,-2.0483,-2.0866,-2.1062,-2.1028,-1.99,-2.0188,0.0,0.0,0.0,0.0,0.0,0.0,0.0,0.0,0.0,0.0,0.0,-1.3383,-1.4284,0.0,-1.7728,-1.9035,-2.0475,-2.1613,-2.2231,-2.231,-2.2135,-2.1658,-2.143,-2.1295,-2.1295,-2.1412,-2.1443,-2.1325,-2.1628,-2.148,-2.0785,-2.046,-2.0106,-1.9724,-1.9401,-1.9194,-1.9173,-1.8338,-1.7899,-1.7806,-1.7243,-1.6501,-1.5745,-1.6369,-1.6039,-1.4947,-1.5898,-1.6206,-1.5981,-1.6466,-1.6949,-1.7307,-1.6883,-1.6364,-1.5845,-1.6043,-1.5996,-1.6086,-1.7891,-1.8523,-1.8764,-2.0006,-2.0423,-2.0423,-2.0423,-2.0447,-2.0649,-2.1004,-2.1803,-2.2881,-2.4215,-2.5749,-2.7225,-2.8596,-2.9379,-2.989,-2.9979,-2.8417,-2.641,-2.4355,-2.1383,-1.8598,-1.6569,-1.6025,-1.6063,-1.6594,-1.6616,-1.6787,-1.7681,-1.8973,-2.03,-2.1549,-2.2591,-2.3392,-2.3917,-2.4094,-2.419,-2.419,-2.419,-2.4025,-2.3621,-2.3835,-2.3614,-2.2843,-2.2553,-2.2042,-2.1353,-2.163,-2.1752,-2.1735,-2.1498,-2.1861,0.0,0.0,0.0,0.0,0.0,0.0,0.0,-1.4078,-1.4397,-1.4874,-1.5278,-1.5816,-1.6625,-1.7943,-1.9185,-2.0063,-2.1054,-2.1869,-2.2254,-2.231,-2.2163,-2.1794,-2.1774,-2.1809,-2.1764,-2.2702,-2.3052,-2.2404,-2.329,-2.3346,-2.2275,-2.2104,-2.1791,-2.1175,-2.105,-2.0951,-2.0866,-1.9383,-1.8836,-1.9112,-1.7719,-1.6571,-1.5707,-1.64,-1.6008,-1.5001,-1.6529,-1.6917,-1.6419,-1.7364,-1.7725,-1.7725,-1.7725,-1.7378,-1.6982,-1.6982,-1.6934,-1.7056,-1.8577,-1.9282,-1.9644,-2.1083,-2.1681,-2.1864,-2.1977,-2.2363,-2.279,-2.2951,-2.3437,-2.4075,-2.4724,-2.5524,-2.645,-2.7622,-2.848,-2.9049,-2.9042,-2.7287,-2.5035,-2.2698,-1.9356,-1.64,-1.4668,-1.3381,-1.3211,-1.5038,-1.5999,-1.6825,-1.7849,-1.9262,-2.0569,-2.1575,-2.2512,-2.3259,-2.3671,-2.4016,-2.419,-2.419,-2.419,-2.419,-2.419,-2.4151,-2.3816,-2.3212,-2.3141,-2.2865,-2.2388,-2.2388,-2.2415,-2.248,-2.2816,-2.3056,-1.3405,-1.3586,-1.4127,-1.468,-1.481,-1.5401,0.0,-1.7382,-1.6827,-1.7876,-1.8176,-1.8313,-1.8429,-1.9681,-2.0767,-2.0863,-2.1625,-2.2237,-2.2282,-2.231,-2.2282,-2.2237,-2.2418,-2.2799,-2.3391,-2.3832,-2.4265,-2.4759,-2.4925,-2.4721,-2.4112,-2.3576,-2.3025,-2.2498,-2.1835,-2.1497,-2.1511,-2.0514,-1.9703,-1.9112,-1.8584,-1.7914,-1.7183,-1.6773,-1.6528,-1.6356,-1.6573,-1.6175,-1.5446,-1.6358,-1.6793,-1.6742,-1.6793,-1.7229,-1.7861,-1.7861,-1.7627,-1.7494,-1.882,-1.9781,-2.0613,-2.1575,-2.2323,-2.3056,-2.3748,-2.3668,-2.3442,-2.4081,-2.4436,-2.4563,-2.4567,-2.53,-2.6217,-2.6941,-2.7471,-2.7856,-2.8033,-2.6131,-2.3603,-2.0839,-1.7594,-1.462,-1.2546,-1.2043,-1.2464,-1.4132,-1.5137,-1.6411,-1.8253,-1.9502,-2.0737,-2.2166,-2.2575,-2.3021,-2.3649,-2.4016,-2.419,-2.419,-2.419,-2.419,-2.419,-2.3917,-2.3566,-2.3212,-2.2923,-2.2721,-2.266,-2.266,-2.2815,-2.3111,-2.3455,-2.3455,-1.5764,-1.6243,-1.6728,-1.6959,-1.7394,-1.7922,-1.8619,-1.8469,-1.8387,-1.8843,-1.9134,-1.9341,-1.9588,-2.0162,-2.0748,-2.1275,-2.2021,-2.2471,-2.2333,-2.2682,-2.2784,-2.2361,-2.2773,-2.3248,-2.3638,-2.4116,-2.4589,-2.5179,-2.5486,-2.5297,-2.443,-2.4168,-2.3786,-2.3288,-2.2574,-2.2333,-2.2656,-2.0897,-1.9988,-1.9974,-1.8791,-1.7782,-1.6964,-1.7279,-1.7432,-1.7354,-1.6853,-1.6715,-1.6802,-1.6636,-1.6932,-1.7373,-1.6784,-1.7139,-1.8008,-1.8008,-1.79,-1.7908,-1.8916,-1.9879,-2.0719,-2.1628,-2.2445,-2.3245,-2.406,-2.4436,-2.4737,-2.5444,-2.5734,-2.5701,-2.5269,-2.5372,-2.5663,-2.5808,-2.6197,-2.6564,-2.6662,-2.4715,-2.2357,-2.0493,-1.7358,-1.4811,-1.3933,-1.3391,-1.356,-1.5235,-1.6158,-1.7292,-1.9014,-2.0784,-2.2399,-2.3762,-2.3601,-2.3648,-2.4289,-2.4067,-2.3996,-2.419,-2.419,-2.419,-2.419,-2.4074,-2.3837,-2.35,-2.3346,-2.3189,-2.2996,-2.2996,-2.3069,-2.3212,-2.3544,-2.361,-1.7268,-1.8089,-1.8705,-1.8644,-1.9314,-1.981,-1.9121,-1.9238,-1.9469,-1.9351,-1.9611,-1.9929,-2.0246,-2.0585,-2.099,-2.1655,-2.2534,-2.31,-2.2911,-2.3294,-2.3363,-2.2818,-2.2943,-2.3325,-2.3883,-2.4456,-2.5029,-2.5575,-2.598,-2.5807,-2.4954,-2.4889,-2.4683,-2.4221,-2.3512,-2.3251,-2.37,-2.1224,-2.0243,-2.059,-1.8844,-1.7647,-1.6991,-1.7716,-1.7862,-1.7579,-1.6922,-1.6853,-1.7148,-1.6219,-1.6358,-1.7157,-1.6498,-1.6932,-1.8008,-1.8008,-1.8008,-1.8076,-1.8721,-1.9683,-2.0719,-2.1365,-2.2249,-2.3305,-2.4279,-2.4951,-2.5618,-2.6549,-2.6864,-2.6707,-2.6048,-2.5788,-2.5682,-2.5386,-2.5496,-2.5728,-2.5842,-2.386,-2.1778,-2.0637,-1.8052,-1.596,-1.5767,-1.5389,-1.5604,-1.7027,-1.8102,-1.9133,-2.0051,-2.2179,-2.389,-2.4765,-2.4531,-2.4506,-2.4956,-2.4685,-2.4502,-2.4538,-2.452,-2.4428,-2.4208,-2.419,-2.4036,-2.3714,-2.3692,-2.3566,-2.3346,-2.3346,-2.3392,-2.3477,-2.3714,-2.3837,-1.7126,-1.8118,-1.9194,-1.8937,-1.9703,-2.0377,-1.9963,-2.0065,-2.0162,-1.9788,-2.0019,-2.028,-2.0314,-2.124,-2.2051,-2.2096,-2.3354,-2.4357,-2.4339,-2.4138,-2.3962,-2.3944,-2.2986,-2.2902,-2.434,-2.5135,-2.5879,-2.659,-2.6657,-2.6526,-2.6166,-2.6158,-2.5936,-2.5555,-2.4773,-2.435,-2.4391,-2.1862,-2.0579,-2.059,-1.8844,-1.8008,-1.794,-1.8008,-1.7501,-1.6636,-1.6627,-1.607,-1.5234,-1.4171,-1.4378,-1.5305,-1.5234,-1.6367,-1.8008,-1.8008,-1.8008,-1.8008,-1.8008,-1.9166,-2.059,-2.0655,-2.1741,-2.3352,-2.4894,-2.5398,-2.5728,-2.7137,-2.756,-2.7445,-2.6722,-2.6542,-2.6516,-2.623,-2.579,-2.5503,-2.5926,-2.4101,-2.2112,-2.124,-1.9506,-1.7973,-1.7171,-1.7663,-1.8426,-1.9182,-2.0989,-2.2033,-2.1425,-2.3332,-2.4679,-2.4512,-2.5077,-2.5472,-2.5472,-2.6095,-2.619,-2.5421,-2.5366,-2.5017,-2.4226,-2.419,-2.4036,-2.3714,-2.3692,-2.3692,-2.3692,-2.3692,-2.3837,-2.417,-2.417,-2.419,-1.8575,-1.9516,-2.0526,-2.0441,-2.0838,-2.119,-2.1057,-2.0878,-2.0731,-2.0599,-2.0665,-2.0927,-2.1409,-2.1824,-2.2245,-2.2762,-2.3929,-2.4627,-2.4147,-2.4632,-2.4688,-2.3727,-2.3684,-2.3934,-2.4455,-2.4409,-2.4863,-2.6127,-2.6332,-2.6156,-2.5681,-2.6092,-2.6301,-2.6276,-2.5043,-2.4598,-2.508,-2.2698,-2.1164,-2.059,-1.8844,-1.8008,-1.8008,-1.8008,-1.7948,-1.7891,-1.7615,-1.7167,-1.6447,-1.5902,-1.579,-1.6149,-1.6149,-1.6932,-1.8008,-1.8008,-1.8008,-1.8008,-1.8008,-1.911,-2.059,-2.059,-2.2077,-2.4047,-2.5063,-2.5728,-2.6336,-2.7306,-2.7625,-2.7475,-2.6752,-2.6894,-2.7057,-2.6545,-2.6567,-2.678,-2.6904,-2.5979,-2.4876,-2.4083,-2.308,-2.2002,-2.0894,-2.0928,-2.1327,-2.203,-2.2702,-2.3471,-2.4318,-2.5104,-2.5797,-2.6282,-2.6132,-2.6141,-2.6598,-2.641,-2.6253,-2.6209,-2.619,-2.6062,-2.5805,-2.5273,-2.4939,-2.4821,-2.431,-2.4016,-2.4016,-2.4016,-2.4094,-2.4208,-2.474,-2.5017,-1.9872,-2.0568,-2.1271,-2.1515,-2.1607,-2.1582,-2.1582,-2.1275,-2.0991,-2.0991,-2.0986,-2.1177,-2.1807,-2.2095,-2.2407,-2.2944,-2.4339,-2.5146,-2.4549,-2.5252,-2.5377,-2.4269,-2.4183,-2.426,-2.4365,-2.3876,-2.4259,-2.5878,-2.6144,-2.6056,-2.5756,-2.6152,-2.6421,-2.6553,-2.5112,-2.4544,-2.5007,-2.2942,-2.1302,-2.0139,-1.8654,-1.8008,-1.8008,-1.8008,-1.8242,-1.8553,-1.7554,-1.7241,-1.7361,-1.6223,-1.6139,-1.6774,-1.6691,-1.7139,-1.8008,-1.8008,-1.8202,-1.8395,-1.8144,-1.911,-2.059,-2.059,-2.225,-2.4452,-2.5175,-2.5906,-2.6669,-2.7408,-2.7625,-2.757,-2.7331,-2.7578,-2.7797,-2.7522,-2.7604,-2.7791,-2.7954,-2.7355,-2.6762,-2.6468,-2.5707,-2.4833,-2.3978,-2.3636,-2.3655,-2.4296,-2.4393,-2.4768,-2.5852,-2.6264,-2.6674,-2.7224,-2.7105,-2.7146,-2.7594,-2.7332,-2.7114,-2.7013,-2.7034,-2.6906,-2.6612,-2.6098,-2.5866,-2.5928,-2.5369,-2.5093,-2.5152,-2.5152,-2.5152,-2.5171,-2.5688,-2.5928,-2.0952,-2.1237,-2.1414,-2.2141,-2.1974,-2.1658,-2.1658,-2.1321,-2.1007,-2.1038,-2.0949,-2.1015,-2.1512,-2.2101,-2.2525,-2.2673,-2.4537,-2.5895,-2.5533,-2.5922,-2.6044,-2.5471,-2.4481,-2.3943,-2.4179,-2.374,-2.417,-2.5881,-2.6092,-2.6251,-2.6392,-2.6344,-2.635,-2.6481,-2.5063,-2.4292,-2.4292,-2.2725,-2.1049,-1.9462,-1.8559,-1.8115,-1.8135,-1.8076,-1.8301,-1.855,-1.661,-1.6607,-1.7775,-1.5442,-1.5593,-1.7171,-1.6854,-1.7263,-1.8105,-1.8037,-1.8617,-1.9233,-1.8395,-1.9233,-2.0655,-2.0707,-2.2372,-2.4509,-2.5231,-2.596,-2.6721,-2.7408,-2.7625,-2.776,-2.8319,-2.8559,-2.87,-2.9156,-2.8893,-2.8672,-2.9026,-2.8312,-2.7745,-2.8223,-2.7264,-2.6366,-2.6334,-2.5734,-2.5422,-2.5924,-2.6013,-2.6013,-2.6049,-2.6774,-2.7303,-2.7317,-2.7974,-2.842,-2.842,-2.8773,-2.8686,-2.7915,-2.786,-2.7512,-2.6759,-2.6686,-2.6755,-2.6935,-2.672,-2.6682,-2.6879,-2.6898,-2.6898,-2.6898,-2.6935,-2.6972,-2.1164,-2.16,-2.2073,-2.226,-2.2209,-2.2106,-2.2106,-2.1613,-2.1178,-2.1346,-2.0935,-2.0701,-2.1286,-2.1986,-2.2509,-2.2561,-2.4477,-2.5797,-2.5195,-2.6219,-2.6647,-2.5658,-2.5859,-2.5897,-2.5391,-2.551,-2.5796,-2.6267,-2.5978,-2.5986,-2.6527,-2.6518,-2.6466,-2.651,-2.5063,-2.4292,-2.4292,-2.2725,-2.1879,-2.1793,-2.0197,-1.9658,-2.0058,-1.9302,-1.9189,-1.9496,-1.8727,-1.8378,-1.8334,-1.8082,-1.7917,-1.777,-1.8398,-1.8942,-1.9336,-1.8676,-1.9199,-2.0139,-1.9299,-2.0139,-2.1678,-2.2225,-2.3605,-2.5231,-2.6014,-2.6707,-2.7357,-2.7575,-2.7894,-2.8334,-2.8463,-2.918,-2.9843,-2.9978,-3.0277,-3.0486,-3.0627,-3.0443,-3.0101,-2.9715,-2.86,-2.7558,-2.6995,-2.6426,-2.6041,-2.6007,-2.6013,-2.612,-2.647,-2.6987,-2.7409,-2.7725,-2.8139,-2.8515,-2.8815,-2.8929,-2.8902,-2.8723,-2.8705,-2.8613,-2.8411,-2.7805,-2.7518,-2.7564,-2.693,-2.6636,-2.668,-2.6823,-2.6898,-2.6898,-2.7513,-2.7904,-2.1867,-2.2165,-2.2436,-2.2321,-2.231,-2.2237,-2.2,-2.1617,-2.1224,-2.0761,-2.0366,-2.0053,-1.9929,-2.1064,-2.1936,-2.1669,-2.3952,-2.5612,-2.5073,-2.6169,-2.6839,-2.6335,-2.648,-2.6444,-2.6134,-2.6072,-2.6153,-2.6458,-2.6223,-2.6039,-2.6085,-2.6031,-2.5837,-2.5563,-2.4381,-2.3896,-2.4154,-2.3144,-2.2774,-2.2995,-2.1169,-2.0502,-2.0755,-1.9775,-1.9512,-1.9827,-1.9126,-1.9108,-1.938,-1.9042,-1.9087,-1.9492,-1.9835,-1.998,-1.9981,-1.9844,-2.0157,-2.0643,-2.0853,-2.1806,-2.2955,-2.3012,-2.4302,-2.596,-2.6336,-2.7049,-2.7625,-2.7625,-2.8042,-2.8559,-2.8826,-2.9585,-3.0393,-3.0617,-3.0958,-3.119,-3.119,-3.119,-3.097,-3.0243,-2.9508,-2.8703,-2.7598,-2.716,-2.6821,-2.6362,-2.6297,-2.6401,-2.6657,-2.721,-2.7648,-2.7869,-2.836,-2.8749,-2.8994,-2.8994,-2.8994,-2.8994,-2.8994,-2.8994,-2.8994,-2.8576,-2.8386,-2.8498,-2.8054,-2.7875,-2.7958,-2.8162,-2.8263,-2.8282,-2.8717,-2.9011,-2.273,-2.2746,-2.2634,-2.2398,-2.2332,-2.2211,-2.1627,-2.1357,-2.0876,-1.9693,-1.9356,-1.8999,-1.8177,-1.9712,-2.0999,-2.0608,-2.3245,-2.5253,-2.5027,-2.599,-2.6809,-2.7151,-2.6668,-2.6439,-2.6717,-2.6199,-2.6108,-2.6677,-2.6722,-2.6396,-2.5646,-2.5474,-2.5007,-2.4176,-2.356,-2.3489,-2.3991,-2.3786,-2.3682,-2.3742,-2.209,-2.1236,-2.1147,-2.0091,-1.9797,-1.9924,-1.8991,-1.9418,-2.0672,-1.9352,-1.9941,-2.1627,-2.1307,-2.093,-2.0708,-2.1241,-2.1303,-2.1244,-2.2542,-2.3631,-2.4323,-2.3664,-2.4869,-2.651,-2.6616,-2.7086,-2.7625,-2.771,-2.8125,-2.8732,-2.9361,-2.9995,-3.0559,-3.1072,-3.119,-3.119,-3.119,-3.119,-3.1004,-3.0378,-3.026,-2.9803,-2.833,-2.8009,-2.7723,-2.6962,-2.6759,-2.6691,-2.6691,-2.7378,-2.7897,-2.7897,-2.8576,-2.8994,-2.8994,-2.8994,-2.8994,-2.8994,-2.8994,-2.8994,-2.8994,-2.8994,-2.9112,-2.9351,-2.9392,-2.9493,-2.9661,-2.9893,-2.9999,-2.9999,-2.9999,-3.0013,-2.3106,-2.2923,-2.2695,-2.2634,-2.2634,-2.2444,-2.1685,-2.0593,-1.9582,-1.8915,-1.7772,-1.7029,-1.7506,-1.873,-1.9917,-2.0696,-2.2857,-2.4572,-2.4945,-2.597,-2.6948,-2.7603,-2.7303,-2.728,-2.7922,-2.7532,-2.7275,-2.7445,-2.7445,-2.7077,-2.639,-2.5727,-2.4781,-2.3365,-2.3664,-2.3891,-2.4004,-2.4404,-2.4825,-2.5249,-2.4145,-2.3383,-2.2977,-2.202,-2.1181,-2.0449,-2.0294,-2.0767,-2.1735,-2.149,-2.2051,-2.3161,-2.3083,-2.3191,-2.334,-2.2275,-2.2554,-2.3368,-2.3128,-2.3968,-2.5287,-2.5755,-2.6162,-2.6616,-2.7203,-2.7509,-2.771,-2.8189,-2.8779,-2.9361,-2.9995,-3.0601,-3.1055,-3.119,-3.119,-3.119,-3.119,-3.119,-3.1157,-3.1021,-3.1004,-3.0734,-2.9854,-2.9194,-2.8518,-2.774,-2.7097,-2.6691,-2.6691,-2.7378,-2.7897,-2.7897,-2.8576,-2.8994,-2.8994,-2.8994,-2.8994,-2.8994,-2.8994,-2.8994,-2.8994,-2.8994,-2.9017,-2.9067,-2.9289,-2.9433,-2.9454,-2.9813,-2.9999,-2.9999,-2.9999,-3.0122,-2.3282,-2.3212,-2.3165,-2.2996,-2.2972,-2.2593,-2.1097,-2.0164,-1.9092,-1.7291,-1.6515,-1.601,-1.5553,-1.7412,-1.9111,-1.9497,-2.1857,-2.3963,-2.4865,-2.5633,-2.6688,-2.8232,-2.7976,-2.7994,-2.8798,-2.8389,-2.7959,-2.7625,-2.7625,-2.7306,-2.6563,-2.5783,-2.4894,-2.3767,-2.4545,-2.4822,-2.4431,-2.5259,-2.5799,-2.605,-2.5054,-2.4472,-2.4264,-2.322,-2.2553,-2.2124,-2.2124,-2.2339,-2.2776,-2.2776,-2.3368,-2.4264,-2.4264,-2.4237,-2.4229,-2.3978,-2.3896,-2.3977,-2.4458,-2.5225,-2.6162,-2.7195,-2.7327,-2.7137,-2.7509,-2.7625,-2.771,-2.8334,-2.8904,-2.9569,-3.0402,-3.1055,-3.1565,-3.1823,-3.1677,-3.1582,-3.1823,-3.1524,-3.1252,-3.147,-3.1351,-3.097,-3.0243,-2.9803,-2.9313,-2.8535,-2.7774,-2.7335,-2.7553,-2.8124,-2.8369,-2.7933,-2.8576,-2.8994,-2.8994,-2.8994,-2.8994,-2.8994,-2.8994,-2.8994,-2.8994,-2.8994,-2.8994,-2.8994,-2.9355,-2.957,-2.957,-2.9988,-3.0209,-3.0209,-3.0209,-3.0286,-2.3566,-2.3544,-2.3649,-2.3369,-2.3323,-2.2723,-2.0544,-1.9807,-1.8787,-1.5902,-1.5406,-1.5141,-1.4003,-1.6203,-1.8249,-1.8487,-2.0837,-2.3144,-2.4549,-2.5172,-2.6299,-2.8503,-2.8377,-2.8453,-2.9323,-2.8873,-2.8238,-2.7675,-2.7625,-2.7306,-2.6563,-2.5783,-2.5188,-2.4753,-2.5681,-2.5861,-2.5242,-2.6219,-2.6658,-2.6465,-2.5734,-2.5229,-2.4933,-2.4192,-2.3661,-2.3514,-2.3514,-2.3599,-2.3818,-2.3818,-2.4409,-2.53,-2.53,-2.5093,-2.4832,-2.5611,-2.5179,-2.4487,-2.5963,-2.6564,-2.6886,-2.811,-2.8189,-2.781,-2.7944,-2.7993,-2.8125,-2.8732,-2.9225,-2.9816,-3.0836,-3.1462,-3.1915,-3.2384,-3.2196,-3.2057,-3.2417,-3.1878,-3.1411,-3.1752,-3.1487,-3.1021,-3.0446,-3.0209,-2.9905,-2.9313,-2.8659,-2.8305,-2.8624,-2.9145,-2.924,-2.8607,-2.8989,-2.925,-2.925,-2.9085,-2.8994,-2.8994,-2.8994,-2.8994,-2.8994,-2.8994,-2.8994,-2.8994,-2.9475,-2.9696,-2.9696,-3.0174,-3.0398,-3.0398,-3.0398,-3.0398,-2.4113,-2.3917,-2.3692,-2.3671,-2.3649,-2.2977,-2.0408,-1.9339,-1.8146,-1.55,-1.4356,-1.3951,-1.4329,-1.5575,-1.7117,-1.899,-2.0297,-2.1784,-2.3727,-2.4614,-2.5764,-2.769,-2.8023,-2.8453,-2.9323,-2.8873,-2.8238,-2.7675,-2.7625,-2.7306,-2.6563,-2.5783,-2.5646,-2.6199,-2.6803,-2.6986,-2.6722,-2.7289,-2.7229,-2.6533,-2.6383,-2.5873,-2.5004,-2.4933,-2.4337,-2.3514,-2.3514,-2.4036,-2.4862,-2.4862,-2.5441,-2.6383,-2.6383,-2.6358,-2.637,-2.6687,-2.6317,-2.5871,-2.699,-2.7345,-2.7475,-2.824,-2.8463,-2.8511,-2.9088,-2.9225,-2.9361,-2.9978,-3.0166,-3.0444,-3.1476,-3.1771,-3.1915,-3.2384,-3.2484,-3.2451,-3.2484,-3.2109,-3.1752,-3.1789,-3.1487,-3.1173,-3.1106,-3.0548,-3.0091,-3.0023,-2.9693,-2.9451,-2.9485,-3.0231,-3.0712,-3.0612,-3.0279,-3.0099,-3.0099,-2.9439,-2.8994,-2.8994,-2.8994,-2.8994,-2.8994,-2.8994,-2.8994,-2.8994,-2.9475,-2.9696,-2.9696,-3.0174,-3.0398,-3.0398,-3.0398,-3.0398,-2.381,-2.3937,-2.3996,-2.3996,-2.3649,-2.2609,-2.0082,-1.8769,-1.7362,-1.4808,-1.386,-1.3564,-1.3786,-1.509,-1.6535,-1.782,-1.9222,-2.0925,-2.3105,-2.3537,-2.4718,-2.7757,-2.7668,-2.7923,-2.9275,-2.8873,-2.8238,-2.7675,-2.7959,-2.8026,-2.7794,-2.7083,-2.6837,-2.7031,-2.7584,-2.7795,-2.7659,-2.7693,-2.7537,-2.7229,-2.6714,-2.6314,-2.5873,-2.5873,-2.5652,-2.5288,-2.5288,-2.5499,-2.5873,-2.5873,-2.6164,-2.6533,-2.6533,-2.6782,-2.7271,-2.7354,-2.7612,-2.7969,-2.8382,-2.8565,-2.8701,-2.939,-2.9585,-2.954,-2.9451,-2.9406,-2.954,-3.0123,-3.0293,-3.0592,-3.1898,-3.2613,-3.3039,-3.3255,-3.3105,-3.2983,-3.3225,-3.2727,-3.2298,-3.2598,-3.2074,-3.1565,-3.1565,-3.1113,-3.0768,-3.0768,-3.0296,-3.0091,-3.0567,-3.0951,-3.1379,-3.1883,-3.1327,-3.0907,-3.0907,-3.0173,-2.9732,-2.9732,-2.925,-2.8994,-2.8994,-2.8994,-2.9067,-2.9225,-2.9551,-2.9746,-2.9877,-3.0228,-3.0398,-3.0398,-3.0398,-3.0679,-2.3333,-2.3833,-2.419,-2.419,-2.3602,-2.2319,-1.9746,-1.8351,-1.6882,-1.4274,-1.3559,-1.3464,-1.3701,-1.4915,-1.6193,-1.7139,-1.8801,-2.0556,-2.24,-2.2902,-2.4074,-2.6794,-2.6818,-2.7127,-2.8414,-2.8358,-2.814,-2.7894,-2.8455,-2.8925,-2.9169,-2.8723,-2.8479,-2.8382,-2.8779,-2.89,-2.8797,-2.8606,-2.8363,-2.8051,-2.7229,-2.685,-2.685,-2.6589,-2.6533,-2.6533,-2.6533,-2.6533,-2.6533,-2.6533,-2.6658,-2.685,-2.685,-2.7351,-2.8103,-2.8579,-2.8978,-2.9301,-2.9713,-2.9779,-2.9717,-2.9935,-3.0267,-3.0435,-2.9848,-2.9805,-3.0021,-3.0435,-3.0771,-3.1193,-3.223,-3.3166,-3.3807,-3.3807,-3.3578,-3.3465,-3.3734,-3.3225,-3.2809,-3.3154,-3.2433,-3.1789,-3.1789,-3.1487,-3.119,-3.119,-3.0849,-3.0866,-3.1555,-3.1831,-3.22,-3.2865,-3.2449,-3.2008,-3.177,-3.1017,-3.0448,-3.0228,-2.9677,-2.9255,-2.8994,-2.8994,-2.9134,-2.9392,-2.9607,-2.9796,-2.9999,-3.0267,-3.0398,-3.0398,-3.0398,-3.0871,-2.2795,-2.3602,-2.419,-2.419,-2.3602,-2.2264,-1.9453,-1.8181,-1.6798,-1.399,-1.3396,-1.3633,-1.4342,-1.5105,-1.6069,-1.7557,-1.9316,-2.0743,-2.1507,-2.2937,-2.3984,-2.4316,-2.5313,-2.6146,-2.6502,-2.7202,-2.786,-2.8463,-2.9164,-2.9862,-3.0477,-3.0555,-3.056,-3.0462,-3.0492,-3.0393,-3.0254,-3.0254,-2.9827,-2.9002,-2.8117,-2.767,-2.767,-2.685,-2.6533,-2.6533,-2.6533,-2.6533,-2.6533,-2.6533,-2.6973,-2.767,-2.767,-2.8247,-2.9178,-3.0675,-3.0365,-2.9394,-3.0935,-3.0943,-3.0208,-2.9585,-3.0208,-3.1072,-3.0477,-3.0699,-3.119,-3.119,-3.1823,-3.2484,-3.2484,-3.3166,-3.3807,-3.3807,-3.3807,-3.3788,-3.3807,-3.3494,-3.3184,-3.3214,-3.2433,-3.1789,-3.1789,-3.1487,-3.119,-3.119,-3.1528,-3.1951,-3.2433,-3.2903,-3.3332,-3.3743,-3.377,-3.3458,-3.2669,-3.1843,-3.1035,-3.0246,-3.0191,-2.9843,-2.9012,-2.8994,-2.9134,-2.9392,-2.9607,-2.9796,-2.9999,-3.0267,-3.0398,-3.0398,-3.0398,-3.0871,-2.1413,-2.1827,-2.1853,-2.1155,-2.0791,-2.0031,-1.7804,-1.6898,-1.5905,-1.3769,-1.3226,-1.3187,-1.342,-1.4788,-1.6268,-1.7466,-1.9138,-2.0811,-2.2339,-2.3028,-2.4182,-2.6347,-2.7644,-2.8195,-2.7907,-2.8073,-2.8271,-2.8463,-2.9954,-3.0916,-3.1166,-3.2063,-3.2153,-3.1298,-3.0769,-3.0708,-3.1146,-3.0584,-3.0147,-2.9889,-2.9002,-2.8298,-2.767,-2.7417,-2.704,-2.6533,-2.6533,-2.6533,-2.6521,-2.7095,-2.7484,-2.7736,-2.8363,-2.9386,-3.0573,-3.0522,-3.0883,-3.1358,-3.1345,-3.1186,-3.0838,-3.0208,-3.0559,-3.1015,-2.9978,-3.0377,-3.119,-3.119,-3.1823,-3.2484,-3.2484,-3.3166,-3.3807,-3.3807,-3.3807,-3.3868,-3.4043,-3.3831,-3.3671,-3.3854,-3.3015,-3.2282,-3.2282,-3.1694,-3.119,-3.119,-3.1329,-3.1657,-3.2417,-3.2616,-3.2996,-3.3734,-3.3807,-3.3697,-3.344,-3.2687,-3.2118,-3.1861,-3.1329,-3.0907,-3.065,-3.0831,-3.1036,-3.1317,-3.0968,-3.1192,-3.1987,-3.152,-3.1564,-3.2122,-3.2718,-3.3141,-1.9769,-2.0277,-2.0351,-1.968,-1.9207,-1.8489,-1.6756,-1.5799,-1.4846,-1.334,-1.2838,-1.2824,-1.3324,-1.4753,-1.6183,-1.7223,-1.9237,-2.1061,-2.2227,-2.3048,-2.4419,-2.6768,-2.7797,-2.8273,-2.8124,-2.8356,-2.8606,-2.8826,-3.0713,-3.1912,-3.222,-3.328,-3.3535,-3.2739,-3.1828,-3.1511,-3.1894,-3.1131,-3.0777,-3.0718,-2.9889,-2.9192,-2.8684,-2.8363,-2.792,-2.7417,-2.7417,-2.7417,0.0,-2.7986,-2.8363,-2.8748,-2.9254,-3.0218,-3.1319,-3.1097,-3.146,-3.19,-3.1484,-3.1132,-3.0699,-2.9892,-3.0038,-3.0435,-2.9892,-3.0251,-3.0878,-3.0878,-3.1493,-3.2282,-3.2451,-3.3027,-3.3606,-3.3762,-3.3876,-3.4012,-3.4152,-3.4068,-3.4012,-3.4171,-3.3281,-3.2484,-3.2484,-3.1804,-3.119,-3.119,-3.119,-3.1524,-3.2384,-3.2484,-3.284,-3.3707,-3.3807,-3.3807,-3.3807,-3.3348,-3.2926,-3.2632,-3.2137,-3.1715,-3.1403,-3.1663,-3.1929,-3.2185,-3.1939,-3.2158,-3.2891,-3.2391,-3.241,-3.291,-3.3795,-3.4199,0.0,-1.8854,-1.942,-1.9229,-1.8486,-1.7472,-1.6095,-1.4826,0.0,-1.2723,-1.2273,-1.2497,-1.3871,-1.4944,-1.6033,-1.7211,-1.9664,-2.1478,-2.1606,-2.3302,-2.4951,-2.6094,-2.6574,-2.7001,-2.764,-2.8264,-2.8873,-2.9406,-3.1356,-3.2729,-3.3364,-3.4106,-3.4556,-3.4605,-3.3312,-3.2648,-3.2586,-3.1853,-3.1482,-3.1482,-3.0718,-3.0329,-3.0269,-2.9442,-2.9066,-2.9002,-2.9002,-2.9002,-2.8989,-2.9024,-2.9538,-3.0329,-3.0392,-3.0872,-3.1616,-3.226,-3.2044,-3.1386,-3.1314,-3.0853,-3.0081,-2.8966,-2.8966,-2.9496,-3.0081,-3.0251,-3.0293,-3.0293,-3.0977,-3.1844,-3.2384,-3.284,-3.3302,-3.3734,-3.4018,-3.42,-3.4246,-3.4223,-3.42,-3.4223,-3.331,-3.2484,-3.2484,-3.1804,-3.119,-3.119,-3.119,-3.1524,-3.2384,-3.2484,-3.284,-3.3707,-3.3807,-3.3807,-3.3807,-3.3807,-3.3476,-3.2742,-3.2706,-3.2357,-3.1636,-3.1875,-3.2137,-3.2411,-3.2676,-3.2876,-3.2987,-3.3045,-3.3083,-3.3103,-3.391,-3.4295,-1.5892,0.0,-1.7044,-1.6187,-1.5993,-1.561,0.0,-1.3578,-1.3063,-1.1841,-1.187,-1.2536,-1.3996,-1.5325,-1.7116,-1.9866,-2.1098,-2.2189,-2.358,-2.5566,-2.7355,-2.8544,-2.9098,-2.9453,-2.9615,-2.9794,-2.9951,-3.0081,-3.1474,-3.2656,-3.3372,-3.3583,-3.3933,-3.4488,-3.3722,-3.3054,-3.2586,-3.1853,-3.1482,-3.1482,-3.1278,-3.0896,-3.0269,-3.0072,-2.9628,-2.9002,-2.9002,-2.9002,-2.9024,-2.9195,-2.9643,-3.0392,-3.105,-3.2035,-3.3045,-3.2594,-3.2364,-3.2039,-3.0919,-3.0125,-2.9629,-2.9805,-2.9673,-2.9406,-2.9585,-2.9935,-3.0293,-3.0293,-3.0704,-3.1336,-3.2247,-3.284,-3.3343,-3.3975,-3.4152,-3.4315,-3.4794,-3.4532,-3.4288,-3.4529,-3.346,-3.2484,-3.2484,-3.1804,-3.119,-3.119,-3.119,-3.1524,-3.2384,-3.2484,-3.284,-3.3707,-3.3807,-3.3807,-3.3807,-3.3807,-3.3715,-3.3532,-3.3532,-3.3534,-3.3542,-3.3861,-3.413,-3.4409,-3.4676,-3.4505,-3.3891,-3.4564,-3.4891,-3.4891,-3.5103,-3.5199,-1.5189,-1.5773,-1.622,-1.56,-1.5407,-1.5035,-1.3752,-1.2941,-1.224,-1.146,-1.18,-1.2632,-1.3956,-1.5884,-1.7933,-1.9957,-2.1528,-2.3155,-2.506,-2.6997,-2.8553,-2.9383,-2.9967,-3.0293,-3.0293,-3.0293,-3.0293,-3.0293,-3.1549,-3.2459,-3.2865,-3.322,-3.3592,-3.3981,-3.3333,-3.2997,-3.3016,-3.2068,-3.1703,-3.2007,-3.1703,-3.1464,-3.1377,-3.166,-3.1417,-3.0675,-3.0675,-3.0466,-3.0179,-3.0265,-3.0733,-3.136,-3.1474,-3.2376,-3.3389,-3.1978,-3.1687,-3.1731,-3.0045,-2.9088,-2.8717,-2.9585,-2.9496,-2.9042,-2.9316,-2.9451,-2.9496,-2.9496,-3.0015,-3.087,-3.1846,-3.2479,-3.31,-3.3988,-3.4334,-3.4553,-3.4999,-3.4755,-3.4467,-3.4674,-3.3695,-3.2745,-3.255,-3.1967,-3.1445,-3.123,-3.119,-3.1524,-3.2384,-3.2484,-3.284,-3.3707,-3.3807,-3.3807,-3.3807,-3.3807,-3.3807,-3.3807,-3.3928,-3.4043,-3.42,-3.4655,-3.4999,-3.5289,-3.5432,-3.5276,-3.4795,-3.5276,-3.5493,-3.5493,-3.5493,-3.5493,-1.5479,-1.6033,-1.6468,-1.612,-1.5686,-1.5112,-1.4184,-1.2838,-1.1725,-1.1569,-1.2091,-1.3022,-1.4419,-1.6706,-1.8694,-1.9684,-2.1994,-2.4373,-2.6426,-2.7977,-2.9123,-2.9725,-3.0167,-3.0435,-3.0435,-3.0435,-3.0435,-3.0435,-3.1489,-3.2171,-3.2273,-3.278,-3.3119,-3.3237,-3.2673,-3.2689,-3.3284,-3.2151,-3.1862,-3.2422,-3.1955,-3.1971,-3.2438,-3.3244,-3.3187,-3.2431,-3.2431,-3.2007,-3.1302,-3.1108,-3.1571,-3.2214,-3.1632,-3.2231,-3.3123,-3.1368,-3.0975,-3.0981,-2.9045,-2.8091,-2.7894,-2.895,-2.9042,-2.8873,-2.9271,-2.9088,-2.8732,-2.8638,-2.9361,-3.0394,-3.1345,-3.2056,-3.2805,-3.3919,-3.4464,-3.4774,-3.5034,-3.4926,-3.4734,-3.4694,-3.3913,-3.3087,-3.2583,-3.2179,-3.1711,-3.1269,-3.119,-3.1524,-3.2384,-3.2484,-3.284,-3.3707,-3.3807,-3.3807,-3.3807,-3.3807,-3.3815,-3.3868,-3.4074,-3.4246,-3.4338,-3.487,-3.5273,-3.5493,-3.5493,-3.5493,-3.5493,-3.5493,-3.5493,-3.5493,-3.5493,-3.5493,-1.6739,-1.7595,-1.7772,-1.615,-1.5612,-1.5277,-1.456,-1.3434,-1.2549,-1.2562,-1.302,-1.4231,-1.6914,-1.8078,-1.9667,-2.274,-2.4413,-2.6098,-2.8287,-2.8757,-2.944,-3.0868,-3.1033,-3.1055,-3.1055,-3.1055,-3.1055,-3.1055,-3.1252,-3.163,-3.2297,-3.1816,-3.1816,-3.2442,-3.236,-3.2369,-3.247,-3.1783,-3.1482,-3.1593,-3.2135,-3.2103,-3.1625,-3.2987,-3.2835,-3.1619,-3.1719,-3.1359,-3.0582,-2.9505,-2.9765,-3.0887,-3.1351,-3.2014,-3.261,-3.2308,-3.1563,-3.042,-2.8404,-2.7993,-2.8367,-2.8606,-2.9271,-2.9951,-2.954,-2.9673,-2.9935,-2.9406,-2.9406,-2.987,-3.1216,-3.2056,-3.2805,-3.3919,-3.4464,-3.4774,-3.5034,-3.507,-3.4963,-3.4734,-3.4073,-3.332,-3.2631,-3.2109,-3.1677,-3.1252,-3.119,-3.1524,-3.2384,-3.2484,-3.284,-3.3707,-3.3807,-3.3807,-3.3807,-3.3807,-3.3902,-3.4123,-3.4195,-3.4427,-3.4944,-3.5273,-3.5446,-3.5493,-3.5493,-3.5493,-3.5493,-3.5493,-3.5493,-3.5493,-3.5493,-3.5493,-1.5971,-1.6846,-1.7479,-1.6826,-1.7253,-1.7446,-1.6023,-1.5144,-1.4532,-1.4227,-1.4952,-1.6182,-1.7853,-1.9441,-2.15,-2.4432,-2.6003,-2.7368,-2.8938,-2.9395,-2.9982,-3.1176,-3.1248,-3.119,-3.119,-3.119,-3.119,-3.119,-3.119,-3.1343,-3.1681,-3.1376,-3.1343,-3.1681,-3.1698,-3.1698,-3.1698,-3.1449,-3.1499,-3.1945,-3.1927,-3.1933,-3.2045,-3.308,-3.2996,-3.1986,-3.2069,-3.1643,-3.0944,-2.9996,-3.0211,-3.1016,-3.0604,-3.1084,-3.1951,-3.1182,-3.0113,-2.8865,-2.7921,-2.776,-2.814,-2.8779,-2.9134,-2.9406,-2.9761,-2.9848,-2.9761,-2.9496,-2.9629,-3.01,-3.098,-3.1846,-3.2741,-3.365,-3.4297,-3.4774,-3.5034,-3.4981,-3.4851,-3.4714,-3.4152,-3.3459,-3.2631,-3.2316,-3.195,-3.1291,-3.1389,-3.177,-3.2417,-3.2713,-3.3105,-3.3734,-3.3807,-3.3807,-3.3807,-3.3807,-3.4005,-3.4423,-3.4595,-3.487,-3.5304,-3.5432,-3.5493,-3.5493,-3.5493,-3.5493,-3.5493,-3.5493,-3.5493,-3.5493,-3.5493,-3.5493,-1.5506,-1.6392,-1.7359,-1.7676,-1.8476,-1.8841,-1.751,-1.6716,-1.622,-1.604,-1.6875,-1.7892,-1.8781,-2.1038,-2.3451,-2.5559,-2.6977,-2.8257,-2.9595,-3.0044,-3.0614,-3.1635,-3.1585,-3.1487,-3.1487,-3.1428,-3.1351,-3.1351,-3.1252,-3.119,-3.119,-3.119,-3.119,-3.119,-3.119,-3.119,-3.119,-3.119,-3.1506,-3.2106,-3.1779,-3.1813,-3.2222,-3.308,-3.3006,-3.2208,-3.2208,-3.1855,-3.1102,-3.0323,-3.0443,-3.0911,-2.9889,-3.0159,-3.099,-2.9788,-2.8621,-2.7625,-2.7625,-2.7625,-2.776,-2.8857,-2.8966,-2.8919,-2.9995,-3.0081,-2.9805,-2.9805,-3.0166,-3.0567,-3.0836,-3.1685,-3.2677,-3.3348,-3.4067,-3.4634,-3.4832,-3.4793,-3.4674,-3.4612,-3.4213,-3.3597,-3.2663,-3.2583,-3.235,-3.1487,-3.1714,-3.2127,-3.2616,-3.2983,-3.3361,-3.3762,-3.3807,-3.3807,-3.3807,-3.3928,-3.4208,-3.4674,-3.4944,-3.5223,-3.5493,-3.5493,-3.5493,-3.5493,-3.5493,-3.5493,-3.5493,-3.5493,-3.5493,-3.5493,-3.5493,-3.5493,-1.68,-1.7753,-1.841,-1.8503,-1.7958,-1.7617,-1.8527,-1.7379,-1.6507,-1.79,-1.8206,-1.8765,-2.0565,-2.2981,-2.5099,-2.6353,-2.7258,-2.8617,-3.0913,-3.0957,-3.1312,-3.2883,-3.2677,-3.2417,-3.2417,-3.2004,-3.1752,-3.1752,-3.1411,-3.119,-3.119,-3.119,-3.119,-3.119,-3.119,-3.119,-3.119,-3.119,-3.1241,-3.128,-3.1928,-3.1888,-3.1341,-3.2765,-3.2687,-3.1396,-3.1468,-3.1124,-3.0385,-2.9154,-2.9014,-2.9569,-2.9562,-2.9666,-2.9663,-2.894,-2.821,-2.7625,-2.7625,-2.7625,-2.771,-2.8367,-2.8919,-2.9451,-3.0107,-3.0658,-3.1055,-3.1055,-3.1095,-3.11,-3.0931,-3.1685,-3.2616,-3.3105,-3.3732,-3.4246,-3.4246,-3.4489,-3.4612,-3.4311,-3.42,-3.3817,-3.2677,-3.2858,-3.284,-3.1897,-3.2127,-3.2616,-3.3075,-3.3184,-3.3361,-3.3762,-3.3807,-3.3807,-3.3807,-3.4307,-3.4653,-3.4694,-3.4944,-3.5223,-3.5493,-3.5493,-3.5493,-3.5493,-3.5493,-3.5493,-3.5493,-3.5493,-3.5493,-3.5493,-3.5493,-3.5493,-1.5765,-1.7039,-1.8355,-1.8759,-1.8906,-1.891,-1.8836,-1.9327,-1.978,-1.9828,-2.0631,-2.1601,-2.2658,-2.4206,-2.5536,-2.62,-2.7565,-2.9219,-3.1127,-3.1056,-3.1405,-3.3003,-3.2795,-3.2484,-3.2484,-3.235,-3.2248,-3.2248,-3.2074,-3.2021,-3.2021,-3.2021,-3.2021,-3.2021,-3.1785,-3.16,-3.1565,-3.1312,-3.119,-3.119,-3.1461,-3.1479,-3.1257,-3.1865,-3.1818,-3.1292,-3.132,-3.116,-3.0815,-2.9962,-2.954,-2.9348,-2.8629,-2.8358,-2.8323,-2.8051,-2.7799,-2.7625,-2.7625,-2.786,-2.8271,-2.8873,-2.9451,-3.0081,-3.0658,-3.1015,-3.119,-3.119,-3.119,-3.1173,-3.1106,-3.1551,-3.2161,-3.2648,-3.331,-3.3901,-3.4152,-3.4311,-3.4357,-3.4223,-3.4068,-3.3733,-3.3057,-3.3075,-3.2983,-3.2332,-3.2648,-3.3014,-3.3184,-3.3437,-3.3634,-3.3762,-3.3935,-3.4043,-3.4043,-3.4442,-3.4754,-3.4944,-3.5207,-3.5383,-3.5493,-3.5493,-3.5493,-3.5493,-3.5493,-3.5493,-3.5493,-3.5493,-3.5493,-3.5493,-3.5493,-3.5493,-1.5459,-1.6781,-1.8358,-1.8913,-1.967,-2.0184,-1.9897,-2.0686,-2.1403,-2.1172,-2.2098,-2.3145,-2.3857,-2.4865,-2.5775,-2.6357,-2.7898,-2.9567,-3.1164,-3.1162,-3.1601,-3.3208,-3.3105,-3.2903,-3.2903,-3.2809,-3.2713,-3.2713,-3.2583,-3.2484,-3.2484,-3.2484,-3.2484,-3.2484,-3.2231,-3.2003,-3.1789,-3.1545,-3.1329,-3.119,-3.119,-3.1227,-3.1264,-3.1264,-3.1264,-3.1264,-3.1264,-3.1249,-3.1151,-3.0559,-2.9805,-2.9042,-2.8222,-2.776,-2.7625,-2.7625,-2.7625,-2.7625,-2.781,-2.814,-2.8654,-2.9406,-2.9935,-3.0435,-3.1015,-3.119,-3.119,-3.119,-3.119,-3.119,-3.119,-3.1507,-3.1897,-3.2196,-3.2782,-3.333,-3.3597,-3.3766,-3.388,-3.388,-3.3831,-3.3753,-3.3599,-3.3465,-3.3316,-3.3116,-3.3484,-3.3789,-3.3789,-3.4008,-3.4082,-3.3825,-3.4043,-3.42,-3.42,-3.4574,-3.4908,-3.5088,-3.5354,-3.5493,-3.5493,-3.5493,-3.5493,-3.5493,-3.5493,-3.5493,-3.5493,-3.5493,-3.5493,-3.5493,-3.5493,-3.5493,-1.6366,-1.7384,-1.862,-1.9103,-2.0029,-2.1033,-2.1922,-2.1194,-2.0668,-2.1784,-2.2329,-2.2945,-2.4003,-2.4969,-2.5954,-2.7036,-2.8221,-2.9567,-3.1146,-3.1384,-3.199,-3.3605,-3.3788,-3.3788,-3.3807,-3.3437,-3.3214,-3.3214,-3.2777,-3.2517,-3.2517,-3.2517,-3.2517,-3.2517,-3.2517,-3.2282,-3.1825,-3.1789,-3.1603,-3.119,-3.119,-3.119,-3.119,-3.119,-3.119,-3.119,-3.119,-3.119,-3.1151,-3.0559,-2.9585,-2.8511,-2.8511,-2.814,-2.7625,-2.7625,-2.7625,-2.771,-2.8286,-2.8511,-2.8685,-2.9892,-3.0293,-3.0435,-3.1015,-3.119,-3.119,-3.119,-3.119,-3.119,-3.119,-3.1507,-3.1789,-3.1789,-3.2179,-3.2484,-3.2484,-3.289,-3.3184,-3.3214,-3.3522,-3.3936,-3.4341,-3.4069,-3.3954,-3.4359,-3.4725,-3.499,-3.499,-3.499,-3.4679,-3.388,-3.4043,-3.42,-3.42,-3.4774,-3.5105,-3.5105,-3.5354,-3.5493,-3.5493,-3.5493,-3.5493,-3.5493,-3.5493,-3.5493,-3.5493,-3.5493,-3.5493,-3.5512,-3.5512,-3.5526,-1.6474,-1.7856,-1.9513,-2.0279,-2.166,-2.2986,-2.3508,-2.2901,-2.2476,-2.3474,-2.3671,-2.3867,-2.4496,-2.5626,-2.6544,-2.6872,-2.81,-2.9365,-3.0411,-3.0558,-3.1146,-3.2761,-3.2963,-3.3183,-3.3752,-3.3707,-3.3606,-3.3606,-3.3476,-3.3419,-3.3419,-3.3419,-3.3419,-3.3419,-3.3136,-3.2777,-3.2316,-3.1951,-3.1603,-3.119,-3.119,-3.119,-3.119,-3.119,-3.119,-3.119,-3.119,-3.119,-3.1151,-3.0559,-2.9848,-2.9088,-2.8654,-2.814,-2.7625,-2.7625,-2.786,-2.8286,-2.8415,-2.9058,-2.9821,-3.0166,-3.0576,-3.0975,-3.1151,-3.119,-3.119,-3.119,-3.119,-3.119,-3.119,-3.1291,-3.1449,-3.1716,-3.1933,-3.2092,-3.2417,-3.2616,-3.2827,-3.3154,-3.3302,-3.3691,-3.4655,-3.4238,-3.4037,-3.4702,-3.4916,-3.499,-3.499,-3.499,-3.477,-3.4161,-3.4866,-3.5258,-3.487,-3.5687,-3.5978,-3.5422,-3.5446,-3.5493,-3.5493,-3.5493,-3.5493,-3.5493,-3.5493,-3.5493,-3.5493,-3.5493,-3.5795,-3.6353,-3.6353,-3.668,-1.7788,-1.9134,-2.0545,-2.17,-2.2739,-2.359,-2.4104,-2.3802,-2.3559,-2.3969,-2.41,-2.4275,-2.4863,-2.5962,-2.6898,-2.7199,-2.8243,-2.9292,-3.0099,-3.021,-3.0687,-3.1971,-3.2412,-3.2797,-3.3293,-3.3605,-3.3807,-3.3807,-3.3807,-3.3807,-3.3807,-3.3807,-3.3807,-3.3807,-3.355,-3.3243,-3.2777,-3.2298,-3.1861,-3.1449,-3.1291,-3.119,-3.119,-3.119,-3.119,-3.119,-3.119,-3.119,-3.119,-3.0797,-3.0293,-2.9717,-2.9361,-2.8873,-2.8319,-2.8319,-2.8543,-2.8873,-2.9134,-2.9673,-3.0335,-3.0576,-3.0878,-3.123,-3.1389,-3.1312,-3.123,-3.1372,-3.1312,-3.119,-3.119,-3.119,-3.1252,-3.1507,-3.1565,-3.164,-3.1914,-3.2109,-3.2366,-3.2809,-3.3075,-3.3586,-3.4788,-3.4614,-3.4559,-3.5404,-3.5789,-3.5991,-3.5991,-3.6095,-3.5906,-3.5256,-3.6029,-3.6445,-3.6115,-3.6773,-3.7007,-3.6526,-3.618,-3.5988,-3.5988,-3.568,-3.5493,-3.5493,-3.5493,-3.5493,-3.5493,-3.5834,-3.6238,-3.6719,-3.7065,-3.7507,-1.9616,-2.0684,-2.1502,-2.3105,-2.3417,-2.3449,-2.4002,-2.4154,-2.409,-2.3673,-2.3909,-2.4409,-2.507,-2.6128,-2.711,-2.7791,-2.8533,-2.9278,-3.0037,-3.0152,-3.0446,-3.1262,-3.1992,-3.2507,-3.2654,-3.3316,-3.3776,-3.3842,-3.3842,-3.3815,-3.3807,-3.3807,-3.3807,-3.3807,-3.3807,-3.3606,-3.3214,-3.2745,-3.2264,-3.1789,-3.1372,-3.119,-3.119,-3.119,-3.119,-3.119,-3.119,-3.119,-3.119,-3.119,-3.0838,-3.0293,-3.0293,-2.9935,-2.9406,-2.9406,-2.9451,-2.954,-3.0123,-3.0351,-3.0477,-3.1015,-3.119,-3.1291,-3.1696,-3.1528,-3.1312,-3.1696,-3.1545,-3.1269,-3.119,-3.119,-3.119,-3.119,-3.119,-3.119,-3.119,-3.147,-3.188,-3.2417,-3.284,-3.3526,-3.4788,-3.499,-3.5302,-3.6266,-3.7019,-3.7507,-3.7507,-3.7729,-3.7597,-3.6802,-3.733,-3.7696,-3.7637,-3.7936,-3.8084,-3.8007,-3.7257,-3.6776,-3.6699,-3.593,-3.5493,-3.5493,-3.5493,-3.5493,-3.5493,-3.6238,-3.668,-3.6853,-3.7623,-3.8084,-1.8866,-2.0295,-2.1617,-2.3113,-2.4257,-2.4896,-2.4512,-2.468,-2.4681,-2.3806,-2.4321,-2.5006,-2.5189,-2.6553,-2.7703,-2.7862,-2.8694,-2.9365,-2.9551,-2.9716,-3.0095,-3.0902,-3.1164,-3.1783,-3.3114,-3.3395,-3.3665,-3.4067,-3.4123,-3.4018,-3.3815,-3.3807,-3.3807,-3.3807,-3.3807,-3.3606,-3.3214,-3.2745,-3.2264,-3.1789,-3.1372,-3.119,-3.119,-3.119,-3.119,-3.119,-3.119,-3.119,-3.119,-3.119,-3.0838,-3.0293,-3.0293,-2.9935,-2.9406,-2.9406,-2.9717,-3.0123,-3.0251,-3.0617,-3.1015,-3.1151,-3.119,-3.1291,-3.1696,-3.1752,-3.1696,-3.1789,-3.1716,-3.1603,-3.1291,-3.119,-3.119,-3.119,-3.119,-3.119,-3.119,-3.1252,-3.1545,-3.235,-3.2583,-3.3154,-3.4713,-3.499,-3.5514,-3.7,-3.7397,-3.7507,-3.7507,-3.7729,-3.7679,-3.7073,-3.7983,-3.8435,-3.7951,-3.8589,-3.8719,-3.8046,-3.7815,-3.7411,-3.6738,-3.593,-3.5493,-3.5493,-3.5493,-3.5493,-3.5493,-3.568,-3.643,-3.7719,-3.7911,-3.87,-1.956,-2.1134,-2.2393,-2.4128,-2.5028,-2.5373,-2.4935,-2.4792,-2.4514,-2.3736,-2.4471,-2.5281,-2.5459,-2.6817,-2.7936,-2.8102,-2.886,-2.9412,-2.9412,-2.957,-2.9847,-3.0281,-3.0676,-3.1242,-3.2109,-3.2543,-3.3067,-3.3768,-3.3687,-3.3733,-3.3993,-3.385,-3.3807,-3.3807,-3.3807,-3.3707,-3.3494,-3.3045,-3.2616,-3.2127,-3.1696,-3.1389,-3.119,-3.119,-3.119,-3.119,-3.119,-3.119,-3.119,-3.119,-3.1015,-3.074,-3.074,-3.0518,-3.0251,-3.0251,-3.0477,-3.074,-3.074,-3.0935,-3.119,-3.119,-3.119,-3.1329,-3.195,-3.1842,-3.1603,-3.2039,-3.1842,-3.147,-3.1252,-3.119,-3.119,-3.119,-3.119,-3.119,-3.119,-3.1351,-3.1677,-3.2384,-3.2681,-3.3296,-3.4741,-3.5679,-3.6615,-3.7881,-3.8065,-3.8065,-3.8065,-3.8188,-3.8282,-3.829,-3.9128,-3.9547,-3.9219,-3.9662,-3.9753,-3.9234,-3.8863,-3.8452,-3.795,-3.7142,-3.6334,-3.5526,-3.5493,-3.5493,-3.5493,-3.6315,-3.7161,-3.8027,-3.8815,-3.9662,-2.0,-2.1807,-2.3099,-2.5056,-2.5465,-2.5311,-2.5078,-2.454,-2.3978,-2.3651,-2.4374,-2.5195,-2.5724,-2.6946,-2.802,-2.8428,-2.9001,-2.9474,-2.9494,-2.9697,-2.9815,-2.9815,-3.0421,-3.0858,-3.1027,-3.1634,-3.2429,-3.3393,-3.3248,-3.3448,-3.4162,-3.3986,-3.3842,-3.3788,-3.3807,-3.3807,-3.3807,-3.339,-3.2983,-3.2484,-3.1968,-3.1507,-3.119,-3.119,-3.119,-3.119,-3.119,-3.119,-3.119,-3.119,-3.119,-3.119,-3.119,-3.119,-3.119,-3.119,-3.119,-3.119,-3.119,-3.1269,-3.1291,-3.123,-3.1291,-3.1562,-3.2282,-3.1986,-3.1545,-3.2282,-3.1914,-3.1291,-3.123,-3.119,-3.119,-3.119,-3.119,-3.119,-3.119,-3.1507,-3.1915,-3.2417,-3.306,-3.3916,-3.5219,-3.6541,-3.7716,-3.8579,-3.8707,-3.8707,-3.8707,-3.8707,-3.8931,-3.9529,-4.0138,-4.0489,-4.0489,-4.0616,-4.0645,-4.054,-3.9966,-3.9463,-3.9099,-3.8527,-3.7373,-3.5545,-3.5641,-3.5718,-3.5718,-3.7103,-3.7853,-3.8046,-3.9585,-4.0354,-1.7769,-2.0297,-2.2785,-2.4559,-2.4906,-2.4705,-2.4317,-2.3909,-2.3576,-2.358,-2.3998,-2.4619,-2.5635,-2.6946,-2.8084,-2.8651,-2.9243,-2.9731,-2.9893,-3.0136,-3.0318,-3.0318,-3.0394,-3.0759,-3.1507,-3.168,-3.2302,-3.3661,-3.3705,-3.3847,-3.4186,-3.4171,-3.4043,-3.3807,-3.3807,-3.3807,-3.3807,-3.339,-3.2983,-3.2484,-3.1657,-3.1252,-3.119,-3.119,-3.119,-3.119,-3.119,-3.119,-3.119,-3.119,-3.119,-3.119,-3.119,-3.119,-3.119,-3.119,-3.119,-3.119,-3.119,-3.1411,-3.166,-3.1329,-3.1731,-3.235,-3.2451,-3.2417,-3.235,-3.2484,-3.2144,-3.1623,-3.1291,-3.119,-3.119,-3.119,-3.119,-3.119,-3.119,-3.1507,-3.1915,-3.2417,-3.3725,-3.5274,-3.689,-3.7147,-3.7514,-3.8542,-3.8707,-3.8707,-3.8707,-3.8707,-3.8931,-3.9529,-4.0138,-4.0489,-4.0489,-4.0616,-4.0682,-4.0679,-4.0579,-3.9818,-3.8253,-3.8796,-3.7988,-3.5565,-3.618,-3.6546,-3.6546,-3.6757,-3.7257,-3.8027,-3.8988,-3.9815,-1.8942,-2.1126,-2.2785,-2.4469,-2.4521,-2.402,-2.3633,-2.294,-2.2541,-2.301,-2.3445,-2.4191,-2.5806,-2.7165,-2.8312,-2.9027,-2.9551,-2.9908,-2.9984,-3.0222,-3.0398,-3.0398,-3.0398,-3.0552,-3.0929,-3.0968,-3.1431,-3.2541,-3.2481,-3.2645,-3.3223,-3.2994,-3.2809,-3.2686,-3.2532,-3.2449,-3.2449,-3.273,-3.2733,-3.2484,-3.1842,-3.1545,-3.1545,-3.1291,-3.119,-3.119,-3.119,-3.119,-3.119,-3.119,-3.119,-3.119,-3.119,-3.119,-3.119,-3.119,-3.1351,-3.1545,-3.1545,-3.1842,-3.2161,-3.1986,-3.2196,-3.255,-3.2809,-3.2533,-3.2161,-3.2417,-3.2021,-3.1411,-3.1269,-3.119,-3.119,-3.119,-3.1389,-3.1582,-3.1657,-3.195,-3.2523,-3.3682,-3.5137,-3.6413,-3.7147,-3.7679,-3.8157,-3.8634,-3.8707,-3.8707,-3.8707,-3.9275,-3.9821,-4.0063,-4.0336,-4.0489,-4.0489,-4.0799,-4.0896,-4.0703,-4.0742,-4.0358,-3.9446,-3.9758,-3.9219,-3.7661,-3.7026,-3.6699,-3.6699,-3.7199,-3.7873,-3.8738,-3.9585,-4.0162,-1.9367,-2.0958,-2.173,-2.3401,-2.334,-2.2809,-2.2524,-2.1733,-2.1407,-2.2304,-2.2922,-2.3927,-2.5931,-2.7344,-2.8488,-2.9338,-2.9763,-3.0013,-3.0089,-3.0209,-3.0299,-3.0299,-3.0241,-3.0241,-3.0299,-3.0299,-3.0676,-3.154,-3.1484,-3.1676,-3.2289,-3.2049,-3.1837,-3.1681,-3.1489,-3.1384,-3.1384,-3.2088,-3.2415,-3.2364,-3.2108,-3.1986,-3.1968,-3.1694,-3.1524,-3.1524,-3.1291,-3.119,-3.119,-3.119,-3.119,-3.119,-3.1329,-3.1351,-3.1351,-3.1504,-3.1714,-3.1986,-3.1986,-3.2282,-3.2648,-3.255,-3.2648,-3.284,-3.2983,-3.2533,-3.2057,-3.2417,-3.186,-3.123,-3.1329,-3.1291,-3.123,-3.1329,-3.1565,-3.1897,-3.2299,-3.271,-3.344,-3.5023,-3.6303,-3.7184,-3.7459,-3.8175,-3.8707,-3.8707,-3.897,-3.9036,-3.875,-3.9757,-4.0489,-4.0489,-4.0489,-4.0489,-4.0489,-4.0922,-4.1055,-4.0752,-4.0768,-4.0616,-4.0211,-4.02,-3.97,-3.8661,-3.7353,-3.6699,-3.6699,-3.7565,-3.8334,-3.8988,-4.0008,-4.0519,-1.7061,-1.8119,-1.8804,-2.0427,-2.0755,-2.0651,-2.063,-2.0359,-2.0441,-2.1656,-2.2684,-2.3927,-2.5931,-2.7344,-2.8542,-2.9514,-2.9861,-3.0089,-3.0336,-3.0163,-3.0013,-3.0013,-2.9845,-2.9796,-2.9999,-3.0013,-3.039,-3.1264,-3.1539,-3.1722,-3.1811,-3.205,-3.1967,-3.1434,-3.1409,-3.1384,-3.1384,-3.1828,-3.2029,-3.2025,-3.2325,-3.2451,-3.2451,-3.2451,-3.2417,-3.2384,-3.1562,-3.119,-3.119,-3.119,-3.119,-3.123,-3.164,-3.1789,-3.1825,-3.2282,-3.2451,-3.2451,-3.2451,-3.2777,-3.3075,-3.2648,-3.3057,-3.3578,-3.2777,-3.2517,-3.2484,-3.2484,-3.186,-3.1291,-3.166,-3.147,-3.1308,-3.1765,-3.1823,-3.2057,-3.2952,-3.3749,-3.4697,-3.5959,-3.6688,-3.7422,-3.845,-3.867,-3.8707,-3.8707,-3.9668,-4.0004,-3.8833,-3.9757,-4.0489,-4.0489,-4.0489,-4.0489,-4.0489,-4.0922,-4.108,-4.0809,-4.0793,-4.0364,-3.9388,-3.9354,-3.8565,-3.6873,-3.6757,-3.6699,-3.6699,-3.7565,-3.8027,-3.8104,-3.9738,-4.0574,-1.6495,-1.7213,-1.7677,-1.9198,-1.9278,-1.8964,-1.8896,-1.8864,-1.919,-2.0382,-2.1349,-2.2755,-2.5213,-2.7181,-2.8736,-2.955,-3.0003,-3.0299,-3.0398,-3.0311,-3.0196,-3.0013,-2.9939,-2.9924,-2.9999,-2.9999,-3.0209,-3.0695,-3.0816,-3.0789,-3.0648,-3.0617,-3.0452,-3.0139,-2.9936,-3.0118,-3.0613,-3.0782,-3.1238,-3.1982,-3.2104,-3.2437,-3.2952,-3.2648,-3.2648,-3.2921,-3.2282,-3.1878,-3.1603,-3.1914,-3.1694,-3.1269,-3.1968,-3.2074,-3.1861,-3.235,-3.2681,-3.2952,-3.2952,-3.3243,-3.355,-3.339,-3.355,-3.3707,-3.3136,-3.2745,-3.2484,-3.2484,-3.186,-3.1291,-3.1696,-3.1507,-3.1389,-3.2092,-3.2695,-3.3178,-3.3504,-3.4217,-3.5086,-3.6091,-3.7294,-3.8248,-3.8634,-3.8707,-3.897,-3.9735,-4.0211,-4.0063,-3.8862,-3.9757,-4.0489,-4.0489,-4.0489,-4.0489,-4.0489,-4.0813,-4.0883,-4.0616,-4.0733,-4.0344,-3.933,-3.9296,-3.8469,-3.6738,-3.6699,-3.6699,-3.6699,-3.7565,-3.8296,-3.8854,-4.0081,-4.0642,-1.3532,-1.4338,-1.5042,-1.6304,-1.6589,-1.6746,-1.7324,-1.7437,-1.7835,-1.9302,-2.0503,-2.2046,-2.4443,-2.6712,-2.8556,-2.9531,-3.0099,-3.0398,-3.0398,-3.0323,-3.0182,-2.9924,-2.9845,-2.9829,-2.9893,-2.9908,-3.0003,-3.0254,-3.0267,-3.0169,-2.9908,-2.9713,-2.9513,-2.9267,-2.9089,-2.925,-2.9787,-3.0081,-3.06,-3.1402,-3.1928,-3.2472,-3.3009,-3.2949,-3.3105,-3.339,-3.3057,-3.2598,-3.2057,-3.2384,-3.2162,-3.1731,-3.2451,-3.2533,-3.2315,-3.2759,-3.3136,-3.339,-3.339,-3.3578,-3.3807,-3.3807,-3.3807,-3.3707,-3.3136,-3.2745,-3.2484,-3.2316,-3.175,-3.1291,-3.1696,-3.1714,-3.1787,-3.235,-3.3166,-3.3807,-3.3807,-3.4523,-3.5312,-3.5771,-3.7404,-3.8707,-3.8707,-3.8707,-3.91,-4.0319,-4.0489,-4.0211,-3.9402,-3.9645,-4.0043,-4.0473,-4.0489,-4.0489,-4.0489,-4.0703,-4.0752,-4.05,-4.0386,-4.0031,-3.933,-3.8738,-3.7873,-3.6719,-3.643,-3.6315,-3.6315,-3.7161,-3.8017,-3.8934,-3.9843,-4.0469,0.0,0.0,0.0,-1.1617,-1.2688,-1.4007,-1.5847,-1.6028,-1.6374,-1.8604,-2.0208,-2.183,-2.3742,-2.5918,-2.7931,-2.9398,-3.0061,-3.0398,-3.0398,-3.0163,-2.9924,-2.9712,-2.9532,-2.9493,-2.9678,-2.9696,-2.978,-2.9999,-3.0013,-2.9924,-2.9713,-2.9494,-2.9267,-2.9017,-2.8994,-2.8994,-2.8994,-2.9769,-3.0173,-3.0228,-3.1788,-3.2559,-3.2632,-3.3421,-3.377,-3.3807,-3.3807,-3.3314,-3.255,-3.255,-3.2517,-3.255,-3.3045,-3.3214,-3.3243,-3.3652,-3.3807,-3.3807,-3.3807,-3.3807,-3.3807,-3.3807,-3.3807,-3.3634,-3.2777,-3.2484,-3.2417,-3.1915,-3.1507,-3.1291,-3.1696,-3.2127,-3.2484,-3.2484,-3.3148,-3.378,-3.3807,-3.4669,-3.5367,-3.5045,-3.6927,-3.8579,-3.8615,-3.8701,-3.9154,-4.0336,-4.0489,-4.0489,-4.0489,-3.9481,-3.9189,-4.0353,-4.0489,-4.0489,-4.0489,-4.0597,-4.0614,-4.0481,-3.9767,-3.9328,-3.9234,-3.7603,-3.6699,-3.668,-3.5911,-3.5493,-3.5493,-3.6315,-3.7231,-3.8227,-3.906,-4.001,-0.9022,0.0,0.0,0.0,0.0,0.0,-1.3459,-1.4149,-1.5273,-1.7726,-1.925,-2.0909,-2.3431,-2.5068,-2.6468,-2.7683,-2.9312,-3.0398,-3.0398,-3.0163,-2.9924,-2.9712,-2.9532,-2.9493,-2.9678,-2.9696,-2.9864,-3.0254,-3.0299,-3.0128,-2.9731,-2.9314,-2.9067,-2.9017,-2.8994,-2.8994,-2.8994,-2.9237,-2.9622,-3.021,-3.065,-3.1476,-3.2614,-3.2834,-3.3256,-3.3807,-3.3807,-3.3662,-3.3447,-3.3447,-3.3057,-3.2583,-3.3332,-3.3465,-3.3243,-3.3652,-3.3807,-3.3807,-3.3807,-3.3807,-3.3807,-3.3807,-3.3807,-3.3634,-3.2777,-3.2484,-3.2417,-3.1915,-3.1507,-3.123,-3.1351,-3.1677,-3.2057,-3.2417,-3.289,-3.335,-3.3707,-3.4045,-3.4412,-3.4899,-3.5092,-3.555,-3.6762,-3.8643,-4.012,-4.0438,-4.0489,-4.0489,-4.0489,-4.0193,-3.9945,-3.9863,-4.0248,-4.0489,-4.0489,-4.005,-3.9727,-3.9638,-3.8936,-3.8206,-3.745,-3.6969,-3.643,-3.5853,-3.5622,-3.5493,-3.5507,-3.6414,-3.732,-3.8246,-3.9816,-4.0773,-1.0169,-1.0779,-1.1542,-1.0742,0.0,0.0,-1.4356,-1.4809,-1.5706,-1.8337,-1.9656,-2.0966,-2.2936,-2.4508,-2.5753,-2.6569,-2.8185,-2.9467,-2.9813,-3.0037,-3.0047,-2.9748,-2.9661,-2.9661,-2.9696,-2.9782,-2.9988,-3.0367,-3.0299,-3.0037,-2.9607,-2.9415,-2.9206,-2.9017,-2.8994,-2.8994,-2.8994,-2.8994,-2.9232,-2.9714,-3.0044,-3.0687,-3.1623,-3.2302,-3.2871,-3.333,-3.3642,-3.3807,-3.3807,-3.3807,-3.3504,-3.3087,-3.3606,-3.3652,-3.3494,-3.3707,-3.3807,-3.3807,-3.3807,-3.3807,-3.3807,-3.3807,-3.3807,-3.3662,-3.3014,-3.2777,-3.2681,-3.223,-3.177,-3.1449,-3.1449,-3.177,-3.2127,-3.2282,-3.2858,-3.3437,-3.3734,-3.3807,-3.3935,-3.4412,-3.4119,-3.41,-3.5092,-3.8184,-4.0489,-4.0489,-4.0489,-4.0489,-4.0489,-4.0489,-4.0353,-4.0024,-4.0283,-4.0296,-3.9815,-3.9411,-3.9039,-3.8772,-3.8003,-3.7321,-3.6719,-3.6392,-3.5988,-3.5512,-3.5493,-3.5509,-3.555,-3.6102,-3.7027,-3.8315,-3.9841,-4.0775,-1.169,-1.2137,-1.3003,-1.2791,-1.3543,0.0,-1.6655,-1.6616,-1.6862,-1.939,-2.0539,-2.1345,-2.2246,-2.3967,-2.5361,-2.5661,-2.6848,-2.8014,-2.8852,-2.961,-2.9914,-2.9498,-2.9668,-2.9756,-2.9614,-2.9836,-3.0103,-3.0367,-3.015,-2.9829,-2.9454,-2.9589,-2.9475,-2.8998,-2.8994,-2.8994,-2.8994,-2.8994,-2.8994,-2.8994,-2.9732,-3.0118,-3.0246,-3.177,-3.2522,-3.2651,-3.3458,-3.3807,-3.3807,-3.3807,-3.3807,-3.3807,-3.3807,-3.3807,-3.3807,-3.3807,-3.3807,-3.3807,-3.3807,-3.3807,-3.3807,-3.3807,-3.3807,-3.3734,-3.3302,-3.3214,-3.3075,-3.2583,-3.2109,-3.1752,-3.1789,-3.2074,-3.2316,-3.2231,-3.2872,-3.356,-3.3762,-3.3902,-3.3986,-3.3986,-3.3895,-3.3807,-3.3807,-3.7218,-4.0065,-4.0431,-4.0489,-4.0489,-4.0489,-4.0489,-4.0489,-4.0489,-4.0489,-3.9988,-3.8719,-3.8623,-3.8392,-3.7892,-3.7046,-3.6584,-3.6584,-3.5892,-3.5493,-3.5493,-3.5493,-3.5546,-3.5609,-3.5611,-3.6557,-3.8352,-3.9509,-4.0469,-1.4386,-1.4932,-1.5368,-1.3494,-1.4464,0.0,-1.519,-1.5538,-1.6401,-1.7959,-1.9018,-2.0004,-2.104,-2.2611,-2.379,-2.3945,-2.5469,-2.6967,-2.7995,-2.8083,-2.8025,-2.7942,-2.8392,-2.8774,-2.8969,-2.9603,-3.0103,-3.0367,-3.015,-2.9893,-2.9643,-2.9532,-2.9312,-2.9017,-2.8994,-2.8994,-2.8994,-2.8994,-2.8994,-2.8994,-2.914,-2.9586,-3.0228,-3.1201,-3.199,-3.2651,-3.3458,-3.3807,-3.3807,-3.3807,-3.3807,-3.3807,-3.3807,-3.3807,-3.3807,-3.3807,-3.3807,-3.3807,-3.3807,-3.3807,-3.3807,-3.3807,-3.3807,-3.3734,-3.3302,-3.3214,-3.3014,-3.2161,-3.164,-3.1372,-3.1733,-3.164,-3.1711,-3.2601,-3.2265,-3.2074,-3.3504,-3.4532,-3.5171,-3.5171,-3.4423,-3.3807,-3.3807,-3.5285,-3.7392,-4.0085,-4.0489,-4.0489,-4.0489,-4.0489,-4.0489,-4.0489,-4.0489,-3.9681,-3.768,-3.7507,-3.7353,-3.6988,-3.6199,-3.5738,-3.5738,-3.557,-3.5493,-3.5493,-3.5493,-3.5562,-3.5689,-3.5682,-3.6431,-3.7889,-3.998,-4.1035,-1.8903,-1.9102,-1.9206,-1.7825,-1.817,0.0,0.0,-1.7995,-1.8388,-1.993,-2.0164,-2.0435,-2.15,-2.2627,-2.3422,-2.3501,-2.4784,-2.5998,-2.6533,-2.7248,-2.7663,-2.7521,-2.7902,-2.815,-2.815,-2.8632,-2.9161,-2.9706,-2.9518,-2.9505,-2.9695,-2.9513,-2.9267,-2.9017,-2.8994,-2.8994,-2.8994,-2.8994,-2.8994,-2.8994,-2.8994,-2.9195,-2.9641,-3.043,-3.1017,-3.1476,-3.2687,-3.3201,-3.3238,-3.3623,-3.3807,-3.3807,-3.3807,-3.3807,-3.3807,-3.3807,-3.3807,-3.3807,-3.3807,-3.3807,-3.3807,-3.3807,-3.3807,-3.3762,-3.355,-3.3494,-3.339,-3.2947,-3.2332,-3.195,-3.2366,-3.2092,-3.1841,-3.255,-3.2616,-3.2727,-3.3606,-3.4696,-3.5493,-3.5493,-3.5032,-3.4656,-3.4656,-3.5119,-3.6084,-3.7757,-3.8007,-3.8007,-3.8007,-3.9469,-3.9854,-3.818,-3.8007,-3.7565,-3.6449,-3.6353,-3.6295,-3.6122,-3.5718,-3.5493,-3.5493,-3.5528,-3.555,-3.5554,-3.5522,-3.5528,-3.5591,-3.7512,-3.8483,-3.8574,-3.9746,-4.0625,-2.3064,-2.3063,-2.3023,-2.2376,-2.2196,-2.208,0.0,0.0,0.0,-2.2094,-2.1643,-2.1271,-2.2179,-2.2817,-2.3248,-2.3309,-2.427,-2.4975,-2.4841,-2.6178,-2.7124,-2.702,-2.7397,-2.7547,-2.7287,-2.7493,-2.7975,-2.8741,-2.8511,-2.8635,-2.9359,-2.9251,-2.9082,-2.8998,-2.8994,-2.8994,-2.8994,-2.8994,-2.8994,-2.8994,-2.8994,-2.8994,-2.9012,-2.9843,-3.021,-3.0283,-3.1751,-3.2467,-3.2669,-3.3311,-3.366,-3.3807,-3.3807,-3.3807,-3.3807,-3.3807,-3.3807,-3.3807,-3.3807,-3.3807,-3.3807,-3.3807,-3.3807,-3.3807,-3.3807,-3.3734,-3.368,-3.368,-3.3118,-3.2616,-3.3075,-3.2681,-3.2265,-3.2648,-3.3284,-3.3868,-3.4068,-3.4851,-3.5493,-3.5493,-3.5493,-3.5493,-3.5493,-3.5493,-3.5493,-3.5493,-3.5493,-3.5493,-3.5493,-3.7853,-3.8507,-3.5795,-3.5493,-3.5493,-3.5493,-3.5493,-3.5493,-3.5493,-3.5493,-3.5493,-3.5493,-3.5577,-3.5602,-3.5582,-3.554,-3.5534,-3.5596,-3.938,-4.0703,-3.9746,-3.9746,-4.0273,-2.4459,-2.5055,-2.5229,-2.3699,-2.4166,-2.441,-2.1967,0.0,-2.171,-2.1302,0.0,-2.1424,-2.1749,0.0,0.0,-2.2635,-2.3427,-2.3769,-2.3159,-2.3918,-2.4716,-2.5213,-2.6151,-2.6664,-2.6473,-2.663,-2.7028,-2.7714,-2.7026,-2.7077,-2.8222,-2.8259,-2.8472,-2.898,-2.8994,-2.8994,-2.8994,-2.8994,-2.8994,-2.8994,-2.8994,-2.8994,-2.9012,-2.9843,-3.021,-3.0246,-3.1146,-3.1935,-3.2614,-3.2706,-3.3164,-3.3807,-3.3807,-3.3807,-3.3807,-3.3807,-3.3807,-3.3807,-3.3807,-3.3807,-3.3807,-3.3807,-3.3807,-3.3807,-3.3807,-3.355,-3.3273,-3.3273,-3.2921,-3.2616,-3.3075,-3.2827,-3.2648,-3.3447,-3.3734,-3.4087,-3.5086,-3.5398,-3.5493,-3.5493,-3.5493,-3.5493,-3.5493,-3.5493,-3.5493,-3.5493,-3.5493,-3.5493,-3.5493,-3.5834,-3.593,-3.5532,-3.5493,-3.5493,-3.5493,-3.5493,-3.5493,-3.5493,-3.5493,-3.5493,-3.5493,-3.5611,-3.5639,-3.5509,-3.5501,-3.5641,-3.595,-3.9472,-4.1133,-4.0996,-4.0996,-4.1074,-2.4731,-2.5302,-2.5576,-2.453,-2.4939,-2.5115,-2.3188,-2.2569,-2.2413,-2.2539,0.0,0.0,0.0,0.0,0.0,0.0,-2.2938,-2.3112,-2.2851,-2.3109,-2.3573,-2.424,-2.4368,-2.4563,-2.4982,-2.5091,-2.5677,-2.6929,-2.6009,-2.6008,-2.7505,-2.779,-2.8046,-2.8301,-2.8778,-2.8994,-2.8994,-2.8994,-2.8994,-2.8994,-2.8994,-2.8994,-2.8994,-2.9342,-2.9512,-2.9549,-3.0356,-3.0907,-3.1292,-3.2228,-3.2816,-3.3146,-3.3623,-3.3807,-3.3807,-3.3807,-3.3807,-3.3807,-3.3807,-3.3807,-3.3807,-3.3807,-3.3807,-3.3807,-3.3807,-3.368,-3.355,-3.355,-3.3225,-3.3014,-3.3437,-3.3166,-3.2952,-3.3634,-3.408,-3.4551,-3.532,-3.5493,-3.5493,-3.5493,-3.5493,-3.5493,-3.5493,-3.5493,-3.5493,-3.5493,-3.5493,-3.5493,-3.5493,-3.5493,-3.5493,-3.5493,-3.5493,-3.5493,-3.5493,-3.5493,-3.5493,-3.5493,-3.5493,-3.554,-3.5611,-3.56,-3.565,-3.58,-3.578,-3.6852,-3.9023,-4.0488,-4.1191,-4.1191,-4.1191,-4.1191,-2.5229,-2.5672,-2.5918,-2.5024,-2.5258,-2.5375,-2.4121,-2.3628,-2.3543,-2.385,-2.3363,0.0,0.0,0.0,-2.2876,-2.2679,0.0,-2.2639,-2.2177,-2.2293,-2.2681,-2.3313,-2.3144,-2.3371,-2.4351,-2.4014,-2.4418,-2.603,-2.4841,-2.4825,-2.6693,-2.7005,-2.7328,-2.7787,-2.8374,-2.8796,-2.8994,-2.9067,-2.9112,-2.9112,-2.9181,-2.9185,-2.9185,-2.9138,-2.9138,-2.9222,-2.9674,-3.0037,-3.042,-3.1721,-3.2412,-3.2687,-3.3495,-3.3807,-3.3807,-3.3807,-3.3807,-3.3807,-3.3807,-3.3807,-3.3807,-3.3807,-3.3807,-3.3807,-3.3807,-3.3807,-3.3807,-3.3807,-3.3578,-3.3419,-3.3734,-3.3494,-3.3332,-3.385,-3.4348,-3.4851,-3.5383,-3.5493,-3.5493,-3.5493,-3.5493,-3.5493,-3.5493,-3.5493,-3.5493,-3.5493,-3.5493,-3.5493,-3.5493,-3.5493,-3.5493,-3.5493,-3.5493,-3.5493,-3.5493,-3.5493,-3.5493,-3.5493,-3.5593,-3.5685,-3.5783,-3.5682,-3.5742,-3.5996,-3.6934,-3.8672,-4.1191,-4.1191,-4.1191,-4.1191,-4.1191,-4.1191,-2.6428,-2.6745,-2.6839,-2.52,-2.5252,-2.5427,-2.4412,-2.4912,-2.5405,-2.4644,-2.5217,-2.5679,-2.5057,-2.4312,-2.3556,0.0,-2.2793,0.0,0.0,-2.1062,-2.1742,-2.2281,-2.3024,-2.3942,-2.5148,-2.3793,-2.3458,-2.4946,-2.3341,-2.3307,-2.5631,-2.5576,-2.6193,-2.775,-2.7824,-2.8209,-2.8975,-2.9246,-2.9392,-2.9392,-2.9589,-2.9678,-2.9678,-2.9493,-2.9494,-2.9661,-2.9225,-2.9636,-3.0637,-3.1194,-3.1898,-3.2687,-3.3495,-3.3807,-3.3807,-3.3807,-3.3807,-3.3807,-3.3807,-3.3807,-3.3807,-3.3807,-3.3807,-3.3807,-3.3807,-3.3807,-3.3807,-3.3807,-3.3788,-3.3762,-3.3807,-3.3807,-3.3895,-3.4284,-3.4548,-3.4851,-3.5383,-3.5493,-3.5493,-3.5493,-3.5493,-3.5493,-3.5493,-3.5493,-3.5493,-3.5493,-3.5493,-3.5493,-3.5493,-3.5493,-3.5493,-3.5493,-3.5493,-3.5493,-3.5493,-3.5493,-3.5493,-3.5493,-3.5797,-3.5996,-3.5996,-3.5996,-3.5996,-3.5996,-3.9316,-4.1094,-4.1191,-4.1191,-4.1191,-4.1191,-4.1191,-4.1191,-2.721,-2.7614,-2.7689,-2.6012,-2.6043,-2.6133,-2.4725,-2.5074,-2.5512,-2.4839,-2.5504,-2.5945,-2.5151,-2.446,0.0,0.0,0.0,0.0,0.0,-2.0753,-2.0814,-2.1665,-2.2402,-2.2814,-2.2794,-2.2274,-2.2621,-2.4273,-2.3044,-2.3046,-2.5005,-2.5282,-2.5878,-2.6979,-2.7512,-2.8191,-2.8975,-2.9089,-2.9134,-2.9134,-2.9375,-2.9494,-2.9494,-2.957,-2.9644,-2.9696,-2.9533,-2.9663,-3.0077,-3.1213,-3.1844,-3.2186,-3.3353,-3.3807,-3.3807,-3.3807,-3.3807,-3.3807,-3.3807,-3.3807,-3.3807,-3.3807,-3.3807,-3.3807,-3.3807,-3.3807,-3.3807,-3.3807,-3.3807,-3.3842,-3.4018,-3.4068,-3.4147,-3.4508,-3.4774,-3.4999,-3.5083,-3.53,-3.5493,-3.5493,-3.5493,-3.5493,-3.5493,-3.5493,-3.5493,-3.5493,-3.5493,-3.5493,-3.5493,-3.5493,-3.5493,-3.5493,-3.5493,-3.5493,-3.5493,-3.5493,-3.5596,-3.5827,-3.5948,-3.5996,-3.5996,-3.5996,-3.709,-3.9394,-4.0605,-4.1191,-4.1191,-4.1191,-4.1191,-4.1191,-4.1191,-4.1191,-2.8224,-2.8303,-2.818,-2.6767,-2.6681,-2.6543,-2.524,-2.5672,-2.617,-2.5494,-2.592,-2.6335,-2.6087,-2.5205,-2.4524,0.0,0.0,0.0,0.0,-2.0523,-2.0352,-2.0996,-2.1675,-2.2161,-2.2399,-2.162,-2.2023,-2.4351,-2.2821,-2.266,-2.4691,-2.491,-2.5456,-2.6576,-2.7108,-2.7897,-2.8975,-2.9089,-2.9156,-2.9156,-2.9394,-2.9533,-2.9626,-2.9678,-2.9799,-2.9946,-2.9782,-2.9748,-2.9912,-3.1354,-3.1902,-3.1939,-3.3383,-3.3876,-3.3807,-3.3807,-3.3807,-3.3807,-3.3807,-3.3807,-3.3807,-3.3807,-3.3807,-3.3807,-3.3807,-3.3868,-3.3935,-3.3935,-3.3935,-3.3986,-3.4218,-3.4242,-3.4292,-3.4695,-3.4925,-3.5105,-3.51,-3.532,-3.5493,-3.5493,-3.5493,-3.5493,-3.5493,-3.5493,-3.5493,-3.5493,-3.5493,-3.5493,-3.5493,-3.5493,-3.5493,-3.5493,-3.5493,-3.5493,-3.5493,-3.5493,-3.5631,-3.5976,-3.5996,-3.5996,-3.5996,-3.5996,-3.7637,-4.1133,-4.1191,-4.1191,-4.1191,-4.1191,-4.1191,-4.1191,-4.1191,-4.1191]},{"header":{"parameterUnit":"m.s-1","parameterCategory":1,"la1":30.6,"la2":29.2853,"lo1":-89.7004,"lo2":-87.6739,"dy":0.0162,"dx":0.0183,"nx":112,"ny":82,"refTime":"2024-06-01T06:00:00:Z","depth":0,"parameterNumber":3,"parameterNumberName":"V-component_of_WINDS"},"data":[0.0,0.0,0.0,0.0,0.0,0.0,0.0,0.0,0.0,0.0,0.0,0.0,0.0,0.0,0.0,0.0,0.0,0.0,0.0,0.0,0.0,0.0,0.0,0.0,0.0,0.0,0.0,0.0,0.0,0.0,0.0,0.0,0.0,0.0,0.0,0.0,0.0,0.0,0.0,0.0,0.0,0.0,0.0,0.0,0.0,0.0,0.0,0.0,0.0,0.0,0.0,0.0,0.0,0.0,0.0,0.0,0.0,0.0,0.0,0.0,0.0,0.0,0.0,0.0,0.0,0.0,0.0,0.0,0.0,0.0,0.0,0.0,0.0,0.0,0.0,0.0,0.0,0.0,0.0,0.0,0.0,0.0,0.0,0.0,0.0,0.0,0.0,0.0,0.0,0.0,-1.2416,-1.3232,-1.5118,-1.6193,-1.5732,-1.5162,-1.3408,-1.0026,0.0,0.0,0.0,0.0,0.0,0.0,0.0,0.0,0.0,0.0,0.0,0.0,0.0,0.0,0.0,0.0,0.0,0.0,0.0,0.0,0.0,0.0,0.0,0.0,0.0,0.0,0.0,0.0,0.0,0.0,0.0,0.0,0.0,0.0,0.0,0.0,0.0,0.0,0.0,0.0,0.0,0.0,0.0,0.0,0.0,0.0,0.0,0.0,0.0,0.0,0.0,0.0,0.0,0.0,0.0,0.0,0.0,0.0,0.0,0.0,0.0,0.0,0.0,0.0,0.0,0.0,0.0,0.0,0.0,0.0,0.0,0.0,0.0,0.0,0.0,0.0,0.0,0.0,0.0,0.0,0.0,0.0,0.0,0.0,0.0,0.0,0.0,0.0,0.0,0.0,0.0,0.0,0.0,0.0,0.0,0.0,0.0,0.0,0.0,0.0,0.0,0.0,0.0,0.0,-1.1874,-1.3616,-1.4959,-1.5696,-1.5612,-1.5192,-1.3984,-1.182,0.0,0.0,0.0,0.0,0.0,0.0,0.0,0.0,0.0,0.0,0.0,0.0,0.0,0.0,0.0,0.0,0.0,0.0,0.0,0.0,0.0,0.0,0.0,0.0,0.0,0.0,0.0,0.0,0.0,0.0,0.0,0.0,0.0,0.0,0.0,0.0,0.0,0.0,0.0,0.0,0.0,0.0,0.0,0.0,0.0,0.0,0.0,0.0,0.0,0.0,0.0,0.0,0.0,0.0,0.0,0.0,0.0,0.0,0.0,0.0,0.0,0.0,0.0,0.0,0.0,0.0,0.0,0.0,0.0,0.0,0.0,0.0,0.0,0.0,0.0,0.0,0.0,0.0,0.0,0.0,0.0,0.0,0.0,0.0,0.0,0.0,0.0,0.0,0.0,0.0,0.0,0.0,0.0,0.0,0.0,0.0,0.0,0.0,0.0,0.0,0.0,0.0,0.0,-1.2135,-1.2462,-1.3766,-1.463,-1.5231,-1.5588,-1.4868,-1.3679,-1.1872,-0.7872,0.0,0.0,0.0,0.0,0.0,0.0,0.0,0.0,0.0,0.0,0.0,0.0,0.0,0.0,0.0,0.0,0.0,0.0,0.0,0.0,0.0,0.0,0.0,0.0,0.0,0.0,0.0,0.0,0.0,0.0,0.0,0.0,0.0,0.0,0.0,0.0,0.0,0.0,0.0,0.0,0.0,0.0,0.0,0.0,0.0,0.0,0.0,0.0,0.0,0.0,0.0,0.0,0.0,0.0,0.0,0.0,0.0,0.0,0.0,0.0,0.0,0.0,0.0,0.0,0.0,0.0,0.0,0.0,0.0,0.0,0.0,0.0,0.0,0.0,0.0,0.0,0.0,0.0,0.0,0.0,0.0,0.0,0.0,0.0,0.0,0.0,0.0,0.0,0.0,0.0,0.0,0.0,0.0,0.0,0.0,0.0,0.0,0.0,0.0,0.0,0.0,0.0,-1.2672,-1.3035,-1.3597,-1.4304,-1.488,-1.5365,-1.4458,-1.3229,-1.1752,-0.8007,0.0,0.0,0.0,0.0,0.0,0.0,0.0,0.0,0.0,0.0,0.0,0.0,0.0,0.0,0.0,0.0,0.0,0.0,0.0,0.0,0.0,0.0,0.0,0.0,0.0,0.0,0.0,0.0,0.0,0.0,0.0,0.0,0.0,0.0,0.0,0.0,0.0,0.0,0.0,0.0,0.0,0.0,0.0,0.0,0.0,0.0,0.0,0.0,0.0,0.0,0.0,0.0,0.0,0.0,0.0,0.0,0.0,0.0,0.0,0.0,0.0,0.0,0.0,0.0,0.0,0.0,0.0,0.0,0.0,0.0,0.0,0.0,0.0,0.0,0.0,0.0,0.0,0.0,0.0,0.0,0.0,0.0,0.0,0.0,0.0,0.0,0.0,0.0,0.0,0.0,0.0,0.0,0.0,0.0,0.0,0.0,0.0,0.0,0.0,0.0,0.0,0.0,-1.241,-1.2904,-1.2954,-1.4003,-1.4709,-1.4744,-1.3994,-1.3104,-1.2126,-0.7537,0.0,0.0,0.0,0.0,0.0,0.0,0.0,0.0,0.0,0.0,0.0,0.0,0.0,0.0,0.0,0.0,0.0,0.0,0.0,0.0,0.0,0.0,0.0,0.0,0.0,0.0,0.0,0.0,0.0,0.0,0.0,0.0,0.0,0.0,0.0,0.0,0.0,0.0,0.0,0.0,0.0,0.0,0.0,0.0,0.0,0.0,0.0,0.0,0.0,0.0,0.0,0.0,0.0,0.0,0.0,0.0,0.0,0.0,0.0,0.0,0.0,0.0,0.0,0.0,0.0,0.0,0.0,0.0,0.0,0.0,0.0,0.0,0.0,0.0,0.0,0.0,0.0,0.0,0.0,0.0,0.0,0.0,0.0,0.0,0.0,0.0,0.0,0.0,0.0,0.0,0.0,0.0,0.0,0.0,0.0,0.0,0.0,0.0,0.0,0.0,0.0,0.0,-1.1486,-1.1794,-1.2802,-1.2871,-1.3215,-1.405,-1.327,-1.2316,-1.1217,0.0,0.0,0.0,0.0,0.0,0.0,0.0,0.0,0.0,0.0,0.0,0.0,0.0,0.0,0.0,0.0,0.0,0.0,0.0,0.0,0.0,0.0,0.0,0.0,0.0,0.0,0.0,0.0,0.0,0.0,0.0,0.0,0.0,0.0,0.0,0.0,0.0,0.0,0.0,0.0,0.0,0.0,0.0,0.0,0.0,0.0,0.0,0.0,0.0,0.0,0.0,0.0,0.0,0.0,0.0,0.0,0.0,0.0,0.0,0.0,0.0,0.0,0.0,0.0,0.0,0.0,0.0,0.0,0.0,0.0,0.0,0.0,0.0,0.0,0.0,0.0,0.0,0.0,0.0,0.0,0.0,0.0,0.0,0.0,0.0,0.0,0.0,0.0,0.0,0.0,0.0,0.0,0.0,0.0,0.0,0.0,0.0,0.0,0.0,0.0,0.0,0.0,-1.1497,-1.1056,-1.1095,-1.2435,-1.2472,-1.2745,-1.3416,-1.265,-1.1694,-1.0664,0.0,0.0,0.0,0.0,0.0,0.0,0.0,0.0,0.0,0.0,0.0,0.0,0.0,0.0,0.0,0.0,0.0,0.0,0.0,0.0,0.0,0.0,0.0,0.0,0.0,0.0,0.0,0.0,0.0,0.0,0.0,0.0,0.0,0.0,0.0,0.0,0.0,0.0,0.0,0.0,0.0,0.0,0.0,0.0,0.0,0.0,0.0,0.0,0.0,0.0,0.0,0.0,0.0,0.0,0.0,0.0,0.0,0.0,0.0,0.0,0.0,0.0,0.0,0.0,0.0,0.0,0.0,0.0,0.0,0.0,0.0,0.0,0.0,0.0,0.0,0.0,0.0,0.0,0.0,0.0,0.0,0.0,0.0,0.0,0.0,0.0,0.0,0.0,0.0,0.0,0.0,0.0,0.0,0.0,0.0,0.0,0.0,0.0,0.0,0.0,0.0,0.0,-1.1615,-1.1256,-1.1049,-1.1733,-1.2986,-1.3521,-1.287,-1.2177,-1.1439,0.0,0.0,0.0,0.0,0.0,0.0,0.0,0.0,0.0,0.0,0.0,0.0,0.0,0.0,0.0,0.0,0.0,0.0,0.0,0.0,0.0,0.0,0.0,0.0,0.0,0.0,0.0,0.0,0.0,0.0,0.0,0.0,0.0,0.0,0.0,0.0,0.0,0.0,0.0,0.0,0.0,0.0,0.0,0.0,0.0,0.0,0.0,0.0,0.0,0.0,0.0,0.0,0.0,0.0,0.0,0.0,0.0,0.0,0.0,0.0,0.0,0.0,0.0,0.0,0.0,0.0,0.0,0.0,0.0,0.0,0.0,0.0,0.0,0.0,0.0,0.0,0.0,0.0,0.0,0.0,0.0,0.0,0.0,0.0,0.0,0.0,0.0,0.0,0.0,0.0,0.0,0.0,0.0,0.0,0.0,0.0,0.0,0.0,0.0,0.0,0.0,0.0,0.0,-1.1545,-1.0813,-1.0672,-1.2366,-1.2472,-1.2511,-1.2842,-1.2113,-1.1152,-1.005,0.0,0.0,0.0,0.0,0.0,0.0,0.0,0.0,0.0,0.0,0.0,0.0,0.0,0.0,0.0,0.0,0.0,0.0,0.0,0.0,0.0,0.0,0.0,0.0,0.0,0.0,0.0,0.0,0.0,0.0,0.0,0.0,0.0,0.0,0.0,0.0,0.0,0.0,0.0,0.0,0.0,0.0,0.0,0.0,0.0,0.0,0.0,0.0,0.0,0.0,0.0,0.0,0.0,0.0,0.0,0.0,0.0,0.0,0.0,0.0,0.0,0.0,0.0,0.0,0.0,0.0,0.0,0.0,0.0,0.0,0.0,0.0,0.0,0.0,0.0,0.0,0.0,0.0,0.0,0.0,0.0,0.0,0.0,0.0,0.0,0.0,0.0,0.0,0.0,0.0,0.0,0.0,0.0,0.0,0.0,0.0,0.0,0.0,0.0,0.0,0.0,0.0,-1.1353,-1.0791,-1.0718,-1.2308,-1.2344,-1.2295,-1.2452,-1.1914,-1.0987,-0.9502,0.0,0.0,0.0,0.0,0.0,0.0,0.0,0.0,0.0,0.0,0.0,0.0,0.0,0.0,0.0,0.0,0.0,0.0,0.0,0.0,0.0,0.0,0.0,0.0,0.0,0.0,0.0,0.0,0.0,0.0,0.0,0.0,0.0,0.0,0.0,0.0,0.0,0.0,0.0,0.0,0.0,0.0,0.0,0.0,0.0,0.0,0.0,0.0,0.0,0.0,0.0,0.0,0.0,0.0,0.0,0.0,0.0,0.0,0.0,0.0,0.0,0.0,0.0,0.0,0.0,0.0,0.0,0.0,0.0,0.0,0.0,0.0,0.0,0.0,0.0,0.0,0.0,0.0,0.0,0.0,0.0,0.0,0.0,0.0,0.0,0.0,0.0,0.0,0.0,0.0,0.0,0.0,0.0,0.0,0.0,0.0,0.0,0.0,0.0,0.0,0.0,0.0,-1.1049,-1.1057,-1.1132,-1.184,-1.251,-1.2618,-1.1972,-1.1721,-1.0868,-0.9215,0.0,0.0,0.0,0.0,0.0,0.0,0.0,0.0,0.0,0.0,0.0,0.0,0.0,0.0,0.0,0.0,0.0,0.0,0.0,0.0,0.0,0.0,0.0,0.0,0.0,0.0,0.0,0.0,0.0,0.0,0.0,0.0,0.0,0.0,0.0,0.0,0.0,0.0,0.0,0.0,0.0,0.0,0.0,0.0,0.0,0.0,0.0,0.0,0.0,0.0,0.0,0.0,0.0,0.0,0.0,0.0,0.0,0.0,0.0,0.0,-0.7785,-0.5021,0.0,0.0,0.0,0.0,0.0,0.0,0.0,0.0,0.0,0.0,0.0,0.0,0.0,0.0,0.0,0.0,0.0,0.0,0.0,0.0,0.0,0.0,0.0,0.0,0.0,0.0,0.0,0.0,0.0,0.0,0.0,0.0,0.0,0.0,0.0,0.0,0.0,0.0,0.0,0.0,-1.1067,-1.1322,-1.164,-1.256,-1.2822,-1.2822,-1.2666,-1.2015,-1.1161,-1.0095,-0.799,0.0,0.0,0.0,0.0,0.0,0.0,0.0,0.0,0.0,0.0,0.0,0.0,0.0,0.0,0.0,0.0,0.0,0.0,0.0,0.0,0.0,0.0,0.0,0.0,0.0,0.0,0.0,0.0,0.0,0.0,0.0,0.0,0.0,0.0,0.0,0.0,0.0,0.0,0.0,0.0,0.0,0.0,0.0,0.0,0.0,0.0,0.0,0.0,0.0,0.0,0.0,0.0,0.0,0.0,0.0,0.0,0.0,0.0,0.0,-1.1701,-0.9204,0.0,0.0,0.0,0.0,0.0,0.0,0.0,0.0,0.0,0.0,0.0,0.0,0.0,0.0,0.0,0.0,0.0,0.0,0.0,0.0,0.0,0.0,0.0,0.0,0.0,0.0,0.0,0.0,0.0,0.0,0.0,0.0,0.0,0.0,0.0,0.0,0.0,0.0,0.0,0.0,-1.1572,-1.1807,-1.2176,-1.3236,-1.3065,-1.2881,-1.2881,-1.2266,-1.1416,-1.0354,-0.8619,0.0,0.0,0.0,0.0,0.0,0.0,0.0,0.0,0.0,0.0,0.0,0.0,0.0,0.0,0.0,0.0,0.0,0.0,0.0,0.0,0.0,0.0,0.0,0.0,0.0,0.0,0.0,0.0,0.0,0.0,0.0,0.0,0.0,0.0,0.0,0.0,0.0,0.0,0.0,0.0,0.0,0.0,0.0,0.0,0.0,0.0,0.0,0.0,0.0,0.0,0.0,0.0,0.0,-1.9219,-1.9017,-1.7691,-1.778,-1.8181,-1.8581,-1.588,-1.3951,-1.2488,-0.9333,0.0,0.0,0.0,0.0,0.0,0.0,0.0,0.0,0.0,0.0,0.0,0.0,0.0,0.0,0.0,0.0,0.0,0.0,0.0,0.0,0.0,0.0,-1.4441,-1.3218,-1.1821,-1.0337,-0.8753,0.0,0.0,0.0,0.0,0.0,0.0,0.0,0.0,0.0,0.0,0.0,-1.2119,-1.242,-1.2789,-1.3558,-1.32,-1.2881,-1.2881,-1.2376,-1.1559,-1.0474,-0.9067,-0.7759,0.0,0.0,0.0,0.0,0.0,0.0,0.0,0.0,0.0,0.0,0.0,0.0,0.0,0.0,0.0,0.0,0.0,0.0,0.0,0.0,0.0,0.0,0.0,0.0,0.0,0.0,0.0,0.0,0.0,0.0,0.0,0.0,-0.4415,-0.5355,0.0,0.0,0.0,0.0,0.0,0.0,0.0,0.0,0.0,0.0,0.0,0.0,0.0,-1.5591,-1.7143,-1.8264,-1.9164,-1.9866,-2.0948,-2.1241,-2.0826,-2.1074,-2.1215,-2.129,-2.0854,0.0,-1.6581,-1.3424,0.0,0.0,0.0,0.0,0.0,0.0,0.0,0.0,0.0,0.0,0.0,0.0,0.0,0.0,0.0,0.0,0.0,0.0,0.0,0.0,0.0,0.0,-1.7056,-1.4432,-1.2413,-1.0704,-0.9493,-0.7823,-0.6595,-0.677,-0.6601,-0.6698,0.0,0.0,0.0,0.0,0.0,0.0,-1.2113,-1.3031,-1.3443,-1.3055,-1.2978,-1.2881,-1.2881,-1.1921,-1.114,-1.0739,-0.9005,-0.7639,-0.6934,-0.6027,0.0,0.0,0.0,0.0,0.0,0.0,0.0,0.0,0.0,0.0,0.0,0.0,0.0,0.0,0.0,0.0,0.0,0.0,0.0,0.0,0.0,0.0,0.0,0.0,0.0,0.0,0.0,0.0,0.0,-0.566,-0.6194,-0.737,-0.6826,-0.6642,0.0,0.0,0.0,0.0,0.0,0.0,0.0,0.0,0.0,-1.594,-1.736,-1.852,-1.9358,-2.0688,-2.1513,-2.1771,-2.2722,-2.3088,-2.2976,-2.3088,-2.3144,-2.3144,-2.3144,-2.2446,-2.1033,-1.7373,-1.5066,-1.3627,0.0,0.0,0.0,0.0,-1.0871,-1.2115,-1.4976,-1.7292,-1.9069,-1.9324,0.0,0.0,0.0,0.0,0.0,0.0,0.0,-1.859,-1.7664,-1.6594,-1.5174,-1.3114,-1.0837,-0.9012,-0.8557,-0.8114,-0.7882,-0.8105,-0.851,-0.8851,-0.914,-0.9613,0.0,0.0,0.0,-1.2602,-1.3189,-1.3594,-1.3684,-1.3409,-1.3104,-1.2881,-1.2881,-1.2078,-1.139,-1.1049,-0.9432,-0.8288,-0.7881,-0.6687,-0.5798,0.0,0.0,0.0,0.0,0.0,0.0,0.0,0.0,0.0,0.0,0.0,0.0,0.0,0.0,0.0,0.0,0.0,0.0,0.0,0.0,0.0,0.0,0.0,0.0,0.0,0.0,0.0,0.0,-0.7617,-0.7893,-0.8982,-0.8366,-0.817,0.0,0.0,0.0,0.0,0.0,0.0,-1.3811,-1.56,-1.7155,-1.8401,-2.0101,-2.1133,-2.1438,-2.2685,-2.3309,-2.3309,-2.3914,-2.419,-2.419,-2.419,-2.419,-2.4208,-2.441,-2.4502,-2.4243,-2.0661,-1.8521,-1.7384,-1.583,-1.4257,-1.3083,-1.4937,-1.5419,-1.5659,-1.9269,-2.1027,-2.1733,-2.194,-2.1913,-2.1509,-1.9871,0.0,0.0,0.0,0.0,-1.9331,-1.8134,-1.5797,-1.3268,-1.1438,-0.9118,-0.7416,-0.7664,-0.8231,-0.8823,-0.9287,-1.0214,-1.0894,-1.0902,-1.1837,0.0,-1.2528,-1.3368,-1.4017,-1.4043,-1.4045,-1.3909,-1.36,-1.3152,-1.2822,-1.2618,-1.1981,-1.13,-1.0781,-0.9518,-0.8624,-0.8265,-0.7162,-0.6528,-0.6426,0.0,0.0,0.0,0.0,0.0,0.0,0.0,0.0,0.0,0.0,0.0,0.0,0.0,0.0,0.0,0.0,0.0,0.0,0.0,0.0,0.0,0.0,0.0,0.0,0.0,0.0,0.0,0.0,0.0,-0.9616,-0.9661,0.0,0.0,0.0,0.0,-1.3001,-1.4458,-1.6021,-1.7724,-1.893,-2.0271,-2.1795,-2.2513,-2.3217,-2.4006,-2.4098,-2.4135,-2.4135,-2.4171,-2.419,-2.419,-2.419,-2.419,-2.4245,-2.5017,-2.5348,-2.5161,-2.2851,-2.1587,-2.1074,-2.039,-2.0116,-2.0214,-2.1264,-2.1972,-2.2479,-2.3232,-2.364,-2.3933,-2.4523,-2.3893,-2.3052,-2.3758,-2.2511,0.0,0.0,-2.2048,-2.0745,-1.8485,-1.5867,-1.3093,-1.0335,-0.8155,-0.6853,-0.7563,-0.8231,-0.8999,-0.9963,-1.1165,-1.2248,-1.2916,0.0,-1.4172,-1.4664,-1.5208,-1.5197,-1.4075,-1.4351,-1.4201,-1.3065,-1.2929,-1.2608,-1.1922,-1.1266,-1.0464,-0.9547,-0.8841,-0.8173,-0.7558,-0.7532,-0.7107,-0.6229,-0.5945,0.0,0.0,0.0,0.0,0.0,0.0,0.0,0.0,0.0,0.0,0.0,0.0,0.0,0.0,0.0,0.0,0.0,0.0,0.0,0.0,0.0,0.0,0.0,0.0,0.0,0.0,0.0,0.0,-1.3066,-1.2549,0.0,-1.3261,-1.3714,-1.4522,-1.5854,-1.7031,-1.8297,-1.9646,-2.0497,-2.1429,-2.2461,-2.2914,-2.3613,-2.4638,-2.4383,-2.4635,-2.5357,-2.5357,-2.5267,-2.504,-2.5249,-2.5226,-2.5034,-2.5344,-2.5452,-2.5416,-2.4854,-2.4526,-2.4436,-2.4414,-2.4536,-2.4682,-2.4917,-2.5305,-2.5716,-2.574,-2.5819,-2.5918,-2.632,-2.6191,-2.5931,-2.6157,-2.5552,-2.4828,-2.5059,-2.3872,-2.1902,-1.9078,-1.5189,-1.1309,-0.8587,-0.5768,-0.4133,-0.5474,-0.7146,-0.8919,-1.0788,-1.2246,-1.3363,-1.4078,-1.5306,-1.6127,-1.5945,-1.6389,-1.6288,-1.5101,-1.4789,-1.4247,-1.3017,-1.2501,-1.208,-1.1814,-1.0762,-1.001,-0.97,-0.8679,-0.7846,-0.7242,-0.7238,-0.6916,-0.6265,-0.5778,-0.5346,0.0,0.0,0.0,0.0,0.0,0.0,0.0,0.0,0.0,0.0,0.0,0.0,0.0,0.0,0.0,0.0,0.0,0.0,0.0,0.0,0.0,0.0,0.0,0.0,0.0,-1.2116,-1.2979,-1.4624,-1.4239,-1.4194,-1.5089,-1.5725,-1.656,-1.7731,-1.8915,-2.0016,-2.0887,-2.1591,-2.2218,-2.2678,-2.3267,-2.394,-2.4682,-2.469,-2.508,-2.5839,-2.5839,-2.5714,-2.55,-2.574,-2.5714,-2.5517,-2.5782,-2.5888,-2.5932,-2.6443,-2.6677,-2.6716,-2.6644,-2.6749,-2.6896,-2.6687,-2.6858,-2.7159,-2.6807,-2.6709,-2.6739,-2.6866,-2.6958,-2.7021,-2.6912,-2.6712,-2.6392,-2.5845,-2.4391,-2.2125,-1.8356,-1.4206,-1.0195,-0.6963,-0.4134,-0.2638,-0.4336,-0.6533,-0.8959,-1.1499,-1.3239,-1.4474,-1.5233,-1.6431,-1.718,-1.6837,-1.7061,-1.6857,-1.5636,-1.5028,-1.4143,-1.2696,-1.208,-1.1616,-1.1166,-1.01,-0.9332,-0.9079,-0.8023,-0.7188,-0.6761,-0.6802,-0.6689,-0.6275,-0.592,-0.5666,-0.5514,0.0,0.0,0.0,0.0,0.0,0.0,0.0,0.0,0.0,0.0,0.0,0.0,0.0,0.0,0.0,0.0,0.0,0.0,0.0,0.0,0.0,0.0,0.0,-1.1841,-1.2385,-1.3084,-1.4049,-1.4601,-1.4891,-1.48,-1.6327,-1.7689,-1.8559,-2.0092,-2.1166,-2.1615,-2.233,-2.2721,-2.2764,-2.3779,-2.431,-2.437,-2.5121,-2.5526,-2.5544,-2.5544,-2.5544,-2.5544,-2.5544,-2.5544,-2.5579,-2.6355,-2.6717,-2.677,-2.755,-2.7869,-2.7794,-2.6986,-2.6808,-2.7025,-2.6773,-2.6847,-2.6997,-2.6544,-2.6431,-2.6439,-2.6232,-2.6154,-2.616,-2.6152,-2.5968,-2.5586,-2.4802,-2.3618,-2.1445,-1.6375,-1.3022,-0.9901,-0.566,-0.3374,-0.2521,-0.4224,-0.6493,-0.9023,-1.1973,-1.4053,-1.5593,-1.6349,-1.6966,-1.7338,-1.7338,-1.7353,0.0,-1.5724,-1.5061,-1.3971,-1.2052,-1.1814,-1.1216,-0.9909,-0.911,-0.8429,-0.7777,-0.6947,-0.6303,-0.6044,-0.6422,-0.6493,-0.6196,-0.6492,-0.6335,-0.5725,0.0,0.0,0.0,0.0,0.0,0.0,0.0,0.0,0.0,0.0,0.0,0.0,0.0,0.0,0.0,0.0,0.0,0.0,0.0,0.0,0.0,-1.0928,-1.1373,-1.2165,-1.2867,-1.371,-1.4891,-1.527,-1.5706,-1.6494,-1.7353,-1.829,-1.9265,-2.0054,-2.1052,-2.2322,-2.2585,-2.3106,-2.3964,-2.4303,-2.4838,-2.568,-2.5614,-2.5993,-2.6829,-2.6829,-2.6649,-2.6387,-2.668,-2.6649,-2.6387,-2.6593,-2.6696,-2.6745,-2.723,-2.747,-2.7465,-2.753,-2.7838,-2.8305,-2.8283,-2.8444,-2.8614,-2.819,-2.8009,-2.7941,-2.7696,-2.7633,-2.76,-2.7441,-2.736,-2.7098,-2.6196,-2.4385,-2.1718,-1.729,-1.2823,-0.8502,-0.5011,-0.1887,-0.0131,-0.1893,-0.4709,-0.7814,-1.1025,-1.4227,-1.6683,-1.7531,-1.8096,-1.8466,-1.8466,-1.8462,-1.8025,-1.6876,-1.5898,-1.4563,-1.2715,-1.1648,-1.072,-0.9865,-0.9145,-0.8685,-0.8533,-0.7866,-0.7358,-0.7118,-0.717,-0.7026,-0.6505,-0.6949,-0.6788,0.0,0.0,0.0,0.0,0.0,0.0,0.0,0.0,0.0,0.0,0.0,0.0,0.0,0.0,0.0,0.0,0.0,0.0,0.0,0.0,0.0,0.0,-1.1444,-1.1799,-1.2531,-1.3248,-1.4132,-1.5326,-1.556,-1.594,-1.6866,-1.7703,-1.8479,-1.9315,-2.0243,-2.127,-2.2465,-2.2716,-2.3145,-2.3852,-2.4166,-2.463,-2.5295,-2.5631,-2.6101,-2.6774,-2.6937,-2.6939,-2.6725,-2.6939,-2.7077,-2.7165,-2.7165,-2.7351,-2.769,-2.7913,-2.7996,-2.7994,0.0,0.0,0.0,0.0,-2.8594,-2.8634,-2.8014,-2.7745,-2.7627,-2.7113,-2.693,-2.6933,-2.68,-2.677,-2.6605,-2.5848,-2.4201,-2.1695,-1.7385,-1.2785,-0.8404,-0.4866,-0.1534,0.0268,-0.1474,-0.4316,-0.7529,-1.1167,-1.4664,0.0,-1.9352,-1.9293,-1.9039,-1.9307,-1.9117,-1.8553,-1.7328,-1.6188,-1.4665,-1.259,-1.144,-1.0415,-0.9465,-0.8738,0.0,0.0,0.0,-0.7278,-0.732,-0.7311,0.0,0.0,0.0,0.0,0.0,-0.8694,0.0,0.0,-0.8415,-0.8296,0.0,0.0,0.0,0.0,0.0,0.0,0.0,0.0,0.0,0.0,0.0,0.0,0.0,0.0,0.0,0.0,-1.2051,-1.2317,-1.2927,-1.3429,-1.4216,-1.5262,-1.5454,-1.5756,-1.6411,-1.7519,-1.8438,-1.9058,-2.0405,-2.1496,-2.2164,-2.2686,0.0,0.0,0.0,-2.4233,-2.4233,-2.5342,-2.5924,-2.6013,-2.6485,-2.6776,-2.6826,-2.6911,-2.7351,-2.7996,-2.7996,-2.8403,-2.9066,-2.9066,-2.9047,-2.8948,-2.832,-2.8035,-2.7982,-2.8041,-2.8035,-2.783,-2.6992,0.0,0.0,-2.5681,-2.5422,-2.5422,-2.5422,-2.5358,-2.5178,-2.4661,-2.349,-2.1398,-1.7062,-1.3042,-0.9102,-0.5114,-0.2068,-0.0605,-0.221,-0.4668,-0.7834,-1.1858,-1.5452,-1.8682,-2.1489,-2.0584,-1.9688,-2.0186,-1.9755,-1.8932,-1.7666,-1.6384,-1.4643,-1.2076,-1.119,0.0,-0.891,-0.8209,-0.783,-0.783,-0.7084,-0.6856,-0.7249,-0.7358,-0.788,-0.8941,-0.9074,-0.9414,-1.0004,-1.0651,-1.0956,-1.0929,-1.0164,-0.9597,0.0,0.0,0.0,0.0,0.0,0.0,0.0,0.0,0.0,0.0,0.0,0.0,0.0,0.0,0.0,-1.3012,-1.2595,-1.2338,-1.2829,-1.3022,-1.3375,-1.4086,-1.4595,-1.5268,-1.632,-1.7505,-1.8407,-1.9003,-1.9686,-2.0571,-2.1582,-2.2237,-2.3035,-2.3927,-2.4632,-2.4974,-2.4974,-2.5233,-2.5577,-2.6013,-2.6697,0.0,-2.7621,-2.8247,-2.8834,-2.9247,-2.9247,-2.9333,-2.9471,-2.9471,-2.9299,-2.9013,-2.9127,-2.8824,-2.8387,-2.8962,-2.8806,-2.8259,-2.7925,-2.7805,-2.769,-2.7017,-2.6828,-2.6828,-2.6828,-2.6429,0.0,-2.5368,-2.3467,-2.0874,-1.7601,-1.3997,-1.016,-0.5989,-0.2967,-0.113,-0.1472,-0.4586,-0.8391,-1.2181,-1.6911,-2.1135,-2.3738,-2.2888,-2.2002,-2.2552,-2.172,-2.064,-1.9526,-1.7487,-1.521,-1.2752,-1.1463,-1.0261,-0.891,-0.8646,-0.8593,-0.8593,-0.8429,-0.8274,-0.8147,-0.8889,-0.9299,-0.9287,-1.0273,-1.0736,-1.0606,-1.1507,-1.1916,-1.1897,-1.1431,-1.0791,0.0,0.0,0.0,0.0,0.0,0.0,0.0,0.0,0.0,0.0,0.0,-1.2425,-1.3378,0.0,-1.3178,-1.364,-1.3297,-1.2987,-1.29,-1.2881,-1.3104,-1.3732,-1.405,-1.4842,-1.6266,-1.688,-1.7834,-1.937,-1.9646,-2.0295,-2.1524,-2.1941,-2.2527,-2.3402,-2.3746,-2.4239,-2.4874,-2.5473,-2.6044,-2.6649,-2.7595,-2.8294,-2.8699,-2.8932,-2.954,-3.0477,-3.0058,-3.016,-3.0699,-3.0486,-3.0265,-3.0129,-3.0302,-2.9674,-2.8733,-2.9092,-2.9007,-2.8577,-2.7948,-2.7721,-2.7558,-2.667,-2.6377,-2.6377,-2.6377,-2.5937,-2.5274,-2.5031,-2.3279,-2.0967,-1.8749,-1.5395,-1.1838,-0.8471,-0.5777,-0.4001,-0.448,-0.7283,-1.0805,-1.449,-1.8835,-2.2662,-2.5033,-2.5153,-2.4734,-2.4144,-2.3294,-2.2077,-2.0162,-1.8084,-1.586,-1.3465,-1.176,-1.0415,-0.9361,-0.9008,-0.8804,-0.8804,-0.8804,-0.8744,-0.8597,-0.903,-0.9541,-1.0111,-1.0697,-1.1291,-1.1836,-1.23,-1.2559,-1.2549,-1.1978,-1.1259,0.0,0.0,0.0,0.0,0.0,0.0,0.0,-0.8501,-1.0222,-1.1158,-1.2262,-1.3389,-1.4516,-1.4401,-1.4132,-1.4048,-1.3804,-1.3467,-1.2978,-1.2881,-1.3055,-1.3552,-1.3805,-1.4504,-1.6031,-1.6268,-1.7213,-1.9389,-1.937,-1.9851,-2.1046,-2.1253,-2.1602,-2.2314,-2.2672,-2.3371,-2.4431,-2.5722,-2.6652,-2.7294,-2.8495,-2.9289,-2.9696,-2.9587,-3.0266,-3.1449,-3.0762,-3.0996,-3.188,-3.1487,-3.1329,-3.1329,-3.1329,-3.0561,-2.9414,-2.9414,-2.933,-2.91,-2.82,-2.7795,-2.754,-2.6505,-2.6068,-2.5941,-2.5845,-2.5277,-2.4654,-2.4505,-2.3132,-2.1394,-1.9932,-1.7135,-1.399,-1.13,-0.9048,-0.7648,-0.8122,-1.0611,-1.3734,-1.726,-2.094,-2.4087,-2.6192,-2.7134,-2.7087,-2.5529,-2.4636,-2.3264,-2.0715,-1.8601,-1.6435,-1.4078,-1.2159,-1.0661,-0.9865,-0.9159,-0.8804,-0.8804,-0.8804,-0.8804,-0.8804,-0.891,-0.9562,-1.0762,-1.0914,-1.1525,-1.2666,-1.2666,-1.2618,-1.2461,-1.1751,-1.1183,-0.4681,-0.5318,-0.6106,-0.669,-0.7104,-0.7805,0.0,-1.0548,-1.1619,-1.281,-1.4265,-1.5367,-1.5532,-1.5033,-1.4609,-1.4608,-1.3711,-1.2968,-1.2929,-1.2881,-1.2929,-1.2968,-1.3805,-1.4595,-1.5263,-1.6151,-1.707,-1.7824,-1.7861,-1.8209,-1.9008,-1.9608,-2.0281,-2.0979,-2.271,-2.3667,-2.3786,-2.5559,-2.6749,-2.7294,-2.8616,-2.9521,-3.0065,-3.1053,-3.1581,-3.1758,-3.1668,-3.1917,-3.2384,-3.1933,-3.175,-3.1821,-3.175,-3.1405,-3.0937,-3.0937,-3.0531,-2.9998,-2.9972,-2.9605,-2.9032,-2.8373,-2.7814,-2.7235,-2.6607,-2.5943,-2.5249,-2.4612,-2.3393,-2.202,-2.0706,-1.9065,-1.6863,-1.3286,-1.1661,-1.0763,-1.0065,-1.2675,-1.6071,-1.9264,-2.3033,-2.6241,-2.7851,-2.82,-2.7995,-2.7147,-2.5697,-2.4103,-2.244,-1.9333,-1.6569,-1.4602,-1.2772,-1.1166,-0.9917,-0.9159,-0.8804,-0.8804,-0.8804,-0.8804,-0.8804,-0.9361,-1.0064,-1.0762,-1.1366,-1.1765,-1.1922,-1.1922,-1.1625,-1.1023,-1.032,-1.032,-0.613,-0.7021,-0.78,-0.8089,-0.9055,-1.0088,-1.0641,-1.2225,-1.3668,-1.4199,-1.5288,-1.6086,-1.5721,-1.5401,-1.5005,-1.4283,-1.3962,-1.3569,-1.2959,-1.3096,-1.3154,-1.291,-1.3482,-1.4246,-1.5132,-1.5216,-1.5892,-1.7467,-1.7191,-1.7468,-1.8661,-1.8967,-1.9783,-2.1246,-2.2476,-2.3638,-2.4725,-2.6627,-2.7894,-2.8526,-2.9782,-3.0644,-3.1082,-3.1333,-3.1449,-3.147,-3.1696,-3.177,-3.1768,-3.1789,-3.1677,-3.1504,-3.1733,-3.1565,-3.119,-3.119,-3.1004,-3.0707,-3.0419,-2.9892,-2.9316,-2.8701,-2.8091,-2.7458,-2.6721,-2.5977,-2.5282,-2.4571,-2.3375,-2.2145,-2.1297,-2.0091,-1.8475,-1.6048,-1.4897,-1.4274,-1.3879,-1.6127,-1.8843,-2.0854,-2.3891,-2.6313,-2.7052,-2.7303,-2.7198,-2.6521,-2.5485,-2.4131,-2.2263,-1.9466,-1.665,-1.3997,-1.2814,-1.1662,-1.031,-0.9724,-0.9211,-0.8804,-0.8804,-0.8804,-0.8804,-0.9061,-0.951,-1.0218,-1.0517,-1.0813,-1.1216,-1.1216,-1.1065,-1.0762,-1.0115,-0.9961,-0.7553,-0.8531,-0.9275,-0.9398,-1.0761,-1.208,-1.2006,-1.3659,-1.5211,-1.5393,-1.588,-1.6139,-1.5676,-1.5163,-1.4562,-1.3663,-1.354,-1.327,-1.257,-1.2846,-1.3084,-1.2779,-1.3113,-1.3739,-1.4779,-1.455,-1.5039,-1.6847,-1.6472,-1.692,-1.855,-1.867,-1.9546,-2.1523,-2.2607,-2.3867,-2.5194,-2.7535,-2.891,-2.9406,-3.0601,-3.1351,-3.1623,-3.1312,-3.1252,-3.1389,-3.166,-3.1696,-3.1582,-3.2004,-3.1933,-3.16,-3.1861,-3.1677,-3.119,-3.119,-3.119,-3.1151,-3.0699,-3.0021,-2.9316,-2.8873,-2.8222,-2.7408,-2.6496,-2.5837,-2.5175,-2.4221,-2.3249,-2.241,-2.1857,-2.107,-1.9885,-1.8191,-1.7523,-1.711,-1.6543,-1.8474,-2.0576,-2.1558,-2.374,-2.5541,-2.5729,-2.5866,-2.5714,-2.5125,-2.4241,-2.3107,-2.1787,-1.9111,-1.6343,-1.3657,-1.277,-1.1952,-1.0981,-1.0225,-0.9528,-0.8931,-0.8925,-0.8891,-0.8811,-0.8804,-0.9106,-0.9762,-0.9814,-1.0064,-1.0517,-1.0517,-1.0415,-1.0269,-0.9762,-0.951,-0.8679,-0.9482,-1.0205,-1.0714,-1.1956,-1.3233,-1.3849,-1.4847,-1.5752,-1.6312,-1.5996,-1.5632,-1.5588,-1.4125,-1.286,-1.2822,-1.2028,-1.1358,-1.135,-1.1904,-1.2341,-1.2332,-1.2676,-1.3223,-1.4053,-1.4512,-1.4941,-1.5429,-1.5468,-1.6335,-1.8407,-1.8487,-1.9455,-2.1443,-2.3406,-2.4457,-2.4498,-2.7731,-2.939,-2.9406,-3.0601,-3.119,-3.123,-3.119,-3.1411,-3.1789,-3.1771,-3.2057,-3.2484,-3.2983,-3.2872,-3.2451,-3.2484,-3.195,-3.119,-3.119,-3.119,-3.119,-3.119,-3.0377,-2.9406,-2.9361,-2.8591,-2.7342,-2.5892,-2.5398,-2.5063,-2.359,-2.3125,-2.2927,-2.2422,-2.2272,-2.1568,-1.9057,-1.8997,-1.8958,-1.6917,-1.8577,-2.062,-2.0964,-2.2638,-2.4069,-2.4409,-2.42,-2.3798,-2.3269,-2.1735,-2.0818,-2.1332,-1.8229,-1.5496,-1.4223,-1.2777,-1.1878,-1.1878,-1.0543,-0.9532,-0.919,-0.917,-0.9044,-0.8818,-0.8804,-0.9106,-0.9762,-0.9814,-0.9814,-0.9814,-0.9814,-0.951,-0.8857,-0.8857,-0.8804,-0.9618,-1.0596,-1.1554,-1.1743,-1.2645,-1.363,-1.3871,-1.4484,-1.5062,-1.5242,-1.5152,-1.4721,-1.3903,-1.3243,-1.2522,-1.1598,-1.2061,-1.2413,-1.2105,-1.3166,-1.3755,-1.3152,-1.3468,-1.3818,-1.4048,-1.4666,-1.5386,-1.6089,-1.6937,-1.7977,-1.9177,-1.9573,-2.0457,-2.1951,-2.3661,-2.4706,-2.508,-2.7534,-2.8996,-2.9406,-3.0601,-3.119,-3.119,-3.119,-3.1562,-3.211,-3.1615,-3.1949,-3.2808,-3.2424,-3.2196,-3.2039,-3.2039,-3.1677,-3.119,-3.119,-3.119,-3.119,-3.119,-3.0435,-2.9406,-2.9406,-2.8258,-2.6707,-2.5728,-2.5063,-2.4452,-2.3424,-2.3078,-2.2952,-2.2447,-2.1876,-2.1139,-1.9912,-1.9391,-1.8926,-1.8232,-1.9136,-2.0054,-1.9853,-2.069,-2.1527,-2.1826,-2.1766,-2.1514,-2.0906,-2.0351,-1.952,-1.8325,-1.7093,-1.5731,-1.4344,-1.3459,-1.2609,-1.1565,-1.0805,-1.0143,-0.9539,-0.9532,-0.9486,-0.9392,-0.9198,-0.92,-0.9404,-0.921,-0.9159,-0.9159,-0.9159,-0.9008,-0.8811,-0.9005,-0.9044,-1.0677,-1.1519,-1.2219,-1.2422,-1.3111,-1.3815,-1.3815,-1.4283,-1.4698,-1.4698,-1.4222,-1.3687,-1.3233,-1.231,-1.1478,-1.119,-1.1805,-1.2333,-1.2307,-1.3497,-1.4285,-1.3941,-1.4245,-1.4649,-1.5077,-1.5803,-1.6286,-1.6486,-1.7717,-1.8931,-1.9853,-2.0616,-2.1683,-2.2981,-2.4463,-2.5416,-2.5783,-2.7585,-2.8919,-2.9717,-3.074,-3.119,-3.119,-3.119,-3.1596,-3.2297,-3.2162,-3.2596,-3.3349,-3.2897,-3.2546,-3.2223,-3.1893,-3.1565,-3.119,-3.119,-3.1055,-3.0918,-3.1112,-3.0435,-2.9406,-2.9406,-2.8097,-2.6336,-2.5618,-2.4908,-2.4118,-2.3305,-2.3078,-2.293,-2.233,-2.1741,-2.1042,-1.9904,-1.9418,-1.9011,-1.824,-1.8888,-1.9355,-1.8792,-1.9109,-1.9576,-1.9766,-1.9658,-1.9327,-1.8643,-1.8549,-1.8078,-1.6708,-1.6016,-1.5323,-1.4323,-1.344,-1.2586,-1.1571,-1.0974,-1.0408,-0.9899,-0.984,-0.9793,-0.9686,-0.9499,-0.9223,-0.8928,-0.9046,-0.8948,-0.8661,-0.8661,-0.8661,-0.8667,-0.8845,-0.8928,-1.1674,-1.22,-1.2363,-1.2783,-1.3334,-1.3732,-1.3732,-1.4179,-1.4573,-1.4527,-1.3282,-1.2503,-1.3377,-1.1261,-0.9911,-1.1428,-1.1247,-1.1125,-1.1839,-1.2924,-1.3921,-1.4632,-1.5075,-1.5773,-1.6852,-1.7728,-1.7804,-1.6807,-1.7932,-1.916,-2.0435,-2.1716,-2.3007,-2.4266,-2.5728,-2.651,-2.651,-2.7815,-2.9104,-3.0258,-3.0888,-3.1219,-3.1252,-3.1309,-3.1698,-3.2456,-3.3315,-3.3862,-3.4146,-3.428,-3.3825,-3.2986,-3.2204,-3.1631,-3.1202,-3.1241,-3.0831,-3.0335,-3.0918,-3.0335,-2.9361,-2.93,-2.8,-2.6283,-2.5563,-2.4851,-2.406,-2.3305,-2.3078,-2.2884,-2.2125,-2.1815,-2.1237,-1.9115,-1.9124,-1.9068,-1.7183,-1.7864,-1.8627,-1.7894,-1.8046,-1.8291,-1.8269,-1.7935,-1.739,-1.6595,-1.6492,-1.6492,-1.6436,-1.5148,-1.4213,-1.4145,-1.2749,-1.1772,-1.1772,-1.1045,-1.0441,-1.016,-1.014,-1.0013,-0.974,-0.9713,-0.9343,-0.8493,-0.9266,-0.9318,-0.8475,-0.8416,-0.8416,-0.8416,-0.8428,-0.8375,-1.1974,-1.2471,-1.2744,-1.2852,-1.3017,-1.3152,-1.3152,-1.2987,-1.2725,-1.2324,-1.1664,-1.0949,-1.0267,-0.9731,-0.9555,-0.9927,-1.0516,-1.1351,-1.263,-1.3504,-1.4243,-1.4739,-1.6002,-1.6818,-1.6806,-1.8619,-1.9705,-1.9436,-2.0205,-2.1043,-2.177,-2.3052,-2.3935,-2.4292,-2.5728,-2.651,-2.651,-2.7815,-2.8903,-2.9722,-3.0805,-3.1613,-3.21,-3.2606,-3.3237,-3.3939,-3.3612,-3.4026,-3.4846,-3.4007,-3.3697,-3.3775,-3.3191,-3.2319,-3.1399,-3.1864,-3.1024,-2.9717,-3.0293,-2.9717,-2.8638,-2.8066,-2.6916,-2.5563,-2.4794,-2.4047,-2.3365,-2.3138,-2.2689,-2.2137,-2.1939,-2.091,-1.9846,-1.9283,-1.8736,-1.8318,-1.7772,-1.7932,-1.8087,-1.7591,-1.7698,-1.7811,-1.7531,-1.7824,-1.7731,-1.6648,-1.6492,-1.6322,-1.5748,-1.4805,-1.3965,-1.3373,-1.2381,-1.1593,-1.0989,-1.0744,-1.0591,-1.0454,-1.0448,-1.0414,-1.0341,-1.012,-0.988,-0.9693,-0.9669,-0.9563,-0.9382,-0.8715,-0.8416,-0.8416,-0.8609,-0.8332,-1.175,-1.2223,-1.2501,-1.2822,-1.2881,-1.2774,-1.232,-1.2044,-1.1584,-1.075,-1.0321,-0.9943,-0.9346,-0.9159,-0.9255,-0.9818,-1.0789,-1.1807,-1.2913,-1.4061,-1.5031,-1.5746,-1.7032,-1.8005,-1.8215,-1.9826,-2.099,-2.1235,-2.1617,-2.2141,-2.2776,-2.4063,-2.4951,-2.5231,-2.6375,-2.7129,-2.7422,-2.8708,-2.9546,-2.9968,-3.1237,-3.2027,-3.2422,-3.3074,-3.3795,-3.4515,-3.4328,-3.4651,-3.5326,-3.4531,-3.4082,-3.3761,-3.3175,-3.2287,-3.1364,-3.145,-3.0598,-2.9345,-2.91,-2.8418,-2.76,-2.7425,-2.6289,-2.4851,-2.4452,-2.3721,-2.3078,-2.3078,-2.2506,-2.1815,-2.1428,-2.0333,-1.9177,-1.8854,-1.8327,-1.8008,-1.8008,-1.8008,-1.7881,-1.7461,-1.7556,-1.7417,-1.6829,-1.7054,-1.7005,-1.6155,-1.6036,-1.5864,-1.5468,-1.4392,-1.3485,-1.307,-1.1965,-1.1108,-1.0624,-1.0624,-1.0624,-1.0624,-1.0624,-1.0624,-1.0624,-1.0401,-1.0122,-0.9743,-0.9591,-0.9327,-0.8949,-0.8075,-0.7639,-0.7644,-0.7829,-0.7638,-1.1271,-1.1715,-1.1972,-1.2608,-1.2764,-1.2503,-1.162,-1.1296,-1.0867,-0.9658,-0.9232,-0.9164,-0.9412,-0.8931,-0.8914,-1.0275,-1.115,-1.1977,-1.2959,-1.4185,-1.5557,-1.6884,-1.7988,-1.9034,-2.0041,-2.1121,-2.1907,-2.2385,-2.2422,-2.2745,-2.35,-2.4708,-2.5783,-2.6616,-2.7343,-2.7993,-2.8592,-2.977,-3.0449,-3.0526,-3.1694,-3.239,-3.2564,-3.3272,-3.3946,-3.4684,-3.516,-3.5394,-3.5448,-3.5274,-3.4539,-3.3463,-3.281,-3.2076,-3.1287,-3.0762,-3.0003,-2.9107,-2.7838,-2.6946,-2.6428,-2.6865,-2.5753,-2.4292,-2.4176,-2.3649,-2.3078,-2.2944,-2.2372,-2.1553,-2.0655,-1.9759,-1.8911,-1.8212,-1.8008,-1.8008,-1.8008,-1.8008,-1.79,-1.7539,-1.7471,-1.7207,-1.6439,-1.6253,-1.6006,-1.5566,-1.5449,-1.541,-1.541,-1.4025,-1.3009,-1.3009,-1.1545,-1.0624,-1.0624,-1.0624,-1.0624,-1.0624,-1.0624,-1.0624,-1.0624,-1.0624,-1.0238,-0.9466,-0.9338,-0.8947,-0.8156,-0.7177,-0.6719,-0.6719,-0.6719,-0.6654,-1.0897,-1.1366,-1.1814,-1.1972,-1.1972,-1.1871,-1.1469,-1.0777,-0.9924,-0.9022,-0.8334,-0.7986,-0.8256,-0.7758,-0.7845,-0.9596,-0.9585,-1.0241,-1.2779,-1.309,-1.3879,-1.6017,-1.7986,-1.9369,-1.9916,-2.1705,-2.2887,-2.2927,-2.2927,-2.3331,-2.4076,-2.4953,-2.6,-2.7357,-2.8077,-2.8472,-2.8607,-2.9342,-2.9982,-3.0493,-3.1325,-3.2333,-3.3432,-3.407,-3.4735,-3.5419,-3.5508,-3.5256,-3.4783,-3.4728,-3.4282,-3.3542,-3.343,-3.2663,-3.1542,-3.1373,-3.0203,-2.8601,-2.7685,-2.662,-2.5508,-2.498,-2.461,-2.4176,-2.3543,-2.3185,-2.2944,-2.2322,-2.1491,-2.0655,-1.9759,-1.8844,-1.8202,-1.8008,-1.8008,-1.8008,-1.8008,-1.8008,-1.7988,-1.791,-1.79,-1.7744,-1.7236,-1.6855,-1.6465,-1.6016,-1.5644,-1.541,-1.541,-1.4025,-1.3009,-1.3009,-1.1545,-1.0624,-1.0624,-1.0624,-1.0624,-1.0624,-1.0624,-1.0624,-1.0624,-1.0624,-1.0561,-1.0364,-0.9658,-0.921,-0.9075,-0.7502,-0.6719,-0.6719,-0.6719,-0.6334,-1.061,-1.0762,-1.0864,-1.1216,-1.1266,-1.1019,-1.0119,-0.9672,-0.9106,-0.7743,-0.7701,-0.7852,-0.7586,-0.7662,-0.8162,-0.93,-0.9731,-1.0669,-1.2806,-1.3486,-1.4415,-1.6218,-1.7737,-1.9061,-2.0165,-2.1587,-2.2641,-2.3078,-2.3078,-2.3424,-2.4234,-2.5007,-2.5892,-2.6982,-2.7988,-2.868,-2.9116,-3.0103,-3.0746,-3.1046,-3.1781,-3.2476,-3.3093,-3.3786,-3.4235,-3.456,-3.456,-3.4399,-3.4087,-3.4087,-3.3684,-3.3093,-3.3093,-3.2457,-3.1433,-3.1109,-2.9907,-2.8323,-2.7283,-2.6007,-2.461,-2.3433,-2.3339,-2.359,-2.3185,-2.3078,-2.2944,-2.2137,-2.129,-2.0322,-1.8905,-1.793,-1.7139,-1.6655,-1.6932,-1.7148,-1.6655,-1.7295,-1.7862,-1.7354,-1.7647,-1.7881,-1.7461,-1.7207,-1.6924,-1.6475,-1.6035,-1.5623,-1.5194,-1.4022,-1.3153,-1.3025,-1.1545,-1.0624,-1.0624,-1.0624,-1.0624,-1.0624,-1.0624,-1.0624,-1.0624,-1.0624,-1.0624,-1.0624,-0.9326,-0.8619,-0.8619,-0.6854,-0.6009,-0.6009,-0.6009,-0.5818,-1.0064,-1.0115,-0.9917,-1.0466,-1.0568,-1.0236,-0.8933,-0.8767,-0.8463,-0.6873,-0.7307,-0.784,-0.7446,-0.7903,-0.8558,-0.9318,-1.0163,-1.1226,-1.2779,-1.381,-1.4955,-1.6373,-1.7389,-1.8655,-2.0437,-2.1365,-2.2261,-2.3017,-2.3078,-2.3424,-2.4234,-2.5007,-2.5743,-2.6429,-2.754,-2.8595,-2.9555,-3.0698,-3.1351,-3.1539,-3.2064,-3.2437,-3.2641,-3.3145,-3.3479,-3.3582,-3.3582,-3.3547,-3.3391,-3.3391,-3.2986,-3.2382,-3.2382,-3.1974,-3.1359,-3.0522,-2.9481,-2.8169,-2.6651,-2.5208,-2.3787,-2.2359,-2.2322,-2.2823,-2.2628,-2.2567,-2.2372,-2.1553,-2.0846,-1.9922,-1.8073,-1.7083,-1.6349,-1.5446,-1.579,-1.607,-1.5376,-1.6507,-1.7501,-1.6706,-1.7364,-1.791,-1.7578,-1.7441,-1.7266,-1.6924,-1.6297,-1.569,-1.506,-1.398,-1.3172,-1.2962,-1.1565,-1.0719,-1.0719,-1.0658,-1.0624,-1.0624,-1.0624,-1.0624,-1.0624,-1.0624,-1.0624,-1.0624,-0.8871,-0.8027,-0.8027,-0.6276,-0.5428,-0.5428,-0.5428,-0.5428,-0.8956,-0.9361,-0.9814,-0.9865,-0.9917,-0.9753,-0.9193,-0.8712,-0.8174,-0.7518,-0.7275,-0.7418,-0.8149,-0.7936,-0.8165,-0.9624,-0.9845,-1.0449,-1.2286,-1.295,-1.3989,-1.5906,-1.7257,-1.8655,-2.0437,-2.1365,-2.2261,-2.3017,-2.3078,-2.3424,-2.4234,-2.5007,-2.5646,-2.6199,-2.692,-2.7945,-2.929,-3.0042,-3.0777,-3.1482,-3.1582,-3.1951,-3.2586,-3.2641,-3.3039,-3.3582,-3.3582,-3.3235,-3.2695,-3.2695,-3.2272,-3.1582,-3.1582,-3.1552,-3.1287,-2.9901,-2.8973,-2.811,-2.595,-2.43,-2.2952,-2.2163,-2.1939,-2.1877,-2.1037,-2.0846,-2.0655,-1.9748,-1.9497,-1.9023,-1.7179,-1.6627,-1.6349,-1.5446,-1.5234,-1.5305,-1.5234,-1.6009,-1.6706,-1.6636,-1.7364,-1.7998,-1.7959,-1.7637,-1.7373,-1.7334,-1.6206,-1.5331,-1.5267,-1.3777,-1.2721,-1.2758,-1.1699,-1.0955,-1.0955,-1.0715,-1.0624,-1.0624,-1.0624,-1.0624,-1.0624,-1.0624,-1.0624,-1.0624,-0.8871,-0.8027,-0.8027,-0.6276,-0.5428,-0.5428,-0.5428,-0.5428,-0.9259,-0.9309,-0.9211,-0.9211,-0.9078,-0.8736,-0.8012,-0.7919,-0.7775,-0.7063,-0.7215,-0.7557,-0.7919,-0.7981,-0.8244,-0.908,-0.9375,-0.9981,-1.1394,-1.2057,-1.3212,-1.5228,-1.6789,-1.8394,-2.0403,-2.1365,-2.2261,-2.3017,-2.2641,-2.2898,-2.4055,-2.4066,-2.4484,-2.5539,-2.6176,-2.7195,-2.8517,-2.9697,-3.045,-3.0777,-3.1278,-3.164,-3.1951,-3.1951,-3.2104,-3.2367,-3.2367,-3.2201,-3.1951,-3.1951,-3.1739,-3.1482,-3.1482,-3.1219,-3.0689,-3.0115,-2.8344,-2.6081,-2.5221,-2.3443,-2.1432,-2.0579,-2.0333,-2.0398,-2.0526,-2.059,-2.0398,-1.9562,-1.9299,-1.8747,-1.6341,-1.4863,-1.3939,-1.352,-1.3882,-1.4171,-1.3593,-1.4657,-1.5579,-1.4942,-1.6079,-1.7139,-1.7139,-1.7513,-1.7764,-1.7764,-1.7053,-1.6169,-1.5074,-1.4269,-1.3401,-1.2318,-1.1635,-1.1249,-1.1249,-1.0982,-1.0822,-1.0822,-1.0719,-1.0624,-1.0624,-1.0624,-1.0364,-0.9849,-0.8613,-0.7762,-0.7242,-0.6013,-0.5428,-0.5428,-0.5428,-0.541,-0.9191,-0.9089,-0.8804,-0.8804,-0.8591,-0.8234,-0.753,-0.7601,-0.7605,-0.7001,-0.7324,-0.7734,-0.787,-0.8182,-0.861,-0.9161,-0.9477,-1.0026,-1.0925,-1.1669,-1.28,-1.4548,-1.6194,-1.804,-2.0268,-2.1564,-2.2384,-2.2689,-2.2332,-2.2396,-2.3098,-2.3156,-2.3791,-2.5221,-2.5686,-2.6598,-2.7931,-2.8983,-2.9628,-2.995,-3.0777,-3.1161,-3.1161,-3.1409,-3.1482,-3.1482,-3.1482,-3.1482,-3.1482,-3.1482,-3.1351,-3.1161,-3.1161,-3.0644,-2.9875,-2.9338,-2.726,-2.4696,-2.4168,-2.2339,-2.0139,-1.9814,-1.9375,-1.911,-1.9944,-2.0009,-1.9683,-1.911,-1.8489,-1.7648,-1.572,-1.3738,-1.2305,-1.2305,-1.2806,-1.3098,-1.2445,-1.3593,-1.4522,-1.3818,-1.5296,-1.6636,-1.6636,-1.7364,-1.8008,-1.8008,-1.7543,-1.6585,-1.5051,-1.4506,-1.3668,-1.2206,-1.181,-1.165,-1.1563,-1.1289,-1.1082,-1.1002,-1.0802,-1.0648,-1.0624,-1.0624,-1.0174,-0.9338,-0.842,-0.7567,-0.6719,-0.5815,-0.5428,-0.5428,-0.5428,-0.5443,-0.8297,-0.8591,-0.8804,-0.8804,-0.8591,-0.838,-0.8307,-0.8047,-0.7788,-0.7715,-0.7695,-0.7832,-0.8322,-0.8721,-0.9277,-1.0137,-1.0433,-1.0741,-1.1136,-1.1941,-1.2887,-1.3898,-1.5512,-1.747,-1.997,-2.193,-2.2763,-2.1939,-2.2277,-2.2097,-2.1241,-2.2506,-2.3984,-2.5561,-2.5586,-2.6304,-2.7723,-2.7723,-2.8182,-2.9002,-2.9889,-3.0329,-3.0329,-3.1161,-3.1482,-3.1482,-3.1482,-3.1482,-3.1482,-3.1482,-3.1029,-3.0329,-3.0329,-2.9766,-2.8798,-2.702,-2.5706,-2.4555,-2.2682,-2.0871,-1.9431,-2.0333,-1.9431,-1.8212,-1.9044,-1.8721,-1.8008,-1.8008,-1.6655,-1.5234,-1.5234,-1.3738,-1.2305,-1.2305,-1.2305,-1.2298,-1.2305,-1.3025,-1.3745,-1.3673,-1.5296,-1.6636,-1.6636,-1.7364,-1.8008,-1.8008,-1.7207,-1.628,-1.5296,-1.4307,-1.3382,-1.2365,-1.2291,-1.2178,-1.1891,-1.159,-1.1296,-1.1009,-1.0989,-1.0862,-1.0631,-1.0624,-1.0174,-0.9338,-0.842,-0.7567,-0.6719,-0.5815,-0.5428,-0.5428,-0.5428,-0.5443,-0.6649,-0.683,-0.6943,-0.713,-0.7108,-0.7093,-0.7238,-0.7568,-0.7844,-0.7711,-0.7908,-0.816,-0.8304,-0.8409,-0.8468,-0.8566,-0.8823,-0.9103,-0.9253,-1.0555,-1.1991,-1.3425,-1.694,-1.9834,-2.1221,-2.1933,-2.2187,-2.1939,-2.1169,-2.105,-2.1721,-2.1934,-2.2829,-2.4562,-2.5252,-2.5996,-2.6837,-2.7417,-2.7868,-2.8117,-2.9002,-2.969,-3.0329,-3.0584,-3.097,-3.1482,-3.1482,-3.1482,-3.1467,-3.0896,-3.0524,-3.0269,-2.9628,-2.8502,-2.7048,-2.6184,-2.4237,-2.1957,-2.1043,-1.9677,-1.8529,-1.9431,-1.8911,-1.8269,-1.9748,-1.9166,-1.8008,-1.8008,-1.6655,-1.5234,-1.5234,-1.3738,-1.2305,-1.2305,-1.2305,-1.2077,-1.1391,-1.2063,-1.2505,-1.1822,-1.3845,-1.5658,-1.5658,-1.6941,-1.8008,-1.8008,-1.7725,-1.701,-1.5376,-1.495,-1.4091,-1.2445,-1.2305,-1.2265,-1.2171,-1.1897,-1.169,-1.1597,-1.1403,-1.1249,-1.1156,-1.0466,-0.9711,-0.8832,-0.7793,-0.6844,-0.6073,-0.57,-0.5566,-0.5664,-0.5769,-0.5844,-0.5529,-0.5814,-0.598,-0.63,-0.6427,-0.6593,-0.7113,-0.7706,-0.8145,-0.8135,-0.8417,-0.865,-0.8529,-0.8432,-0.8335,-0.8215,-0.8315,-0.8456,-0.8532,-1.0081,-1.2042,-1.4308,-1.8052,-2.073,-2.1483,-2.1758,-2.1753,-2.1428,-2.0619,-2.0428,-2.0924,-2.1406,-2.2196,-2.3353,-2.4644,-2.5517,-2.5943,-2.6824,-2.7229,-2.7297,-2.8117,-2.8812,-2.9317,-2.9628,-3.0072,-3.0584,-3.0584,-3.0584,0.0,-3.0011,-2.9628,-2.9254,-2.8748,-2.7328,-2.5475,-2.4847,-2.2857,-2.0519,-2.0154,-1.9359,-1.8721,-1.9879,-1.9694,-1.911,-1.9879,-1.9365,-1.8462,-1.8462,-1.7189,-1.5658,-1.5305,-1.4019,-1.2732,-1.2372,-1.1996,-1.1545,-1.0932,-1.1316,-1.1545,-1.0938,-1.3194,-1.5234,-1.5234,-1.6733,-1.8008,-1.8008,-1.8008,-1.7295,-1.5446,-1.5234,-1.445,-1.2519,-1.2305,-1.2305,-1.2305,-1.2138,-1.1984,-1.1877,-1.1697,-1.1543,-1.143,-1.0441,-0.9458,-0.8624,-0.7521,-0.6616,-0.58,-0.5711,-0.5715,-0.5803,-0.5959,-0.603,0.0,-0.5317,-0.5614,-0.6109,-0.6365,-0.6751,-0.7677,-0.8303,0.0,-0.8867,-0.9123,-0.9248,-0.9051,-0.8803,-0.866,-0.8769,-0.8704,-0.8623,-0.862,-1.0375,-1.2851,-1.6069,-1.8608,-2.0346,-2.0828,-2.1396,-2.1365,-2.059,-2.046,-2.0155,-1.936,-2.09,-2.1803,-2.1834,-2.3761,-2.4826,-2.5004,-2.6025,-2.6533,-2.6533,-2.7297,-2.767,-2.7736,-2.8556,-2.8939,-2.9002,-2.9002,-2.9002,-2.8989,-2.8898,-2.84,-2.767,-2.7485,-2.6135,-2.4151,-2.3117,-2.1614,-2.0091,-1.9949,-1.9655,-1.9628,-2.1239,-2.1239,-2.0462,-1.9628,-1.9365,-1.9299,-1.9299,-1.8065,-1.6489,-1.5446,-1.445,-1.3455,-1.2445,-1.1465,-1.0783,-1.0634,-1.0708,-1.0783,-1.0708,-1.3121,-1.5234,-1.5234,-1.6733,-1.8008,-1.8008,-1.8008,-1.7295,-1.5446,-1.5234,-1.445,-1.2519,-1.2305,-1.2305,-1.2305,-1.2305,-1.2184,-1.1917,-1.1904,-1.1777,-1.1358,-1.0357,-0.9443,-0.8533,-0.7544,-0.6614,-0.5817,-0.5827,-0.5833,-0.5837,-0.5979,-0.6047,-0.3197,0.0,-0.3701,-0.4413,-0.5197,-0.6149,0.0,-0.8567,-0.9534,-0.9892,-0.9612,-0.9489,-1.0076,-0.8848,-0.7891,-0.8484,-0.8311,-0.8076,-0.7947,-1.0852,-1.3639,-1.5498,-1.8006,-1.9587,-1.9695,-1.9814,-1.9824,-1.9628,-1.9287,-1.914,-1.9268,-1.9683,-2.0088,-2.0416,-2.1587,-2.3145,-2.5004,-2.6025,-2.6533,-2.6533,-2.6714,-2.7095,-2.7736,-2.792,-2.8363,-2.9002,-2.9002,-2.9002,-2.8898,-2.7826,-2.7522,-2.7485,-2.571,-2.4471,-2.3462,-2.1882,-2.0917,-2.0411,-1.9697,-1.9845,-2.0268,-2.0009,-2.0204,-2.059,-2.0333,-1.9814,-1.9299,-1.9299,-1.8449,-1.7192,-1.5641,-1.445,-1.3302,-1.1533,-1.0932,-1.0409,-0.8836,-0.9739,-1.0565,-0.982,-1.2677,-1.5234,-1.5234,-1.6733,-1.8008,-1.8008,-1.8008,-1.7295,-1.5446,-1.5234,-1.445,-1.2519,-1.2305,-1.2305,-1.2305,-1.2305,-1.2271,-1.2204,-1.2204,-1.1793,-1.0979,-0.995,-0.8986,-0.8023,-0.6976,-0.6317,-0.5976,-0.6095,-0.6152,-0.6152,-0.619,-0.6207,-0.2712,-0.2995,-0.3448,-0.4034,-0.5043,-0.6266,-0.7662,-0.8894,-0.9868,-1.0273,-1.0212,-1.0003,-0.9727,-0.885,-0.8125,-0.8114,-0.7836,-0.786,-0.8568,-1.1529,-1.4081,-1.5378,-1.774,-1.9299,-1.9299,-1.9299,-1.9299,-1.9299,-1.8863,-1.874,-1.8975,-1.918,-1.9394,-1.9619,-2.0627,-2.184,-2.3334,-2.4718,-2.5558,-2.5804,-2.5558,-2.5822,-2.6445,-2.5983,-2.6246,-2.7139,-2.7139,-2.7432,-2.7776,-2.7012,-2.6598,-2.6314,-2.4812,-2.3523,-2.2415,-2.1468,-2.0775,-2.0312,-2.0457,-2.1037,-2.1542,-2.0333,-2.0462,-2.1101,-2.0719,-2.0526,-2.0462,-2.0462,-1.9585,-1.8093,-1.6227,-1.5059,-1.3795,-1.1372,-1.0415,-0.9664,-0.8161,-0.8988,-0.9965,-0.9372,-1.2098,-1.4665,-1.5092,-1.6376,-1.752,-1.794,-1.8008,-1.7295,-1.5446,-1.5234,-1.445,-1.2519,-1.2305,-1.2305,-1.2305,-1.2305,-1.2305,-1.2305,-1.1848,-1.1391,-1.0783,-0.9367,-0.8161,-0.7099,-0.6567,-0.622,-0.6135,-0.622,-0.6338,-0.6338,-0.6338,-0.6338,-0.2869,-0.3481,-0.4106,-0.4433,-0.5555,-0.6967,-0.8438,-0.9543,-1.0328,-1.0647,-1.0886,-1.064,-0.9319,-0.8976,-0.8667,-0.7903,-0.7573,-0.8037,-0.9684,-1.2165,-1.4204,-1.5227,-1.7593,-1.911,-1.911,-1.911,-1.911,-1.911,-1.8734,-1.8574,-1.8633,-1.8926,-1.9121,-1.9189,-2.0022,-2.0625,-2.1001,-2.2933,-2.4119,-2.4543,-2.4189,-2.4201,-2.4555,-2.3822,-2.4002,-2.4885,-2.4885,-2.546,-2.6382,-2.6219,-2.5566,-2.4719,-2.4163,-2.299,-2.1613,-2.1358,-2.0893,-2.0604,-2.1689,-2.2445,-2.2689,-2.1227,-2.1101,-2.1365,-2.0782,-2.1037,-2.1553,-2.1678,-2.0655,-1.8992,-1.693,-1.5808,-1.4434,-1.1514,-1.0045,-0.8993,-0.8008,-0.8466,-0.9145,-0.9296,-1.1594,-1.3875,-1.5021,-1.5956,-1.695,-1.7872,-1.8008,-1.7295,-1.5446,-1.5234,-1.445,-1.2519,-1.2305,-1.2305,-1.2305,-1.2305,-1.2224,-1.2077,-1.1236,-1.0634,-1.0335,-0.8533,-0.7176,-0.6338,-0.6338,-0.6338,-0.6338,-0.6338,-0.6338,-0.6338,-0.6338,-0.6338,-0.3634,-0.451,-0.5054,-0.5092,-0.6507,-0.8252,-0.9637,-1.1123,-1.2225,-1.2184,-1.1723,-1.132,-1.1248,-0.9765,-0.8551,-0.8559,-0.8287,-0.8606,-1.0226,-1.2429,-1.4042,-1.4723,-1.685,-1.8202,-1.8202,-1.8202,-1.8202,-1.8202,-1.8135,-1.8262,-1.8553,-1.8369,-1.8369,-1.873,-1.8872,-1.8972,-1.9031,-2.1337,-2.256,-2.2639,-2.2922,-2.2899,-2.2662,-2.3205,-2.3856,-2.4372,-2.4339,-2.4832,-2.5661,-2.4757,-2.4103,-2.3593,-2.2674,-2.2416,-2.2517,-2.1182,-2.1592,-2.2819,-2.2898,-2.2567,-2.2063,-2.1753,-2.0782,-1.9824,-2.0398,-2.0204,-1.9814,-2.059,-2.059,-1.9771,-1.7126,-1.5808,-1.4434,-1.1514,-1.0045,-0.8993,-0.8008,-0.7936,-0.8313,-0.9145,-1.0989,-1.3041,-1.4871,-1.6009,-1.6932,-1.7862,-1.8008,-1.7295,-1.5446,-1.5234,-1.445,-1.2519,-1.2305,-1.2305,-1.2305,-1.2305,-1.1922,-1.1087,-1.0864,-1.0034,-0.8309,-0.7176,-0.649,-0.6338,-0.6338,-0.6338,-0.6338,-0.6338,-0.6338,-0.6338,-0.6338,-0.6338,-0.3395,-0.4593,-0.5679,-0.6417,-0.7636,-0.9082,-1.0505,-1.1673,-1.2577,-1.3037,-1.2657,-1.2083,-1.1705,-1.0446,-0.9182,-0.8532,-0.889,-0.9424,-0.9964,-1.2326,-1.422,-1.462,-1.6615,-1.8008,-1.8008,-1.8008,-1.8008,-1.8008,-1.8008,-1.8096,-1.8291,-1.8115,-1.8096,-1.8291,-1.8301,-1.8301,-1.8301,-1.9366,-2.0456,-2.1446,-2.1333,-2.1743,-2.2542,-2.2418,-2.2784,-2.356,-2.3514,-2.3629,-2.3744,-2.3753,-2.3287,-2.2638,-2.244,-2.2377,-2.2268,-2.1834,-2.2283,-2.3166,-2.3119,-2.2884,-2.2384,-2.1491,-2.0974,-2.059,-2.0074,-1.9944,-2.0074,-2.0462,-2.0268,-1.9454,-1.7707,-1.6227,-1.4577,-1.2164,-1.0404,-0.8993,-0.8008,-0.8237,-0.877,-0.9221,-1.0932,-1.2844,-1.4871,-1.5587,-1.6367,-1.7794,-1.7579,-1.6715,-1.5376,-1.4736,-1.3882,-1.2445,-1.2305,-1.2305,-1.2305,-1.2305,-1.1626,-1.0115,-0.9513,-0.8533,-0.7022,-0.6567,-0.6338,-0.6338,-0.6338,-0.6338,-0.6338,-0.6338,-0.6338,-0.6338,-0.6338,-0.6338,-0.3331,-0.4623,-0.5977,-0.7594,-0.8763,-0.9912,-1.148,-1.2313,-1.296,-1.3639,-1.3423,-1.2821,-1.185,-1.0894,-0.9834,-0.8738,-0.9421,-1.0076,-0.9974,-1.2291,-1.4113,-1.4417,-1.618,-1.7364,-1.7364,-1.751,-1.7647,-1.7647,-1.7862,-1.8008,-1.8008,-1.8008,-1.8008,-1.8008,-1.8008,-1.8008,-1.8008,-1.8008,-1.8744,-2.0159,-1.9761,-2.0365,-2.1734,-2.1176,-2.1434,-2.224,-2.224,-2.2098,-2.2083,-2.285,-2.2527,-2.1745,-2.2421,-2.2418,-2.2105,-2.2651,-2.2971,-2.3078,-2.3078,-2.3078,-2.2884,-2.1353,-2.1239,-2.1302,-1.9759,-1.9628,-2.0009,-2.0009,-1.9497,-1.8824,-1.8073,-1.6582,-1.472,-1.2968,-1.1069,-0.9442,-0.8685,-0.8917,-0.9372,-0.9599,-1.087,-1.2645,-1.4799,-1.5021,-1.5517,-1.7364,-1.6862,-1.593,-1.495,-1.4171,-1.331,-1.2372,-1.2305,-1.2305,-1.2305,-1.1848,-1.095,-0.9372,-0.8389,-0.7326,-0.6338,-0.6338,-0.6338,-0.6338,-0.6338,-0.6338,-0.6338,-0.6338,-0.6338,-0.6338,-0.6338,-0.6338,-0.415,-0.5049,-0.5849,-0.8093,-0.97,-1.1169,-1.2733,-1.3824,-1.4413,-1.4048,-1.3907,-1.3447,-1.2113,-1.1023,-1.0141,-0.9657,-0.9854,-1.0345,-1.1175,-1.2272,-1.321,-1.3705,-1.472,-1.5376,-1.5376,-1.6219,-1.6706,-1.6706,-1.7501,-1.8008,-1.8008,-1.8008,-1.8008,-1.8008,-1.8008,-1.8008,-1.8008,-1.8008,-1.8037,-1.8242,-1.8527,-1.8596,-1.837,-1.9108,-1.9737,-2.0292,-2.0144,-2.0601,-2.1474,-2.187,-2.1469,-2.0801,-2.2075,-2.2456,-2.2557,-2.354,-2.3566,-2.3078,-2.3078,-2.3078,-2.2944,-2.2063,-2.1302,-2.0526,-1.9552,-1.8787,-1.8202,-1.8202,-1.8134,-1.8046,-1.7948,-1.6582,-1.495,-1.3882,-1.2111,-1.0634,-1.0634,-0.989,-0.9599,-1.049,-1.0783,-1.181,-1.472,-1.4458,-1.445,-1.6428,-1.593,-1.495,-1.3954,-1.3745,-1.331,-1.2372,-1.2305,-1.2305,-1.2305,-1.0571,-0.9448,-0.9296,-0.8389,-0.7326,-0.6338,-0.6338,-0.6338,-0.6338,-0.6338,-0.6338,-0.6338,-0.6338,-0.6338,-0.6338,-0.6338,-0.6338,-0.3423,-0.4846,-0.6142,-0.7532,-0.9529,-1.1531,-1.3006,-1.4301,-1.5384,-1.5985,-1.5688,-1.4708,-1.2624,-1.1676,-1.0971,-1.0386,-1.0375,-1.0635,-1.1329,-1.2233,-1.3089,-1.367,-1.4601,-1.5234,-1.5234,-1.5517,-1.5728,-1.5728,-1.6079,-1.6228,-1.6228,-1.6228,-1.6228,-1.6228,-1.6811,-1.7157,-1.7139,-1.7716,-1.8008,-1.8008,-1.8164,-1.8635,-1.9342,-1.9622,-1.9882,-2.0128,-2.0049,-1.9755,-1.9349,-2.002,-2.0398,-2.0741,-2.2267,-2.2862,-2.2936,-2.3329,-2.3326,-2.3078,-2.3078,-2.2763,-2.2187,-2.1365,-2.0526,-1.9628,-1.8787,-1.8269,-1.8008,-1.8008,-1.8008,-1.7998,-1.7959,-1.7042,-1.586,-1.4879,-1.3121,-1.1508,-1.0932,-1.049,-1.034,-1.0708,-1.1316,-1.2278,-1.3947,-1.3954,-1.4171,-1.5508,-1.4879,-1.4099,-1.3745,-1.3171,-1.2659,-1.2372,-1.1768,-1.1391,-1.1391,-1.0121,-0.9069,-0.8389,-0.7403,-0.6718,-0.6338,-0.6338,-0.6338,-0.6338,-0.6338,-0.6338,-0.6338,-0.6338,-0.6338,-0.6338,-0.6338,-0.6338,-0.2865,-0.4457,-0.6009,-0.7024,-0.9068,-1.1246,-1.286,-1.4418,-1.5765,-1.6616,-1.6203,-1.5174,-1.3361,-1.2329,-1.1543,-1.0985,-1.0709,-1.0762,-1.1343,-1.1962,-1.2608,-1.3165,-1.3882,-1.4307,-1.4307,-1.4522,-1.4736,-1.4736,-1.5021,-1.5234,-1.5234,-1.5234,-1.5234,-1.5234,-1.5807,-1.6306,-1.6636,-1.7217,-1.7725,-1.8008,-1.8008,-1.8486,-1.9442,-1.9442,-1.9442,-1.9442,-1.9442,-1.8869,-1.8076,-1.8911,-2.0009,-2.1101,-2.2249,-2.2884,-2.3078,-2.3078,-2.3078,-2.3078,-2.2823,-2.2384,-2.169,-2.059,-1.9814,-1.911,-1.8269,-1.8008,-1.8008,-1.8008,-1.8008,-1.8008,-1.8008,-1.7285,-1.6428,-1.579,-1.4339,-1.2961,-1.2311,-1.1957,-1.1749,-1.1749,-1.2063,-1.262,-1.366,-1.3521,-1.363,-1.4744,-1.4041,-1.3395,-1.3395,-1.2885,-1.2405,-1.2311,-1.1391,-1.0783,-1.0783,-0.9588,-0.8542,-0.7859,-0.6872,-0.6338,-0.6338,-0.6338,-0.6338,-0.6338,-0.6338,-0.6338,-0.6338,-0.6338,-0.6338,-0.6338,-0.6338,-0.6338,-0.2665,-0.3973,-0.5427,-0.6671,-0.845,-1.0429,-1.234,-1.4228,-1.5574,-1.5538,-1.5061,-1.4547,-1.428,-1.286,-1.1623,-1.1337,-1.0904,-1.0762,-1.1336,-1.1423,-1.1643,-1.2231,-1.2298,-1.2298,-1.2305,-1.3171,-1.3673,-1.3673,-1.4593,-1.5163,-1.5163,-1.5163,-1.5163,-1.5163,-1.5163,-1.5658,-1.6567,-1.6636,-1.707,-1.8008,-1.8008,-1.8008,-1.8008,-1.8008,-1.8008,-1.8008,-1.8008,-1.8008,-1.8076,-1.8911,-2.0333,-2.1877,-2.1877,-2.2384,-2.3078,-2.3078,-2.3078,-2.2944,-2.2199,-2.1877,-2.1616,-1.9879,-1.9299,-1.911,-1.8269,-1.8008,-1.8008,-1.8008,-1.8008,-1.8008,-1.8008,-1.7285,-1.6636,-1.6636,-1.5869,-1.5234,-1.5234,-1.4386,-1.3745,-1.3673,-1.2952,-1.2688,-1.3962,-1.3163,-1.2695,-1.3969,-1.3417,-1.2822,-1.2822,-1.2822,-1.2708,-1.2331,-1.1391,-1.0783,-1.0783,-0.8912,-0.7783,-0.7783,-0.6872,-0.6338,-0.6338,-0.6338,-0.6338,-0.6338,-0.6338,-0.6338,-0.6338,-0.6338,-0.6338,-0.6342,-0.6342,-0.6264,-0.2205,-0.3918,-0.5641,-0.6152,-0.8099,-1.0174,-1.1593,-1.4102,-1.648,-1.7529,-1.6962,-1.6099,-1.553,-1.3626,-1.2167,-1.2105,-1.1211,-1.0688,-1.1069,-1.1122,-1.1336,-1.1924,-1.1997,-1.2078,-1.2285,-1.2519,-1.2732,-1.2732,-1.3018,-1.3164,-1.3164,-1.3164,-1.3164,-1.3164,-1.381,-1.4593,-1.5587,-1.628,-1.707,-1.8008,-1.8008,-1.8008,-1.8008,-1.8008,-1.8008,-1.8008,-1.8008,-1.8008,-1.8076,-1.8911,-1.9944,-2.1037,-2.169,-2.2384,-2.3078,-2.3078,-2.2763,-2.2199,-2.2002,-2.1112,-2.002,-1.9497,-1.8921,-1.8337,-1.8076,-1.8008,-1.8008,-1.8008,-1.8008,-1.8008,-1.8008,-1.7794,-1.7432,-1.6775,-1.6358,-1.6,-1.5376,-1.495,-1.453,-1.3818,-1.3455,-1.3271,-1.3216,-1.2716,-1.2472,-1.3147,-1.2968,-1.2822,-1.2822,-1.2822,-1.2398,-1.1347,-1.041,-0.953,-0.8775,-0.7586,-0.6831,-0.6725,-0.649,-0.6338,-0.6338,-0.6338,-0.6338,-0.6338,-0.6338,-0.6338,-0.6338,-0.6338,-0.6312,-0.641,-0.641,-0.6468,-0.1909,-0.3719,-0.5505,-0.6018,-0.822,-1.0875,-1.3156,-1.5237,-1.7117,-1.8811,-1.7996,-1.6919,-1.6613,-1.4317,-1.2471,-1.2611,-1.1483,-1.0661,-1.0955,-1.0995,-1.1169,-1.1637,-1.1797,-1.1937,-1.2118,-1.2231,-1.2305,-1.2305,-1.2305,-1.2305,-1.2305,-1.2305,-1.2305,-1.2305,-1.2879,-1.36,-1.4593,-1.5579,-1.6498,-1.7432,-1.7794,-1.8008,-1.8008,-1.8008,-1.8008,-1.8008,-1.8008,-1.8008,-1.8008,-1.8596,-1.9299,-2.0139,-2.0655,-2.1365,-2.2125,-2.2125,-2.1803,-2.1365,-2.0974,-2.0204,-1.9233,-1.8921,-1.8462,-1.794,-1.7579,-1.7716,-1.794,-1.7569,-1.7716,-1.8008,-1.8008,-1.8008,-1.7862,-1.7285,-1.7139,-1.7001,-1.6437,-1.6009,-1.5438,-1.4522,-1.3954,-1.3484,-1.292,-1.2599,-1.2579,-1.2886,-1.3026,-1.31,-1.31,-1.2693,-1.2101,-1.1201,-0.9823,-0.8666,-0.8007,-0.7148,-0.6525,-0.6441,-0.638,-0.6346,-0.6346,-0.6291,-0.6338,-0.6338,-0.6338,-0.6338,-0.6338,-0.6318,-0.639,-0.6474,-0.6536,-0.6614,-0.1673,-0.3369,-0.5063,-0.6137,-0.8755,-1.2142,-1.6038,-1.6991,-1.7583,-1.9428,-1.8346,-1.7171,-1.7555,-1.4782,-1.257,-1.2959,-1.16,-1.0584,-1.0784,-1.0752,-1.0856,-1.107,-1.1407,-1.1591,-1.1644,-1.188,-1.2044,-1.215,-1.215,-1.2224,-1.2305,-1.2305,-1.2305,-1.2305,-1.2305,-1.2732,-1.3673,-1.4665,-1.5649,-1.6636,-1.7569,-1.8008,-1.8008,-1.8008,-1.8008,-1.8008,-1.8008,-1.8008,-1.8008,-1.8008,-1.8529,-1.9299,-1.9299,-1.9814,-2.059,-2.059,-2.0526,-2.0398,-1.9562,-1.9243,-1.9044,-1.8269,-1.8008,-1.7794,-1.6853,-1.7207,-1.7716,-1.6853,-1.7217,-1.7872,-1.8008,-1.8008,-1.8008,-1.8008,-1.8008,-1.8008,-1.8008,-1.7354,-1.6419,-1.5376,-1.445,-1.3631,-1.292,-1.2822,-1.2936,-1.32,-1.3474,-1.3559,-1.3559,-1.2624,-1.1764,-1.1427,-0.9481,-0.8185,-0.8086,-0.7202,-0.6715,-0.6702,-0.6569,-0.6485,-0.6471,-0.6335,-0.6338,-0.6338,-0.6338,-0.6338,-0.6338,-0.639,-0.6468,-0.6498,-0.6634,-0.6715,-0.1237,-0.2807,-0.4546,-0.6031,-0.913,-1.2617,-1.5541,-1.6883,-1.7932,-1.9451,-1.8578,-1.751,-1.7556,-1.5023,-1.2918,-1.2992,-1.1087,-0.9612,-0.9673,-0.9085,-0.8772,-0.9007,-0.9083,-0.9264,-0.9652,-0.9734,-1.0132,-1.1069,-1.1087,-1.1465,-1.2224,-1.2305,-1.2305,-1.2305,-1.2305,-1.2732,-1.3673,-1.4665,-1.5649,-1.6636,-1.7569,-1.8008,-1.8008,-1.8008,-1.8008,-1.8008,-1.8008,-1.8008,-1.8008,-1.8008,-1.8529,-1.9299,-1.9299,-1.9814,-2.059,-2.059,-2.0139,-1.9562,-1.9365,-1.8854,-1.8269,-1.8076,-1.8008,-1.7794,-1.6853,-1.6706,-1.6853,-1.6636,-1.6775,-1.707,-1.7794,-1.8008,-1.8008,-1.8008,-1.8008,-1.8008,-1.8008,-1.7862,-1.7217,-1.5517,-1.5021,-1.4416,-1.3065,-1.2822,-1.2926,-1.3467,-1.3519,-1.3559,-1.3559,-1.2624,-1.143,-1.0369,-0.9119,-0.7995,-0.712,-0.6891,-0.6827,-0.6709,-0.6668,-0.6597,-0.6478,-0.6335,-0.6338,-0.6338,-0.6338,-0.6338,-0.6338,-0.6291,-0.6424,-0.6651,-0.6685,-0.6824,-0.064,-0.2221,-0.4454,-0.7781,-1.0367,-1.2928,-1.6039,-1.7441,-1.8389,-1.9567,-1.8608,-1.7457,-1.7092,-1.4789,-1.2879,-1.2512,-1.0647,-0.9274,-0.9274,-0.8549,-0.8067,-0.8184,-0.8292,-0.8518,-0.8754,-0.8872,-0.9248,-0.9922,-1.046,-1.096,-1.1539,-1.207,-1.2305,-1.2305,-1.2305,-1.2519,-1.3025,-1.4027,-1.495,-1.593,-1.6853,-1.7579,-1.8008,-1.8008,-1.8008,-1.8008,-1.8008,-1.8008,-1.8008,-1.8008,-1.8269,-1.8654,-1.8654,-1.8977,-1.9365,-1.9365,-1.9044,-1.8654,-1.8654,-1.8405,-1.8008,-1.8008,-1.8008,-1.7725,-1.6367,-1.6576,-1.707,-1.6149,-1.6576,-1.7354,-1.7862,-1.8008,-1.8008,-1.8008,-1.8008,-1.8008,-1.8008,-1.7647,-1.6932,-1.5446,-1.4807,-1.4133,-1.2989,-1.2986,-1.3327,-1.3788,-1.3854,-1.3854,-1.3854,-1.3336,-1.2254,-1.0439,-0.8764,-0.7508,-0.6915,-0.6282,-0.6207,-0.683,-0.6329,-0.6176,-0.6692,-0.6549,-0.6407,-0.6264,-0.6338,-0.6338,-0.6338,-0.6403,-0.6552,-0.6705,-0.6844,-0.6993,-0.0044,-0.1956,-0.4805,-0.9555,-1.1471,-1.3176,-1.6678,-1.8158,-1.8988,-1.967,-1.8703,-1.7478,-1.6546,-1.4554,-1.2696,-1.1703,-1.0199,-0.9011,-0.8877,-0.8096,-0.7572,-0.7572,-0.7726,-0.7909,-0.788,-0.8107,-0.8387,-0.8792,-0.9612,-1.0306,-1.0771,-1.162,-1.215,-1.2298,-1.2305,-1.2305,-1.2305,-1.3237,-1.4171,-1.5234,-1.6289,-1.7285,-1.8008,-1.8008,-1.8008,-1.8008,-1.8008,-1.8008,-1.8008,-1.8008,-1.8008,-1.8008,-1.8008,-1.8008,-1.8008,-1.8008,-1.8008,-1.8008,-1.8008,-1.7872,-1.7794,-1.794,-1.7794,-1.7226,-1.5658,-1.6298,-1.7217,-1.5658,-1.6437,-1.7794,-1.794,-1.8008,-1.8008,-1.8008,-1.8008,-1.8008,-1.8008,-1.7285,-1.6349,-1.5376,-1.4289,-1.3446,-1.2993,-1.33,-1.3728,-1.4041,-1.4088,-1.4088,-1.4088,-1.4088,-1.3215,-1.0869,-0.8532,-0.7139,-0.7139,-0.5708,-0.5351,-0.6602,-0.5706,-0.5634,-0.6806,-0.6793,-0.659,-0.6268,-0.6285,-0.6298,-0.6298,-0.6542,-0.6675,-0.6709,-0.698,-0.7115,0.0388,-0.2492,-0.5893,-0.8817,-1.1285,-1.3765,-1.6479,-1.8346,-1.9608,-1.9786,-1.9089,-1.8051,-1.6648,-1.4554,-1.2504,-1.0927,-0.9291,-0.7897,-0.7177,-0.6268,-0.5756,-0.5756,-0.5771,-0.584,-0.5982,-0.6015,-0.6499,-0.7617,-0.7859,-0.8753,-1.0697,-1.0938,-1.1391,-1.2305,-1.2305,-1.2305,-1.2305,-1.3237,-1.4171,-1.5234,-1.701,-1.7862,-1.8008,-1.8008,-1.8008,-1.8008,-1.8008,-1.8008,-1.8008,-1.8008,-1.8008,-1.8008,-1.8008,-1.8008,-1.8008,-1.8008,-1.8008,-1.8008,-1.8008,-1.7501,-1.6922,-1.7725,-1.6872,-1.5517,-1.5305,-1.5376,-1.5517,-1.5234,-1.5939,-1.6991,-1.7794,-1.8008,-1.8008,-1.8008,-1.8008,-1.8008,-1.8008,-1.7285,-1.6349,-1.5376,-1.3969,-1.3013,-1.3427,-1.352,-1.3654,-1.4028,-1.4088,-1.4088,-1.4088,-1.4088,-1.3215,-1.0869,-0.8532,-0.7139,-0.7139,-0.5708,-0.4905,-0.5085,-0.5252,-0.5773,-0.6659,-0.6841,-0.6698,-0.6271,-0.638,-0.6444,-0.6444,-0.6481,-0.6569,-0.6705,-0.6875,-0.7021,-0.0331,-0.2781,-0.5575,-0.8545,-1.1046,-1.359,-1.678,-1.8659,-1.9855,-2.0268,-1.9673,-1.8395,-1.6125,-1.3841,-1.1727,-1.0066,-0.8404,-0.7111,-0.6785,-0.5943,-0.5428,-0.5428,-0.5428,-0.5456,-0.5454,-0.546,-0.5754,-0.6399,-0.6978,-0.7762,-0.8747,-0.9852,-1.0581,-1.1016,-1.152,-1.181,-1.181,-1.24,-1.3558,-1.5234,-1.6576,-1.7217,-1.7217,-1.7794,-1.8008,-1.8008,-1.8008,-1.8008,-1.8008,-1.8008,-1.8008,-1.8008,-1.8008,-1.8008,-1.8008,-1.8008,-1.7647,-1.7217,-1.7217,-1.6576,-1.586,-1.6298,-1.5877,-1.5092,-1.4522,-1.5084,-1.586,-1.5376,-1.6228,-1.7501,-1.7872,-1.8008,-1.8008,-1.8008,-1.7579,-1.7148,-1.701,-1.6367,-1.5426,-1.4124,-1.3488,-1.3253,-1.352,-1.3714,-1.3888,-1.4062,-1.4088,-1.4088,-1.4088,-1.1821,-0.9744,-0.879,-0.7749,-0.7139,-0.7139,-0.4018,-0.286,-0.4727,-0.4552,-0.5134,-0.6867,-0.701,-0.6915,-0.6641,-0.6529,-0.6471,-0.6471,-0.6559,-0.6678,-0.6831,-0.698,-0.7082,-0.0549,-0.2713,-0.5117,-0.8402,-1.1133,-1.3841,-1.6973,-1.9059,-2.0314,-2.0527,-2.0014,-1.861,-1.5735,-1.3263,-1.1078,-0.925,-0.7697,-0.6654,-0.6396,-0.6009,-0.5752,-0.5752,-0.5947,-0.5947,-0.5752,-0.5752,-0.5755,-0.5917,-0.6405,-0.7095,-0.7901,-0.9114,-0.9962,-1.0447,-1.1073,-1.1423,-1.1423,-1.1997,-1.3097,-1.4749,-1.5747,-1.621,-1.6289,-1.6941,-1.7295,-1.7295,-1.7794,-1.8008,-1.8008,-1.8008,-1.8008,-1.8008,-1.7725,-1.7647,-1.7647,-1.7373,-1.6862,-1.621,-1.621,-1.5658,-1.4879,-1.5092,-1.4879,-1.445,-1.4171,-1.5084,-1.607,-1.5376,-1.6585,-1.794,-1.7725,-1.7794,-1.794,-1.7725,-1.7139,-1.6428,-1.5666,-1.5166,-1.454,-1.3182,-1.3213,-1.3534,-1.3634,-1.3895,-1.4088,-1.4088,-1.3039,-1.2778,-1.3913,-1.0005,-0.7139,-0.7139,-0.7139,-0.7139,-0.7139,-0.2772,-0.1254,-0.4283,-0.3926,-0.4628,-0.691,-0.7088,-0.7,-0.6817,-0.6586,-0.6471,-0.6471,-0.6624,-0.6759,-0.6875,-0.7054,-0.6962,0.0559,-0.1944,-0.4907,-0.8253,-1.1863,-1.5073,-1.6856,-1.9489,-2.126,-2.0106,-1.9632,-1.861,-1.5735,-1.3263,-1.0885,-0.8463,-0.7307,-0.6396,-0.5554,-0.6137,-0.6654,-0.6654,-0.7372,-0.7567,-0.6719,-0.6654,-0.6668,-0.6788,-0.613,-0.6887,-0.965,-0.9039,-0.9469,-1.1286,-1.1354,-1.1423,-1.1423,-1.2618,-1.3267,-1.3429,-1.4646,-1.5305,-1.5305,-1.5305,-1.5376,-1.5446,-1.7226,-1.8008,-1.8008,-1.8008,-1.8008,-1.794,-1.7001,-1.6636,-1.6567,-1.5658,-1.5305,-1.5305,-1.5305,-1.4593,-1.3954,-1.4879,-1.3947,-1.2806,-1.4593,-1.5163,-1.5234,-1.5234,-1.6585,-1.7794,-1.6922,-1.7354,-1.7803,-1.689,-1.6655,-1.607,-1.4243,-1.4065,-1.4018,-1.3355,-1.3353,-1.3621,-1.3995,-1.4075,-1.4088,-1.4088,-1.0351,-0.9052,-1.3561,-1.0005,-0.7139,-0.7139,-0.7139,-0.7139,-0.7139,-0.2772,-0.1076,-0.3481,-0.3659,-0.4599,-0.6857,-0.6939,-0.68,-0.6502,-0.6481,-0.6471,-0.6471,-0.6624,-0.6705,-0.6719,-0.7007,-0.6517,0.1697,-0.0676,-0.3436,-0.7854,-1.1526,-1.4684,-1.7164,-1.9196,-2.04,-1.9942,-1.9139,-1.7699,-1.5149,-1.2603,-1.0246,-0.8334,-0.6789,-0.5752,-0.5428,-0.5686,-0.6075,-0.6654,-0.6981,-0.7046,-0.6719,-0.6719,-0.649,-0.5966,-0.5642,-0.6194,-0.7784,-0.8061,-0.8804,-1.0011,-1.0601,-1.0962,-1.1142,-1.1586,-1.2305,-1.3329,-1.3793,-1.4104,-1.4243,-1.4879,-1.4879,-1.4314,-1.5658,-1.6507,-1.707,-1.6437,-1.6941,-1.7872,-1.6289,-1.6079,-1.6498,-1.5517,-1.4807,-1.4243,-1.4243,-1.36,-1.2879,-1.3237,-1.2879,-1.2519,-1.381,-1.4665,-1.5234,-1.5234,-1.6585,-1.7794,-1.6853,-1.7285,-1.7579,-1.6088,-1.4728,-1.3658,-1.2945,-1.3049,-1.3293,-1.3225,-1.3574,-1.3921,-1.4062,-1.4088,-1.3039,-1.0091,-0.8181,-0.879,-1.3476,-1.0005,-0.7139,-0.7139,-0.7139,-0.7139,-0.7139,-0.366,-0.2769,-0.5708,-0.4461,-0.4597,-0.6847,-0.6929,-0.6783,-0.6478,-0.6471,-0.6471,-0.6471,-0.6624,-0.6753,-0.6851,-0.6259,-0.5802,0.4429,0.1475,-0.2014,-0.6879,-1.1137,-1.4881,-1.7861,-1.9281,-1.9895,-1.9642,-1.8706,-1.7147,-1.4687,-1.2033,-0.9693,-0.8259,-0.6535,-0.5428,-0.5428,-0.562,-0.6141,-0.7046,-0.7372,-0.7437,-0.7177,-0.7111,-0.6789,-0.5881,-0.5815,-0.6207,-0.7111,-0.7962,-0.8812,-0.9722,-1.0301,-1.0719,-1.0842,-1.0949,-1.1517,-1.2528,-1.2738,-1.2955,-1.3086,-1.3901,-1.3882,-1.3237,-1.3947,-1.4942,-1.607,-1.5446,-1.5948,-1.6872,-1.5305,-1.5084,-1.55,-1.4585,-1.381,-1.3237,-1.3237,-1.2806,-1.2305,-1.2305,-1.2305,-1.2519,-1.381,-1.4665,-1.5234,-1.5587,-1.6793,-1.7794,-1.6853,-1.6862,-1.6724,-1.5517,-1.3738,-1.2305,-1.2305,-1.2565,-1.2852,-1.3019,-1.3614,-1.4088,-1.4088,-1.4088,-1.2516,-0.7837,-0.7139,-0.8181,-1.1391,-1.0438,-0.8877,-0.7228,-0.7139,-0.7139,-0.7139,-0.4727,-0.4283,-0.6959,-0.5227,-0.4915,-0.6847,-0.6831,-0.6678,-0.6474,-0.6424,-0.6403,-0.6403,-0.6552,-0.6533,-0.6254,-0.56,-0.4879,0.0,0.0,0.0,-0.5264,-1.0646,-1.5693,-1.8802,-1.9793,-1.9863,-1.9014,-1.8275,-1.6979,-1.4336,-1.1607,-0.9346,-0.8153,-0.6527,-0.5428,-0.5428,-0.6137,-0.7046,-0.7892,-0.8748,-0.8947,-0.8091,-0.8027,-0.7632,-0.6719,-0.6654,-0.7046,-0.7962,-0.8877,-0.9722,-1.0561,-1.0624,-1.0624,-1.0624,-1.0835,-1.0982,-1.1002,-1.157,-1.185,-1.1877,-1.2164,-1.2291,-1.2305,-1.2305,-1.3375,-1.5092,-1.5092,-1.5163,-1.5092,-1.4027,-1.3673,-1.36,-1.2666,-1.2305,-1.2305,-1.2305,-1.2305,-1.2305,-1.2305,-1.2305,-1.2659,-1.4593,-1.5234,-1.5376,-1.6349,-1.7285,-1.7794,-1.6853,-1.593,-1.5234,-1.5234,-1.373,-1.2378,-1.2305,-1.2619,-1.2872,-1.2842,-1.344,-1.4041,-1.4055,-1.399,-1.2345,-0.7749,-0.7139,-0.7139,-0.7139,-1.1042,-1.2169,-0.7661,-0.7139,-0.7139,-0.7139,-0.5706,-0.5437,-0.6956,-0.5854,-0.5615,-0.683,-0.663,-0.6471,-0.6468,-0.6332,-0.6338,-0.6338,-0.6403,-0.5897,-0.4863,-0.4969,-0.3853,0.9932,0.0,0.0,0.0,0.0,0.0,-1.6621,-1.7318,-1.7416,-1.7043,-1.5798,-1.437,-1.2921,-1.032,-0.8219,-0.7612,-0.6297,-0.5428,-0.5428,-0.6137,-0.7046,-0.7892,-0.8748,-0.8947,-0.8091,-0.8027,-0.7377,-0.5881,-0.5752,-0.6404,-0.7897,-0.9454,-1.0364,-1.0561,-1.0624,-1.0624,-1.0624,-1.0641,-1.0782,-1.0995,-1.1156,-1.1456,-1.187,-1.1951,-1.2104,-1.2305,-1.2305,-1.2586,-1.3091,-1.3091,-1.3947,-1.5021,-1.3382,-1.3098,-1.36,-1.2666,-1.2305,-1.2305,-1.2305,-1.2305,-1.2305,-1.2305,-1.2305,-1.2659,-1.4593,-1.5234,-1.5376,-1.6349,-1.7285,-1.794,-1.7647,-1.6932,-1.607,-1.5376,-1.4386,-1.339,-1.2519,-1.2392,-1.2525,-1.2788,-1.2772,-1.2939,-1.338,-1.099,-0.8619,-0.7312,-0.7139,-0.7139,-0.7139,-0.8269,-0.9222,-0.957,-0.8097,-0.7139,-0.7139,-0.5807,-0.5583,-0.69,-0.5732,-0.5455,-0.6603,-0.6519,-0.6424,-0.6322,-0.6281,-0.6338,-0.6261,-0.5686,-0.5162,-0.4866,-0.3396,-0.1958,0.9197,0.5433,0.0959,-0.2259,0.0,0.0,-1.5667,-1.6232,-1.6193,-1.594,-1.4678,-1.3292,-1.2195,-0.9778,-0.7751,-0.7244,-0.6055,-0.5196,-0.5257,-0.5771,-0.6593,-0.7832,-0.8156,-0.8156,-0.8027,-0.7702,-0.6854,-0.5491,-0.5752,-0.6728,-0.842,-0.9134,-0.9843,-1.0561,-1.0624,-1.0624,-1.0624,-1.0624,-1.0712,-1.0815,-1.0935,-1.1169,-1.151,-1.1757,-1.1964,-1.2131,-1.2245,-1.2305,-1.2305,-1.2305,-1.2945,-1.3875,-1.2732,-1.2666,-1.3025,-1.2519,-1.2305,-1.2305,-1.2305,-1.2305,-1.2305,-1.2305,-1.2305,-1.2586,-1.4099,-1.4593,-1.4807,-1.572,-1.6715,-1.7432,-1.7432,-1.6715,-1.593,-1.5658,-1.4458,-1.3171,-1.2445,-1.2305,-1.2351,-1.2525,-1.2418,-1.2412,-1.2772,-0.9609,-0.7139,-0.7139,-0.7139,-0.7139,-0.7139,-0.7139,-0.7661,-0.8965,-0.7921,-0.7105,-0.7021,-0.6242,-0.6096,-0.6749,-0.6019,-0.5828,-0.6474,-0.6417,-0.6346,-0.6342,-0.6338,-0.6022,-0.5392,-0.4993,-0.4382,-0.3521,-0.1827,-0.0712,0.7164,0.3856,-0.0341,-0.2573,-0.7353,0.0,-1.5128,-1.5631,-1.5451,-1.5217,-1.4116,-1.2826,-1.1704,-0.9501,-0.7633,-0.6936,-0.5768,-0.5003,-0.5087,-0.5288,-0.6086,-0.7629,-0.7191,-0.7075,-0.7728,-0.7163,-0.633,-0.5491,-0.6203,-0.7437,-0.9075,-0.8484,-0.8871,-1.0555,-1.0624,-1.0624,-1.0624,-1.0624,-1.0624,-1.0624,-1.0822,-1.0962,-1.1009,-1.1563,-1.1837,-1.1884,-1.2178,-1.2305,-1.2305,-1.2305,-1.2305,-1.2305,-1.2305,-1.2305,-1.2305,-1.2305,-1.2305,-1.2305,-1.2305,-1.2305,-1.2305,-1.2305,-1.2305,-1.2445,-1.3455,-1.3673,-1.3954,-1.5021,-1.6009,-1.6706,-1.6636,-1.6079,-1.5587,-1.5807,-1.4378,-1.2799,-1.2372,-1.1922,-1.162,-1.162,-1.2003,-1.2305,-1.2305,-0.9366,-0.7065,-0.7129,-0.7139,-0.7139,-0.7139,-0.7139,-0.7139,-0.7139,-0.7139,-0.7051,-0.6827,-0.681,-0.677,-0.6681,-0.6532,-0.6451,-0.6451,-0.6329,-0.6338,-0.6338,-0.6338,-0.555,-0.4057,-0.4373,-0.344,-0.1423,-0.0431,0.0,0.513,0.2232,-0.1142,-0.1478,-0.6214,0.0,-1.2246,-1.2808,-1.3046,-1.2929,-1.1654,-1.0469,-1.0148,-0.8623,-0.716,-0.6472,-0.5939,-0.5486,-0.4999,-0.5586,-0.6149,-0.6515,-0.7145,-0.7308,-0.6755,-0.6698,-0.633,-0.5491,-0.6203,-0.7177,-0.8221,-0.8748,-0.9524,-1.0561,-1.0624,-1.0624,-1.0624,-1.0624,-1.0624,-1.0624,-1.0678,-1.0768,-1.1002,-1.1356,-1.1643,-1.1884,-1.2178,-1.2305,-1.2305,-1.2305,-1.2305,-1.2305,-1.2305,-1.2305,-1.2305,-1.2305,-1.2305,-1.2305,-1.2305,-1.2305,-1.2305,-1.2305,-1.2305,-1.2445,-1.3455,-1.3673,-1.4099,-1.586,-1.7001,-1.7569,-1.6784,-1.7001,-1.695,-1.5029,-1.5737,-1.6079,-1.2945,-0.9739,-0.7476,-0.7476,-1.0115,-1.2305,-1.2305,-0.9043,-0.6593,-0.7068,-0.7139,-0.7139,-0.7139,-0.7139,-0.7139,-0.7139,-0.7139,-0.6997,-0.6644,-0.6614,-0.6586,-0.6522,-0.6383,-0.6302,-0.6302,-0.6352,-0.6338,-0.6338,-0.6338,-0.5315,-0.3279,-0.3357,-0.2308,-0.0331,-0.0087,0.0,0.0371,-0.121,-0.3214,-0.3063,-0.608,0.0,0.0,-1.163,-1.1885,-1.2034,-1.0835,-0.9692,-0.9573,-0.8013,-0.6606,-0.6242,-0.5608,-0.5053,-0.4738,-0.5173,-0.5691,-0.6164,-0.625,-0.6305,-0.6305,-0.6021,-0.5668,-0.5305,-0.6073,-0.6948,-0.7957,-0.8812,-0.9722,-1.0561,-1.0624,-1.0624,-1.0624,-1.0624,-1.0624,-1.0624,-1.0624,-1.0698,-1.0788,-1.1076,-1.1289,-1.1456,-1.1897,-1.2084,-1.2098,-1.2238,-1.2305,-1.2305,-1.2305,-1.2305,-1.2305,-1.2305,-1.2305,-1.2305,-1.2305,-1.2305,-1.2305,-1.2305,-1.2305,-1.2372,-1.2879,-1.3025,-1.3237,-1.4155,-1.5508,-1.6367,-1.5438,-1.6088,-1.6664,-1.5092,-1.495,-1.4657,-1.2732,-0.9135,-0.6338,-0.6338,-0.7927,-0.9286,-0.9286,-0.7625,-0.6363,-0.6658,-0.6702,-0.6702,-0.6702,-0.6959,-0.7027,-0.6732,-0.6702,-0.6624,-0.6427,-0.641,-0.64,-0.6369,-0.6298,-0.6338,-0.6338,-0.5786,-0.5392,-0.5234,-0.5944,-0.5786,-0.4686,-0.2541,-0.1008,0.0,0.0,0.0,-0.4483,-0.4692,-0.5421,-0.5269,-0.6417,-0.8146,0.0,0.0,0.0,-1.1318,-1.0381,-0.9415,-0.913,-0.7579,-0.6284,-0.5974,-0.5214,-0.4573,-0.4436,-0.4616,-0.5088,-0.599,-0.5325,-0.5168,-0.6049,-0.5344,-0.4996,-0.5262,-0.593,-0.6809,-0.8073,-0.8803,-0.966,-1.0555,-1.0624,-1.0624,-1.0624,-1.0624,-1.0624,-1.0624,-1.0624,-1.0624,-1.0631,-1.0862,-1.0995,-1.1022,-1.1557,-1.1817,-1.1891,-1.2124,-1.2251,-1.2305,-1.2305,-1.2305,-1.2305,-1.2305,-1.2305,-1.2305,-1.2305,-1.2305,-1.2305,-1.2305,-1.2305,-1.2305,-1.2305,-1.2445,-1.2592,-1.2592,-1.3803,-1.495,-1.3954,-1.4807,-1.5737,-1.4879,-1.3448,-1.2077,-1.1316,-0.8609,-0.6338,-0.6338,-0.6338,-0.6338,-0.6338,-0.6338,-0.6338,-0.6338,-0.6338,-0.6338,-0.6338,-0.6675,-0.679,-0.6312,-0.6338,-0.6338,-0.6338,-0.6338,-0.6338,-0.6338,-0.6338,-0.6338,-0.6338,-0.5079,-0.445,-0.4606,-0.5709,-0.5867,-0.5082,-0.1633,0.0,0.0,0.0,0.0,-0.6668,-0.648,-0.6584,-0.6184,-0.6987,-0.8049,-0.882,0.0,-1.0239,-0.982,0.0,-0.8601,-0.7916,0.0,0.0,-0.5278,-0.514,-0.4944,-0.4188,-0.4164,-0.4581,-0.5474,-0.5083,-0.5002,-0.5748,-0.5176,-0.507,-0.5828,-0.5868,-0.6688,-0.8628,-0.8775,-0.9389,-1.0548,-1.0624,-1.0624,-1.0624,-1.0624,-1.0624,-1.0624,-1.0624,-1.0624,-1.0631,-1.0862,-1.0995,-1.1009,-1.1336,-1.1623,-1.187,-1.1904,-1.2071,-1.2305,-1.2305,-1.2305,-1.2305,-1.2305,-1.2305,-1.2305,-1.2305,-1.2305,-1.2305,-1.2305,-1.2305,-1.2305,-1.2305,-1.2879,-1.3528,-1.3528,-1.4314,-1.495,-1.3954,-1.453,-1.4879,-1.3091,-1.2445,-1.1323,-0.7778,-0.6641,-0.6338,-0.6338,-0.6338,-0.6338,-0.6338,-0.6338,-0.6338,-0.6338,-0.6338,-0.6338,-0.6338,-0.6318,-0.6335,-0.6345,-0.6338,-0.6338,-0.6338,-0.6338,-0.6338,-0.6338,-0.6338,-0.6338,-0.6338,-0.4373,-0.4139,-0.6022,-0.618,-0.4455,-0.0706,-0.0258,0.0,0.0,0.0,0.0,-0.6858,-0.7136,-0.7455,-0.663,-0.7269,-0.8282,-0.9134,-0.9464,-0.963,-0.9684,0.0,0.0,0.0,0.0,0.0,0.0,-0.4719,-0.444,-0.4029,-0.4023,-0.4422,-0.5263,-0.4737,-0.4442,-0.4856,-0.4594,-0.4643,-0.5174,-0.5945,-0.6847,-0.7887,-0.8962,-0.9794,-1.0301,-1.0474,-1.0624,-1.0624,-1.0624,-1.0624,-1.0624,-1.0624,-1.0624,-1.0624,-1.0752,-1.0742,-1.0755,-1.1049,-1.1249,-1.139,-1.173,-1.1944,-1.2064,-1.2238,-1.2305,-1.2305,-1.2305,-1.2305,-1.2305,-1.2305,-1.2305,-1.2305,-1.2305,-1.2305,-1.2305,-1.2305,-1.2592,-1.2879,-1.2879,-1.3593,-1.4099,-1.3171,-1.3738,-1.4243,-1.2659,-1.1403,-0.9744,-0.6945,-0.6338,-0.6338,-0.6338,-0.6338,-0.6338,-0.6338,-0.6338,-0.6338,-0.6338,-0.6338,-0.6338,-0.6338,-0.6338,-0.6338,-0.6338,-0.6338,-0.6338,-0.6338,-0.6338,-0.6338,-0.6338,-0.6338,-0.5709,-0.453,-0.4766,-0.4219,-0.266,-0.2659,-0.177,0.0,0.0,0.0,0.0,0.0,0.0,-0.6584,-0.7119,-0.7677,-0.6822,-0.7362,-0.8367,-0.932,-0.9188,-0.892,-0.9155,-0.8273,0.0,0.0,0.0,-0.4915,-0.4717,0.0,-0.3992,-0.391,-0.3931,-0.4306,-0.5382,-0.4972,-0.4543,-0.4294,-0.418,-0.4361,-0.4883,-0.5964,-0.6885,-0.7528,-0.9036,-0.9947,-1.0114,-1.0327,-1.0481,-1.0624,-1.0364,-1.0238,-1.0238,-0.9977,-0.9907,-0.9907,-1.0104,-1.0104,-0.9919,-1.0581,-1.0784,-1.0698,-1.1467,-1.1797,-1.1897,-1.2191,-1.2305,-1.2305,-1.2305,-1.2305,-1.2305,-1.2305,-1.2305,-1.2305,-1.2305,-1.2305,-1.2305,-1.2305,-1.2305,-1.2305,-1.2305,-1.2806,-1.3164,-1.2445,-1.3025,-1.3382,-1.207,-1.0501,-0.877,-0.6718,-0.6338,-0.6338,-0.6338,-0.6338,-0.6338,-0.6338,-0.6338,-0.6338,-0.6338,-0.6338,-0.6338,-0.6338,-0.6338,-0.6338,-0.6338,-0.6338,-0.6338,-0.6338,-0.6338,-0.6338,-0.6338,-0.524,-0.3908,-0.2345,-0.375,-0.3127,-0.0079,0.0,0.0,0.0,0.0,0.0,0.0,0.0,0.0,-0.6041,-0.6483,-0.7066,-0.6694,-0.7241,-0.8078,-0.8705,-0.8396,-0.7888,-0.777,-0.729,-0.6641,-0.5727,-0.539,-0.5007,0.0,-0.4019,0.0,0.0,-0.3714,-0.4325,-0.5814,-0.6062,-0.5693,-0.4604,-0.4195,-0.4401,-0.5416,-0.5928,-0.6793,-0.8081,-0.8869,-0.9469,-1.01,-1.0127,-1.0267,-1.0618,-0.9786,-0.9338,-0.9338,-0.8484,-0.8091,-0.8091,-0.8947,-0.8877,-0.8156,-0.9849,-1.0277,-0.9807,-1.097,-1.161,-1.1897,-1.2191,-1.2305,-1.2305,-1.2305,-1.2305,-1.2305,-1.2305,-1.2305,-1.2305,-1.2305,-1.2305,-1.2305,-1.2305,-1.2305,-1.2305,-1.2305,-1.2298,-1.2372,-1.2305,-1.2305,-1.2003,-1.0645,-0.9825,-0.877,-0.6718,-0.6338,-0.6338,-0.6338,-0.6338,-0.6338,-0.6338,-0.6338,-0.6338,-0.6338,-0.6338,-0.6338,-0.6338,-0.6338,-0.6338,-0.6338,-0.6338,-0.6338,-0.6338,-0.6338,-0.6338,-0.6338,-0.2425,-0.0157,-0.0079,-0.0157,-0.0157,0.0,0.0,0.0,0.0,0.0,0.0,0.0,0.0,0.0,-0.6032,-0.6629,-0.729,-0.6909,-0.7529,-0.8177,-0.8093,-0.7966,-0.7739,-0.7122,-0.6536,-0.6049,-0.5576,-0.4976,0.0,0.0,0.0,0.0,0.0,-0.3987,-0.4282,-0.4506,-0.5069,-0.511,-0.4122,-0.3927,-0.4091,-0.4608,-0.5585,-0.65,-0.7111,-0.8459,-0.9419,-0.982,-1.0013,-1.0261,-1.0618,-1.0301,-1.0174,-1.0174,-0.9262,-0.8877,-0.8877,-0.8549,-0.8291,-0.8027,-0.8608,-0.8787,-0.8695,-0.9991,-1.0578,-1.0847,-1.1893,-1.2305,-1.2305,-1.2305,-1.2305,-1.2305,-1.2305,-1.2305,-1.2305,-1.2305,-1.2305,-1.2305,-1.2305,-1.2305,-1.2305,-1.2305,-1.2305,-1.215,-1.1465,-1.1316,-1.1013,-0.9895,-0.8993,-0.8161,-0.7698,-0.6942,-0.6338,-0.6338,-0.6338,-0.6338,-0.6338,-0.6338,-0.6338,-0.6338,-0.6338,-0.6338,-0.6338,-0.6338,-0.6338,-0.6338,-0.6338,-0.6338,-0.6338,-0.6338,-0.5082,-0.227,-0.0784,0.0,0.0,0.0,0.0,0.0,0.0,0.0,0.0,0.0,0.0,0.0,0.0,0.0,-0.5678,-0.6599,-0.7419,-0.711,-0.7714,-0.8305,-0.7958,-0.7544,-0.7074,-0.6416,-0.5806,-0.5358,-0.5307,-0.4728,-0.4324,0.0,0.0,0.0,0.0,-0.3943,-0.4002,-0.3749,-0.4459,-0.471,-0.4,-0.3812,-0.3883,-0.4294,-0.5426,-0.6284,-0.6558,-0.8154,-0.9265,-0.9673,-0.9866,-1.0154,-1.0618,-1.0301,-1.011,-1.011,-0.9268,-0.8678,-0.8355,-0.8091,-0.7637,-0.712,-0.7702,-0.7832,-0.7666,-0.899,-0.9753,-1.0224,-1.1332,-1.1996,-1.2305,-1.2305,-1.2305,-1.2305,-1.2305,-1.2305,-1.2305,-1.2305,-1.2305,-1.2305,-1.2305,-1.2077,-1.1768,-1.1768,-1.1768,-1.162,-1.0789,-1.0714,-1.0484,-0.9216,-0.8385,-0.7783,-0.7621,-0.6945,-0.6338,-0.6338,-0.6338,-0.6338,-0.6338,-0.6338,-0.6338,-0.6338,-0.6338,-0.6338,-0.6338,-0.6338,-0.6338,-0.6338,-0.6338,-0.6338,-0.6338,-0.6338,-0.4533,-0.0235,0.0,0.0,0.0,0.0,0.0,0.0,0.0,0.0,0.0,0.0,0.0,0.0,0.0,0.0]}]]